[[{"header":{"parameterUnit":"m.s-1","parameterCategory":1,"la1":31.0,"la2":29.5877,"lo1":-88.7671,"lo2":-86.6584,"dy":0.0162,"dx":0.0185,"nx":115,"ny":88,"refTime":"2024-03-27T12:00:00:Z","depth":0,"parameterNumber":2,"parameterNumberName":"U-component_of_WINDS"},"data":[0.0,0.0,0.0,0.0,0.0,0.0,0.0,0.0,0.0,0.0,0.0,0.0,0.0,0.0,0.0,0.0,0.0,0.0,0.0,0.0,0.0,0.0,0.0,0.0,0.0,0.0,0.0,0.0,0.0,0.0,0.0,0.0,0.0,0.0,0.0,0.0,0.0,0.0,0.0,0.0,0.0,0.0,0.0,0.0,0.0,0.0,0.0,0.0,0.0,0.0,0.0,0.0,0.0,0.0,0.0,0.0,0.0,0.0,0.0,0.0,0.0,0.0,0.0,0.0,0.0,0.0,0.0,0.0,0.0,0.0,0.0,0.0,0.0,0.0,0.0,0.0,0.0,0.0,0.0,0.0,0.0,0.0,0.0,0.0,0.0,0.0,0.0,0.0,0.0,0.0,0.0,0.0,0.0,0.0,0.0,0.0,0.0,0.0,0.0,0.0,0.0,0.0,0.0,0.0,0.0,0.0,0.0,0.0,0.0,0.0,0.0,0.0,0.0,0.0,0.0,0.0,0.0,0.0,0.0,0.0,0.0,0.0,0.0,0.0,0.0,0.0,0.0,0.0,0.0,0.0,0.0,0.0,0.0,0.0,0.0,0.0,0.0,0.0,0.0,0.0,0.0,0.0,0.0,0.0,0.0,0.0,0.0,0.0,0.0,0.0,0.0,0.0,0.0,0.0,0.0,0.0,0.0,0.0,0.0,0.0,0.0,0.0,0.0,0.0,0.0,0.0,0.0,0.0,0.0,0.0,0.0,0.0,0.0,0.0,0.0,0.0,0.0,0.0,0.0,0.0,0.0,0.0,0.0,0.0,0.0,0.0,0.0,0.0,0.0,0.0,0.0,0.0,0.0,0.0,0.0,0.0,0.0,0.0,0.0,0.0,0.0,0.0,0.0,0.0,0.0,0.0,0.0,0.0,0.0,0.0,0.0,0.0,0.0,0.0,0.0,0.0,0.0,0.0,0.0,0.0,0.0,0.0,0.0,0.0,0.0,0.0,0.0,0.0,0.0,0.0,0.0,0.0,0.0,0.0,0.0,0.0,0.0,0.0,0.0,0.0,0.0,0.0,0.0,0.0,0.0,0.0,0.0,0.0,0.0,0.0,0.0,0.0,0.0,0.0,0.0,0.0,0.0,0.0,0.0,0.0,0.0,0.0,0.0,0.0,0.0,0.0,0.0,0.0,0.0,0.0,0.0,0.0,0.0,0.0,0.0,0.0,0.0,0.0,0.0,0.0,0.0,0.0,0.0,0.0,0.0,0.0,0.0,0.0,0.0,0.0,0.0,0.0,0.0,0.0,0.0,0.0,0.0,0.0,0.0,0.0,0.0,0.0,0.0,0.0,0.0,0.0,0.0,0.0,0.0,0.0,0.0,0.0,0.0,0.0,0.0,0.0,0.0,0.0,0.0,0.0,0.0,0.0,0.0,0.0,0.0,0.0,0.0,0.0,0.0,0.0,0.0,0.0,0.0,0.0,0.0,0.0,0.0,0.0,0.0,0.0,0.0,0.0,0.0,0.0,0.0,0.0,0.0,0.0,0.0,0.0,0.0,0.0,0.0,0.0,0.0,0.0,0.0,0.0,0.0,0.0,0.0,0.0,0.0,0.0,0.0,0.0,0.0,0.0,0.0,0.0,0.0,0.0,0.0,0.0,0.0,0.0,0.0,0.0,0.0,0.0,0.0,0.0,0.0,0.0,0.0,0.0,0.0,0.0,0.0,0.0,0.0,0.0,0.0,0.0,0.0,0.0,0.0,0.0,0.0,0.0,0.0,0.0,0.0,0.0,0.0,0.0,0.0,0.0,0.0,0.0,0.0,0.0,0.0,0.0,0.0,0.0,0.0,0.0,0.0,0.0,0.0,0.0,0.0,0.0,0.0,0.0,0.0,0.0,0.0,0.0,0.0,0.0,0.0,0.0,0.0,0.0,0.0,0.0,0.0,0.0,0.0,0.0,0.0,0.0,0.0,0.0,0.0,0.0,0.0,0.0,0.0,0.0,0.0,0.0,0.0,0.0,0.0,0.0,0.0,0.0,0.0,0.0,0.0,0.0,0.0,0.0,0.0,0.0,0.0,0.0,0.0,0.0,0.0,0.0,0.0,0.0,0.0,0.0,0.0,0.0,0.0,0.0,0.0,0.0,0.0,0.0,0.0,0.0,0.0,0.0,0.0,0.0,0.0,0.0,0.0,0.0,0.0,0.0,0.0,0.0,0.0,0.0,0.0,0.0,0.0,0.0,0.0,0.0,0.0,0.0,0.0,0.0,0.0,0.0,0.0,0.0,0.0,0.0,0.0,0.0,0.0,0.0,0.0,0.0,0.0,0.0,0.0,0.0,0.0,0.0,0.0,0.0,0.0,0.0,0.0,0.0,0.0,0.0,0.0,0.0,0.0,0.0,0.0,0.0,0.0,0.0,0.0,0.0,0.0,0.0,0.0,0.0,0.0,0.0,0.0,0.0,0.0,0.0,0.0,0.0,0.0,0.0,0.0,0.0,0.0,0.0,0.0,0.0,0.0,0.0,0.0,0.0,0.0,0.0,0.0,0.0,0.0,0.0,0.0,0.0,0.0,0.0,0.0,0.0,0.0,0.0,0.0,0.0,0.0,0.0,0.0,0.0,0.0,0.0,0.0,0.0,0.0,0.0,0.0,0.0,0.0,0.0,0.0,0.0,0.0,0.0,0.0,0.0,0.0,0.0,0.0,0.0,0.0,0.0,0.0,0.0,0.0,0.0,0.0,0.0,0.0,0.0,0.0,0.0,0.0,0.0,0.0,0.0,0.0,0.0,0.0,0.0,0.0,0.0,0.0,0.0,0.0,0.0,0.0,0.0,0.0,0.0,0.0,0.0,0.0,0.0,0.0,0.0,0.0,0.0,0.0,0.0,0.0,0.0,0.0,0.0,0.0,0.0,0.0,0.0,0.0,0.0,0.0,0.0,0.0,0.0,0.0,0.0,0.0,0.0,0.0,0.0,0.0,0.0,0.0,0.0,0.0,0.0,0.0,0.0,0.0,0.0,0.0,0.0,0.0,0.0,0.0,0.0,0.0,0.0,0.0,0.0,0.0,0.0,0.0,0.0,0.0,0.0,0.0,0.0,0.0,0.0,0.0,0.0,0.0,0.0,0.0,0.0,0.0,0.0,0.0,0.0,0.0,0.0,0.0,0.0,0.0,0.0,0.0,0.0,0.0,0.0,0.0,0.0,0.0,0.0,0.0,0.0,0.0,0.0,0.0,0.0,0.0,0.0,0.0,0.0,0.0,0.0,0.0,0.0,0.0,0.0,0.0,0.0,0.0,0.0,0.0,0.0,0.0,0.0,0.0,0.0,0.0,0.0,0.0,0.0,0.0,0.0,0.0,0.0,0.0,0.0,0.0,0.0,0.0,0.0,0.0,0.0,0.0,0.0,0.0,0.0,0.0,0.0,0.0,0.0,0.0,0.0,0.0,0.0,0.0,0.0,0.0,0.0,0.0,0.0,0.0,0.0,0.0,0.0,0.0,0.0,0.0,0.0,0.0,0.0,0.0,0.0,0.0,0.0,0.0,0.0,0.0,0.0,0.0,0.0,0.0,0.0,0.0,0.0,0.0,0.0,0.0,0.0,0.0,0.0,0.0,0.0,0.0,0.0,0.0,0.0,0.0,0.0,0.0,0.0,0.0,0.0,0.0,0.0,0.0,0.0,0.0,0.0,0.0,0.0,0.0,0.0,0.0,0.0,0.0,0.0,0.0,0.0,0.0,0.0,0.0,0.0,0.0,0.0,0.0,0.0,0.0,0.0,0.0,0.0,0.0,0.0,0.0,0.0,0.0,0.0,0.0,0.0,0.0,0.0,0.0,0.0,0.0,0.0,0.0,0.0,0.0,0.0,0.0,0.0,0.0,0.0,0.0,0.0,0.0,0.0,0.0,0.0,0.0,0.0,0.0,0.0,0.0,0.0,0.0,0.0,0.0,0.0,0.0,0.0,0.0,0.0,0.0,0.0,0.0,0.0,0.0,0.0,0.0,0.0,0.0,0.0,0.0,0.0,0.0,0.0,0.0,0.0,0.0,0.0,0.0,0.0,0.0,0.0,0.0,0.0,0.0,0.0,0.0,0.0,0.0,0.0,0.0,0.0,0.0,0.0,0.0,0.0,0.0,0.0,0.0,0.0,0.0,0.0,0.0,0.0,0.0,0.0,0.0,0.0,0.0,0.0,0.0,0.0,0.0,0.0,0.0,0.0,0.0,0.0,0.0,0.0,0.0,0.0,0.0,0.0,0.0,0.0,0.0,0.0,3.6482,0.0,0.0,0.0,0.0,0.0,0.0,0.0,0.0,0.0,0.0,0.0,0.0,0.0,0.0,0.0,0.0,0.0,0.0,0.0,0.0,0.0,0.0,0.0,0.0,0.0,0.0,0.0,0.0,0.0,0.0,0.0,0.0,0.0,0.0,0.0,0.0,0.0,0.0,0.0,0.0,0.0,0.0,0.0,0.0,0.0,0.0,0.0,0.0,0.0,0.0,0.0,0.0,0.0,0.0,0.0,0.0,0.0,0.0,0.0,0.0,0.0,0.0,0.0,0.0,0.0,0.0,0.0,0.0,0.0,0.0,0.0,0.0,0.0,0.0,0.0,0.0,0.0,0.0,0.0,0.0,0.0,0.0,0.0,0.0,0.0,0.0,0.0,0.0,0.0,0.0,0.0,0.0,0.0,0.0,0.0,0.0,0.0,0.0,0.0,0.0,0.0,0.0,0.0,0.0,0.0,0.0,0.0,0.0,0.0,0.0,3.8743,3.8905,3.8255,3.7617,3.6939,0.0,0.0,0.0,0.0,0.0,0.0,0.0,0.0,0.0,0.0,0.0,0.0,0.0,0.0,0.0,0.0,0.0,0.0,0.0,0.0,0.0,0.0,0.0,0.0,0.0,0.0,0.0,0.0,0.0,0.0,0.0,0.0,0.0,0.0,0.0,0.0,0.0,0.0,0.0,0.0,0.0,0.0,0.0,0.0,0.0,0.0,0.0,0.0,0.0,0.0,0.0,0.0,0.0,0.0,0.0,0.0,0.0,0.0,0.0,0.0,0.0,0.0,0.0,0.0,0.0,0.0,0.0,0.0,0.0,0.0,0.0,0.0,0.0,0.0,0.0,0.0,0.0,0.0,0.0,0.0,0.0,0.0,0.0,0.0,0.0,0.0,0.0,0.0,0.0,0.0,0.0,0.0,0.0,0.0,0.0,0.0,0.0,0.0,0.0,0.0,0.0,0.0,0.0,0.0,0.0,0.0,0.0,0.0,0.0,0.0,0.0,0.0,3.8536,3.7914,3.7128,0.0,0.0,0.0,0.0,0.0,0.0,0.0,0.0,0.0,0.0,0.0,0.0,0.0,0.0,0.0,0.0,0.0,0.0,0.0,0.0,0.0,0.0,0.0,0.0,0.0,0.0,0.0,0.0,0.0,0.0,0.0,0.0,0.0,0.0,0.0,0.0,0.0,0.0,0.0,0.0,0.0,0.0,0.0,0.0,0.0,0.0,0.0,0.0,0.0,0.0,0.0,0.0,0.0,0.0,0.0,0.0,0.0,0.0,0.0,0.0,0.0,0.0,0.0,0.0,0.0,0.0,0.0,0.0,0.0,0.0,0.0,0.0,0.0,0.0,0.0,0.0,0.0,0.0,0.0,0.0,0.0,0.0,0.0,0.0,0.0,0.0,0.0,0.0,0.0,0.0,0.0,0.0,0.0,0.0,0.0,0.0,0.0,0.0,0.0,0.0,0.0,0.0,0.0,0.0,0.0,0.0,0.0,0.0,0.0,0.0,3.8689,3.875,3.92,0.0,3.7246,0.0,0.0,0.0,0.0,0.0,0.0,0.0,0.0,0.0,0.0,0.0,0.0,0.0,0.0,0.0,0.0,0.0,0.0,0.0,0.0,0.0,0.0,0.0,0.0,0.0,0.0,0.0,0.0,0.0,0.0,0.0,0.0,0.0,0.0,0.0,0.0,0.0,0.0,0.0,0.0,0.0,0.0,0.0,0.0,0.0,0.0,0.0,0.0,0.0,0.0,0.0,0.0,0.0,0.0,0.0,0.0,0.0,0.0,0.0,0.0,0.0,0.0,0.0,0.0,0.0,0.0,0.0,0.0,0.0,0.0,0.0,0.0,0.0,0.0,0.0,0.0,0.0,0.0,0.0,0.0,0.0,0.0,0.0,0.0,0.0,0.0,0.0,0.0,0.0,0.0,0.0,0.0,0.0,0.0,0.0,0.0,0.0,0.0,0.0,0.0,0.0,0.0,0.0,0.0,0.0,0.0,0.0,0.0,0.0,0.0,3.8773,3.8933,3.9058,3.8529,0.0,0.0,0.0,0.0,0.0,0.0,0.0,0.0,0.0,0.0,0.0,0.0,0.0,0.0,0.0,0.0,0.0,0.0,0.0,0.0,0.0,0.0,0.0,0.0,0.0,0.0,0.0,0.0,0.0,0.0,0.0,0.0,0.0,0.0,0.0,0.0,0.0,0.0,0.0,0.0,0.0,0.0,0.0,0.0,0.0,0.0,0.0,0.0,0.0,0.0,0.0,0.0,0.0,0.0,0.0,0.0,0.0,0.0,0.0,0.0,0.0,0.0,0.0,0.0,0.0,0.0,0.0,0.0,0.0,0.0,0.0,0.0,0.0,0.0,0.0,0.0,0.0,0.0,0.0,0.0,0.0,0.0,0.0,0.0,0.0,0.0,0.0,0.0,0.0,0.0,0.0,0.0,0.0,0.0,0.0,0.0,0.0,0.0,0.0,0.0,0.0,0.0,0.0,0.0,0.0,0.0,0.0,0.0,0.0,0.0,3.8689,3.8855,3.9212,3.8877,3.8171,3.723,0.0,0.0,0.0,0.0,0.0,0.0,0.0,0.0,0.0,0.0,0.0,0.0,0.0,0.0,0.0,0.0,0.0,0.0,0.0,0.0,0.0,0.0,0.0,0.0,0.0,0.0,0.0,0.0,0.0,0.0,0.0,0.0,0.0,0.0,0.0,0.0,0.0,0.0,0.0,0.0,0.0,0.0,0.0,0.0,0.0,0.0,0.0,0.0,0.0,0.0,0.0,0.0,0.0,0.0,0.0,0.0,0.0,0.0,0.0,0.0,0.0,0.0,0.0,0.0,0.0,0.0,0.0,0.0,0.0,0.0,0.0,0.0,0.0,0.0,0.0,0.0,0.0,0.0,0.0,0.0,0.0,0.0,0.0,0.0,0.0,0.0,0.0,0.0,0.0,0.0,0.0,0.0,0.0,0.0,0.0,0.0,0.0,0.0,0.0,0.0,0.0,0.0,0.0,0.0,0.0,0.0,0.0,0.0,3.8652,3.8689,3.897,3.9534,3.8765,3.7958,0.0,0.0,0.0,0.0,0.0,0.0,0.0,0.0,0.0,0.0,0.0,0.0,0.0,0.0,0.0,0.0,0.0,0.0,0.0,0.0,0.0,0.0,0.0,0.0,0.0,0.0,0.0,0.0,0.0,0.0,0.0,0.0,0.0,0.0,0.0,0.0,0.0,0.0,0.0,0.0,0.0,0.0,0.0,0.0,0.0,0.0,0.0,0.0,0.0,0.0,0.0,0.0,0.0,0.0,0.0,0.0,0.0,0.0,0.0,0.0,0.0,0.0,0.0,0.0,0.0,0.0,0.0,0.0,0.0,0.0,0.0,0.0,0.0,0.0,0.0,0.0,0.0,0.0,0.0,0.0,0.0,0.0,0.0,0.0,0.0,0.0,0.0,0.0,0.0,0.0,0.0,0.0,0.0,0.0,0.0,0.0,0.0,0.0,0.0,0.0,0.0,0.0,0.0,0.0,0.0,0.0,0.0,0.0,0.0,3.7881,3.8596,3.9036,3.9226,3.8672,3.7868,0.0,0.0,0.0,0.0,0.0,0.0,0.0,0.0,0.0,0.0,0.0,0.0,0.0,0.0,0.0,0.0,0.0,0.0,0.0,0.0,0.0,0.0,0.0,0.0,0.0,0.0,0.0,0.0,0.0,0.0,0.0,0.0,0.0,0.0,0.0,0.0,0.0,0.0,0.0,0.0,0.0,0.0,0.0,0.0,0.0,0.0,0.0,0.0,0.0,0.0,0.0,0.0,0.0,0.0,0.0,0.0,0.0,0.0,0.0,0.0,0.0,0.0,0.0,0.0,0.0,0.0,0.0,0.0,0.0,0.0,0.0,0.0,0.0,0.0,0.0,0.0,0.0,0.0,0.0,0.0,0.0,0.0,0.0,0.0,0.0,0.0,0.0,0.0,0.0,0.0,0.0,0.0,0.0,0.0,0.0,0.0,0.0,0.0,0.0,0.0,0.0,0.0,0.0,0.0,0.0,0.0,0.0,0.0,0.0,3.8242,0.0,3.9544,3.9612,3.8916,3.798,0.0,0.0,0.0,0.0,0.0,0.0,0.0,0.0,0.0,0.0,0.0,0.0,0.0,0.0,0.0,0.0,0.0,0.0,0.0,0.0,0.0,0.0,0.0,0.0,0.0,0.0,0.0,0.0,0.0,0.0,0.0,0.0,0.0,0.0,0.0,0.0,0.0,0.0,0.0,0.0,0.0,0.0,0.0,0.0,0.0,0.0,0.0,0.0,0.0,0.0,0.0,0.0,0.0,0.0,0.0,0.0,0.0,0.0,0.0,0.0,0.0,0.0,0.0,0.0,0.0,0.0,0.0,0.0,0.0,0.0,0.0,0.0,0.0,0.0,0.0,0.0,0.0,0.0,0.0,0.0,0.0,0.0,0.0,0.0,0.0,0.0,0.0,0.0,0.0,0.0,0.0,0.0,0.0,0.0,0.0,0.0,0.0,0.0,0.0,0.0,0.0,0.0,0.0,0.0,0.0,0.0,0.0,0.0,3.747,3.9748,4.0243,4.0562,4.0777,3.952,3.8307,0.0,0.0,0.0,0.0,0.0,0.0,0.0,0.0,0.0,0.0,0.0,0.0,0.0,0.0,0.0,0.0,0.0,0.0,0.0,0.0,0.0,0.0,0.0,0.0,0.0,0.0,0.0,0.0,0.0,0.0,0.0,0.0,0.0,0.0,0.0,0.0,0.0,0.0,0.0,0.0,0.0,0.0,0.0,0.0,0.0,0.0,0.0,0.0,0.0,0.0,0.0,0.0,0.0,0.0,0.0,0.0,0.0,0.0,0.0,0.0,0.0,0.0,0.0,0.0,0.0,0.0,0.0,0.0,0.0,0.0,0.0,0.0,0.0,0.0,0.0,0.0,0.0,0.0,0.0,0.0,0.0,0.0,0.0,0.0,0.0,0.0,0.0,0.0,0.0,0.0,0.0,0.0,0.0,0.0,0.0,0.0,0.0,0.0,0.0,0.0,0.0,0.0,0.0,0.0,0.0,0.0,0.0,0.0,0.0,4.0205,4.1343,4.1836,4.1666,4.0418,3.9064,0.0,0.0,0.0,0.0,0.0,0.0,0.0,0.0,0.0,0.0,0.0,0.0,0.0,0.0,0.0,0.0,0.0,0.0,0.0,0.0,0.0,0.0,0.0,0.0,0.0,0.0,0.0,0.0,0.0,0.0,0.0,0.0,0.0,0.0,0.0,0.0,0.0,0.0,0.0,0.0,0.0,0.0,0.0,0.0,0.0,0.0,0.0,0.0,0.0,0.0,0.0,0.0,0.0,0.0,0.0,0.0,0.0,0.0,0.0,0.0,0.0,0.0,0.0,0.0,0.0,0.0,0.0,0.0,0.0,0.0,0.0,0.0,0.0,0.0,0.0,0.0,0.0,0.0,0.0,0.0,0.0,0.0,0.0,0.0,0.0,0.0,0.0,0.0,0.0,0.0,0.0,0.0,0.0,0.0,0.0,0.0,0.0,0.0,0.0,0.0,0.0,0.0,0.0,0.0,0.0,0.0,0.0,0.0,0.0,4.2366,4.3164,4.3433,4.3194,4.1914,4.0251,3.8225,0.0,0.0,0.0,0.0,0.0,0.0,0.0,0.0,0.0,0.0,0.0,0.0,0.0,0.0,0.0,0.0,0.0,0.0,0.0,0.0,0.0,0.0,0.0,0.0,0.0,0.0,0.0,0.0,0.0,0.0,0.0,0.0,0.0,0.0,0.0,0.0,0.0,0.0,0.0,0.0,0.0,0.0,0.0,0.0,0.0,0.0,0.0,0.0,0.0,0.0,0.0,0.0,0.0,0.0,0.0,0.0,0.0,0.0,0.0,0.0,0.0,0.0,0.0,0.0,0.0,0.0,0.0,0.0,0.0,0.0,0.0,0.0,0.0,0.0,0.0,0.0,0.0,0.0,0.0,0.0,0.0,0.0,0.0,0.0,0.0,0.0,0.0,0.0,0.0,0.0,0.0,0.0,0.0,0.0,0.0,0.0,0.0,0.0,0.0,0.0,0.0,0.0,0.0,0.0,0.0,0.0,0.0,0.0,4.5949,4.5635,4.5485,4.535,4.4038,4.1875,0.0,0.0,0.0,0.0,0.0,0.0,0.0,0.0,0.0,0.0,0.0,0.0,0.0,0.0,0.0,0.0,0.0,0.0,0.0,0.0,0.0,0.0,0.0,0.0,0.0,0.0,0.0,0.0,0.0,0.0,0.0,0.0,0.0,0.0,0.0,0.0,0.0,0.0,0.0,0.0,0.0,0.0,0.0,0.0,0.0,0.0,0.0,0.0,0.0,0.0,0.0,0.0,0.0,0.0,0.0,0.0,0.0,0.0,0.0,0.0,0.0,0.0,0.0,0.0,0.0,0.0,0.0,0.0,0.0,0.0,0.0,0.0,0.0,0.0,0.0,0.0,0.0,0.0,0.0,0.0,0.0,0.0,0.0,0.0,0.0,0.0,0.0,0.0,0.0,0.0,0.0,0.0,0.0,0.0,0.0,0.0,0.0,0.0,0.0,0.0,0.0,0.0,0.0,0.0,0.0,0.0,0.0,0.0,0.0,4.6732,4.8968,4.9527,4.8298,4.6742,4.4556,0.0,0.0,0.0,0.0,0.0,0.0,0.0,0.0,0.0,0.0,0.0,0.0,0.0,0.0,0.0,0.0,0.0,0.0,0.0,0.0,0.0,0.0,0.0,0.0,0.0,0.0,0.0,0.0,0.0,0.0,0.0,0.0,0.0,0.0,0.0,0.0,0.0,0.0,0.0,0.0,0.0,0.0,0.0,0.0,0.0,0.0,0.0,0.0,0.0,0.0,0.0,0.0,0.0,0.0,0.0,0.0,0.0,0.0,0.0,0.0,0.0,0.0,0.0,0.0,0.0,0.0,0.0,0.0,0.0,0.0,0.0,0.0,0.0,0.0,0.0,0.0,0.0,0.0,0.0,0.0,0.0,0.0,0.0,0.0,0.0,0.0,0.0,0.0,0.0,0.0,0.0,0.0,0.0,0.0,0.0,0.0,0.0,0.0,0.0,0.0,0.0,0.0,0.0,0.0,0.0,0.0,0.0,0.0,4.6051,4.9126,5.202,5.3049,5.2087,4.9048,4.6071,0.0,0.0,0.0,0.0,0.0,0.0,0.0,0.0,0.0,0.0,0.0,0.0,0.0,0.0,0.0,0.0,0.0,0.0,0.0,0.0,0.0,0.0,0.0,0.0,0.0,0.0,0.0,0.0,0.0,0.0,0.0,0.0,0.0,0.0,0.0,0.0,0.0,0.0,0.0,0.0,0.0,0.0,0.0,0.0,0.0,0.0,0.0,0.0,0.0,0.0,0.0,0.0,0.0,0.0,0.0,0.0,0.0,0.0,0.0,0.0,0.0,0.0,0.0,0.0,0.0,0.0,0.0,0.0,0.0,0.0,0.0,0.0,0.0,0.0,0.0,0.0,0.0,0.0,0.0,0.0,0.0,0.0,0.0,0.0,0.0,0.0,0.0,0.0,0.0,0.0,0.0,0.0,0.0,0.0,0.0,0.0,0.0,0.0,0.0,0.0,0.0,0.0,0.0,0.0,0.0,0.0,0.0,0.0,4.8121,5.2058,5.4571,5.5818,5.5703,5.1164,4.7242,0.0,0.0,0.0,0.0,0.0,0.0,0.0,0.0,0.0,0.0,0.0,0.0,0.0,0.0,0.0,0.0,0.0,0.0,0.0,0.0,0.0,0.0,0.0,0.0,0.0,0.0,0.0,0.0,0.0,0.0,0.0,0.0,0.0,0.0,0.0,0.0,0.0,0.0,0.0,0.0,0.0,0.0,0.0,0.0,0.0,0.0,0.0,0.0,0.0,0.0,0.0,0.0,0.0,0.0,0.0,0.0,0.0,0.0,0.0,0.0,0.0,0.0,0.0,0.0,0.0,0.0,0.0,0.0,0.0,0.0,0.0,0.0,0.0,0.0,0.0,0.0,0.0,0.0,0.0,0.0,0.0,0.0,0.0,0.0,0.0,0.0,0.0,0.0,0.0,0.0,0.0,0.0,0.0,0.0,0.0,0.0,0.0,0.0,0.0,0.0,0.0,0.0,0.0,0.0,0.0,0.0,0.0,0.0,4.9402,5.2527,5.5278,5.6703,5.6703,5.3741,5.0259,0.0,0.0,0.0,0.0,0.0,0.0,0.0,0.0,0.0,0.0,0.0,0.0,0.0,0.0,0.0,0.0,0.0,0.0,0.0,0.0,0.0,0.0,0.0,0.0,0.0,0.0,0.0,0.0,0.0,0.0,0.0,0.0,0.0,0.0,0.0,0.0,0.0,0.0,0.0,0.0,0.0,0.0,0.0,0.0,0.0,0.0,0.0,0.0,3.5912,0.0,0.0,0.0,0.0,0.0,0.0,0.0,0.0,0.0,0.0,0.0,0.0,0.0,0.0,0.0,0.0,0.0,0.0,0.0,0.0,0.0,0.0,0.0,0.0,0.0,0.0,0.0,0.0,0.0,0.0,0.0,0.0,0.0,0.0,0.0,0.0,0.0,0.0,0.0,0.0,0.0,0.0,0.0,0.0,0.0,0.0,0.0,0.0,0.0,0.0,0.0,0.0,0.0,0.0,0.0,0.0,0.0,0.0,0.0,5.0069,5.3498,5.583,5.7203,5.7511,5.5126,5.1818,0.0,0.0,0.0,0.0,0.0,0.0,0.0,0.0,0.0,0.0,0.0,0.0,0.0,0.0,0.0,0.0,0.0,0.0,0.0,0.0,0.0,0.0,0.0,0.0,0.0,0.0,0.0,0.0,0.0,0.0,0.0,0.0,0.0,0.0,0.0,0.0,0.0,0.0,0.0,0.0,0.0,0.0,0.0,0.0,0.0,0.0,0.0,0.0,0.0,0.0,0.0,0.0,0.0,0.0,0.0,0.0,0.0,0.0,0.0,0.0,0.0,0.0,0.0,0.0,0.0,0.0,0.0,0.0,0.0,0.0,0.0,0.0,0.0,0.0,0.0,0.0,0.0,0.0,0.0,0.0,0.0,0.0,0.0,0.0,0.0,0.0,0.0,0.0,0.0,0.0,0.0,0.0,0.0,0.0,0.0,0.0,0.0,0.0,0.0,0.0,0.0,0.0,0.0,0.0,0.0,0.0,0.0,4.6151,5.0657,5.479,5.6318,5.7434,5.8242,5.5857,5.2472,4.824,0.0,0.0,0.0,0.0,0.0,0.0,0.0,0.0,0.0,0.0,0.0,0.0,0.0,0.0,0.0,0.0,0.0,0.0,0.0,0.0,0.0,0.0,0.0,0.0,0.0,0.0,0.0,0.0,0.0,0.0,0.0,0.0,0.0,0.0,0.0,0.0,0.0,0.0,3.1955,3.4848,0.0,0.0,0.0,0.0,0.0,0.0,0.0,0.0,3.7809,0.0,0.0,0.0,0.0,0.0,0.0,0.0,0.0,0.0,0.0,0.0,0.0,0.0,0.0,0.0,0.0,0.0,0.0,0.0,0.0,0.0,0.0,0.0,0.0,0.0,0.0,0.0,0.0,0.0,0.0,0.0,0.0,0.0,0.0,0.0,0.0,0.0,0.0,0.0,0.0,0.0,0.0,0.0,0.0,0.0,0.0,0.0,0.0,0.0,0.0,0.0,0.0,0.0,0.0,0.0,0.0,4.3096,4.7237,5.1716,5.6452,5.6851,5.7396,5.8204,5.5857,5.2472,4.8279,0.0,0.0,0.0,0.0,0.0,0.0,0.0,0.0,0.0,0.0,0.0,0.0,0.0,0.0,0.0,0.0,0.0,0.0,0.0,0.0,0.0,0.0,0.0,0.0,0.0,0.0,0.0,0.0,0.0,0.0,0.0,0.0,0.0,0.0,0.0,0.0,0.0,0.0,0.0,3.747,3.8654,0.0,0.0,0.0,0.0,0.0,0.0,0.0,0.0,3.8777,0.0,0.0,0.0,0.0,0.0,0.0,0.0,0.0,0.0,0.0,0.0,0.0,0.0,0.0,0.0,0.0,0.0,0.0,0.0,0.0,0.0,0.0,0.0,0.0,0.0,0.0,0.0,0.0,0.0,0.0,0.0,0.0,0.0,0.0,0.0,0.0,0.0,0.0,0.0,0.0,0.0,0.0,0.0,0.0,0.0,0.0,0.0,0.0,0.0,0.0,0.0,0.0,0.0,0.0,0.0,4.3812,4.7645,5.1706,5.5897,5.6252,5.6742,5.7511,5.4703,5.1587,0.0,0.0,0.0,0.0,0.0,0.0,0.0,0.0,0.0,0.0,0.0,0.0,0.0,0.0,0.0,0.0,0.0,0.0,0.0,0.0,0.0,0.0,0.0,0.0,0.0,0.0,0.0,0.0,0.0,0.0,0.0,0.0,0.0,0.0,0.0,0.0,0.0,0.0,0.0,0.0,3.8737,4.0193,4.0384,0.0,0.0,0.0,0.0,0.0,0.0,4.0613,4.0277,0.0,0.0,0.0,0.0,0.0,0.0,0.0,0.0,0.0,0.0,0.0,0.0,0.0,0.0,0.0,0.0,0.0,0.0,0.0,0.0,0.0,0.0,0.0,0.0,0.0,0.0,0.0,0.0,0.0,0.0,0.0,0.0,0.0,0.0,0.0,0.0,0.0,0.0,0.0,0.0,0.0,0.0,0.0,0.0,0.0,0.0,0.0,0.0,0.0,0.0,0.0,0.0,0.0,0.0,0.0,4.443,4.7843,5.1619,5.5581,5.5746,5.6203,5.7126,5.378,5.0702,0.0,0.0,0.0,0.0,0.0,0.0,0.0,0.0,0.0,0.0,0.0,0.0,0.0,0.0,0.0,0.0,0.0,0.0,0.0,0.0,0.0,0.0,0.0,0.0,0.0,0.0,0.0,0.0,0.0,0.0,0.0,0.0,0.0,0.0,0.0,0.0,0.0,0.0,0.0,0.0,0.0,4.165,4.2109,4.238,0.0,0.0,0.0,0.0,4.3021,4.2639,0.0,0.0,0.0,0.0,0.0,0.0,0.0,0.0,0.0,0.0,0.0,0.0,0.0,0.0,0.0,0.0,0.0,0.0,0.0,0.0,0.0,0.0,0.0,0.0,0.0,0.0,0.0,0.0,0.0,0.0,0.0,0.0,0.0,0.0,0.0,0.0,0.0,0.0,0.0,0.0,0.0,0.0,0.0,0.0,0.0,0.0,0.0,0.0,0.0,0.0,0.0,0.0,0.0,0.0,0.0,0.0,4.5641,4.8287,5.2296,5.7559,5.6489,5.6472,5.805,5.4087,5.0702,0.0,0.0,0.0,0.0,0.0,0.0,0.0,0.0,0.0,0.0,0.0,0.0,0.0,0.0,0.0,0.0,0.0,0.0,0.0,0.0,0.0,0.0,0.0,0.0,0.0,0.0,0.0,0.0,0.0,0.0,0.0,0.0,0.0,0.0,0.0,0.0,0.0,0.0,0.0,0.0,0.0,4.3062,4.4105,4.49,4.5281,0.0,0.0,4.4701,4.4815,4.4365,0.0,0.0,0.0,0.0,0.0,0.0,0.0,0.0,0.0,0.0,0.0,0.0,0.0,0.0,0.0,0.0,0.0,0.0,0.0,0.0,0.0,0.0,0.0,0.0,0.0,0.0,0.0,0.0,0.0,0.0,0.0,0.0,0.0,0.0,0.0,0.0,0.0,0.0,0.0,0.0,0.0,0.0,0.0,0.0,0.0,0.0,0.0,0.0,0.0,0.0,0.0,0.0,0.0,0.0,0.0,4.1501,4.6553,4.9299,5.2856,5.7335,5.7319,5.7319,5.755,5.3895,5.0702,0.0,0.0,0.0,0.0,0.0,0.0,0.0,0.0,0.0,0.0,0.0,0.0,0.0,0.0,0.0,0.0,0.0,0.0,0.0,0.0,0.0,0.0,0.0,0.0,0.0,0.0,0.0,0.0,0.0,0.0,0.0,0.0,0.0,0.0,0.0,0.0,0.0,0.0,0.0,0.0,0.0,0.0,4.6458,4.7605,0.0,0.0,0.0,4.6819,4.6819,0.0,0.0,0.0,0.0,0.0,0.0,0.0,0.0,0.0,0.0,0.0,0.0,0.0,0.0,0.0,0.0,0.0,0.0,0.0,0.0,0.0,0.0,0.0,0.0,0.0,0.0,0.0,0.0,0.0,0.0,0.0,0.0,0.0,0.0,0.0,0.0,0.0,0.0,0.0,0.0,0.0,0.0,0.0,0.0,0.0,0.0,0.0,0.0,0.0,0.0,0.0,0.0,0.0,0.0,0.0,0.0,0.0,4.7124,5.0177,5.3541,5.7203,5.795,5.7989,5.728,5.401,0.0,0.0,0.0,0.0,0.0,0.0,0.0,0.0,0.0,0.0,0.0,0.0,0.0,0.0,0.0,0.0,0.0,0.0,0.0,0.0,0.0,0.0,0.0,0.0,0.0,0.0,0.0,2.6319,0.0,0.0,0.0,0.0,0.0,0.0,0.0,0.0,0.0,0.0,0.0,0.0,0.0,0.0,4.6515,4.8472,4.9961,5.0779,0.0,0.0,4.9048,4.9048,4.7471,4.5855,0.0,0.0,0.0,0.0,0.0,0.0,0.0,0.0,0.0,0.0,0.0,0.0,0.0,0.0,0.0,0.0,0.0,0.0,0.0,0.0,0.0,0.0,0.0,0.0,0.0,0.0,0.0,0.0,0.0,0.0,0.0,0.0,0.0,0.0,0.0,0.0,0.0,0.0,0.0,0.0,0.0,0.0,0.0,0.0,0.0,0.0,0.0,0.0,0.0,0.0,0.0,0.0,0.0,0.0,0.0,4.7124,5.0786,5.4435,5.8027,5.8274,5.8274,5.8165,5.4895,5.1548,0.0,0.0,0.0,0.0,0.0,0.0,0.0,0.0,0.0,0.0,0.0,0.0,0.0,0.0,0.0,0.0,0.0,0.0,0.0,0.0,0.0,0.0,0.0,0.0,0.0,0.0,0.0,0.0,0.0,0.0,0.0,0.0,0.0,0.0,0.0,0.0,0.0,0.0,0.0,0.0,0.0,4.7731,4.9706,5.1705,5.299,0.0,0.0,5.1664,5.1664,4.9548,4.7394,4.5778,0.0,0.0,0.0,0.0,0.0,0.0,0.0,0.0,0.0,0.0,0.0,0.0,0.0,0.0,0.0,0.0,0.0,0.0,0.0,0.0,0.0,0.0,0.0,0.0,0.0,0.0,0.0,0.0,0.0,0.0,0.0,0.0,0.0,0.0,0.0,0.0,0.0,0.0,0.0,0.0,0.0,0.0,0.0,0.0,0.0,0.0,0.0,0.0,0.0,0.0,0.0,0.0,0.0,4.2913,4.7144,5.1568,5.5278,5.8181,5.9296,5.9335,5.8319,5.5511,5.2395,0.0,0.0,0.0,0.0,0.0,0.0,0.0,0.0,0.0,0.0,0.0,0.0,0.0,0.0,0.0,0.0,0.0,0.0,0.0,0.0,0.0,0.0,0.0,0.0,0.0,0.0,0.0,0.0,3.1028,3.1458,3.2082,0.0,0.0,0.0,0.0,0.0,0.0,0.0,0.0,0.0,0.0,4.9034,5.1318,5.2992,0.0,0.0,5.2818,5.1933,5.1933,4.9779,4.7702,4.6586,4.3855,0.0,0.0,0.0,0.0,0.0,0.0,0.0,0.0,0.0,0.0,0.0,0.0,0.0,0.0,0.0,0.0,0.0,0.0,0.0,0.0,0.0,0.0,0.0,0.0,0.0,0.0,0.0,0.0,0.0,0.0,0.0,0.0,0.0,0.0,0.0,0.0,0.0,0.0,0.0,0.0,0.0,0.0,0.0,0.0,0.0,0.0,0.0,0.0,0.0,0.0,0.0,0.0,4.3308,4.7162,5.2046,5.5724,5.828,5.9704,5.9858,5.8665,5.6434,5.3626,0.0,0.0,0.0,0.0,0.0,0.0,0.0,0.0,0.0,0.0,0.0,0.0,0.0,0.0,0.0,0.0,0.0,0.0,0.0,0.0,0.0,0.0,0.0,0.0,0.0,0.0,0.0,0.0,3.26,3.2889,3.2632,0.0,0.0,0.0,0.0,0.0,0.0,0.0,0.0,0.0,0.0,5.0397,5.2494,5.398,5.478,5.4511,5.3241,5.2202,5.1972,4.9779,4.7855,4.7048,0.0,0.0,0.0,0.0,0.0,0.0,0.0,0.0,0.0,0.0,0.0,0.0,0.0,0.0,0.0,0.0,0.0,0.0,0.0,0.0,0.0,0.0,0.0,0.0,0.0,0.0,0.0,0.0,0.0,0.0,3.416,0.0,0.0,0.0,0.0,0.0,0.0,0.0,0.0,0.0,0.0,0.0,0.0,0.0,0.0,0.0,0.0,0.0,0.0,0.0,0.0,0.0,0.0,4.3847,4.72,5.2008,5.5724,5.8242,5.9088,5.9511,5.9435,5.7819,5.5318,5.1818,0.0,0.0,0.0,0.0,0.0,0.0,0.0,0.0,0.0,0.0,0.0,0.0,0.0,0.0,0.0,0.0,0.0,0.0,0.0,0.0,0.0,0.0,0.0,0.0,0.0,0.0,3.2573,3.3319,3.3466,0.0,0.0,0.0,0.0,0.0,0.0,0.0,0.0,0.0,0.0,4.8732,5.1767,5.3007,5.4587,5.5318,5.4587,5.3741,5.2856,5.2049,4.9779,4.7817,0.0,0.0,0.0,0.0,0.0,0.0,0.0,0.0,0.0,0.0,0.0,0.0,0.0,0.0,0.0,0.0,0.0,0.0,0.0,0.0,0.0,0.0,0.0,0.0,0.0,0.0,0.0,3.6449,3.6685,0.0,0.0,0.0,0.0,0.0,0.0,0.0,0.0,0.0,0.0,0.0,4.181,4.2078,0.0,0.0,0.0,0.0,0.0,0.0,0.0,0.0,0.0,0.0,0.0,0.0,4.3885,4.7218,5.2008,5.5724,5.8242,5.9088,5.9511,5.9473,5.7896,5.4357,4.874,0.0,0.0,0.0,0.0,0.0,0.0,0.0,0.0,0.0,0.0,0.0,0.0,0.0,0.0,0.0,0.0,0.0,0.0,0.0,0.0,0.0,0.0,0.0,0.0,0.0,3.3939,0.0,0.0,0.0,0.0,0.0,0.0,0.0,0.0,0.0,0.0,0.0,4.3604,4.5709,4.8848,5.1467,5.299,5.3703,5.4126,0.0,0.0,0.0,0.0,0.0,0.0,0.0,0.0,0.0,0.0,0.0,0.0,0.0,0.0,4.1008,3.9854,3.9662,3.9315,3.82,0.0,0.0,0.0,0.0,0.0,0.0,0.0,0.0,0.0,0.0,0.0,0.0,0.0,0.0,0.0,0.0,3.87,0.0,0.0,0.0,0.0,0.0,0.0,0.0,0.0,4.2603,4.3596,4.4456,4.4687,4.4551,0.0,4.3388,4.2449,0.0,0.0,0.0,0.0,0.0,0.0,0.0,0.0,4.427,4.7622,5.1872,5.5434,5.8165,5.8819,5.9358,5.9896,5.8011,5.4241,4.8394,4.576,4.2569,0.0,0.0,0.0,0.0,0.0,0.0,0.0,0.0,0.0,0.0,0.0,0.0,0.0,0.0,0.0,0.0,0.0,0.0,0.0,0.0,0.0,0.0,0.0,3.5555,0.0,0.0,0.0,0.0,0.0,0.0,0.0,0.0,0.0,4.0438,4.2759,4.5194,4.7176,4.9585,5.151,5.2626,0.0,0.0,0.0,0.0,0.0,0.0,0.0,4.9548,4.8702,4.7163,4.574,4.4893,4.4316,4.397,4.397,0.0,0.0,4.17,4.1393,4.1046,3.9969,3.9777,3.9931,4.0523,4.02,3.9969,0.0,0.0,0.0,0.0,0.0,0.0,0.0,0.0,4.103,4.1135,0.0,4.0185,0.0,0.0,0.0,0.0,0.0,4.0354,0.0,0.0,4.4884,4.6121,4.6934,4.7645,4.8066,4.8025,4.6832,4.6252,4.597,4.1203,0.0,0.0,0.0,0.0,0.0,0.0,4.5153,4.837,5.16,5.4891,5.8165,5.8319,5.9088,6.055,5.828,5.5011,5.0894,4.8298,4.5396,4.1992,3.9469,0.0,0.0,0.0,0.0,0.0,0.0,0.0,0.0,0.0,0.0,0.0,0.0,0.0,0.0,0.0,0.0,0.0,0.0,0.0,0.0,3.6343,0.0,0.0,0.0,0.0,0.0,0.0,0.0,0.0,0.0,0.0,4.2868,4.4989,4.7214,4.9163,0.0,0.0,0.0,0.0,5.4164,5.3395,5.3933,5.3857,5.2202,5.1279,5.0433,4.9586,0.0,0.0,4.5817,4.5663,4.5663,4.5663,4.5663,4.5163,4.3585,4.3201,4.3047,4.297,4.2854,4.3102,4.3195,4.2871,4.2893,4.6432,0.0,0.0,0.0,0.0,4.2893,4.3487,4.4514,4.4261,4.3918,4.3551,4.3085,0.0,0.0,0.0,0.0,0.0,0.0,4.4735,4.5841,4.6908,4.7529,4.7761,4.7991,4.8087,4.8048,4.7461,4.7154,4.705,4.4795,4.2581,4.057,0.0,0.0,0.0,0.0,4.5817,4.8754,5.1677,5.4852,5.8242,5.828,5.8511,5.9011,5.7703,5.528,5.1702,4.9721,4.7126,4.3722,4.1755,0.0,0.0,0.0,0.0,0.0,0.0,0.0,0.0,0.0,0.0,0.0,0.0,0.0,0.0,0.0,0.0,0.0,0.0,0.0,3.9555,3.949,3.9125,0.0,0.0,0.0,0.0,0.0,0.0,0.0,0.0,0.0,4.6378,4.7482,4.8684,0.0,0.0,5.2356,5.3587,5.3664,5.3703,5.4049,5.3818,0.0,5.2895,5.2125,5.1279,5.0471,4.8894,4.7663,4.7432,4.7394,4.7394,4.7355,4.7394,4.7201,4.6701,4.5163,4.3855,4.3239,4.3085,4.3316,4.3833,4.3508,4.3355,5.0587,4.7222,4.5893,4.5316,4.5316,4.5337,4.5817,4.6583,4.6606,4.6319,4.5763,4.5453,4.4586,4.3278,4.2931,0.0,0.0,0.0,4.6775,4.7889,4.8739,4.9317,4.9605,4.9951,5.0106,5.0106,4.9357,4.8947,4.8823,4.7239,4.5574,4.3754,0.0,0.0,4.2396,4.4899,4.7378,4.9869,5.2735,5.5544,5.8242,5.8627,5.8473,5.778,5.7242,5.5549,5.2549,5.1105,4.8818,4.5494,4.4047,4.1986,0.0,0.0,0.0,0.0,0.0,0.0,0.0,0.0,0.0,0.0,0.0,3.1314,3.2109,0.0,0.0,0.0,3.7655,3.97,4.2124,4.1698,0.0,0.0,0.0,0.0,0.0,0.0,0.0,4.4093,4.5592,4.7258,4.8894,4.9677,5.0385,5.1067,5.1895,5.2779,5.3857,0.0,5.3895,5.4395,5.4318,5.4087,5.378,5.328,5.2433,5.0933,4.9548,4.8509,4.8163,4.8086,4.8086,4.8086,4.8086,4.8086,4.8086,4.6547,4.5201,4.4701,4.4316,4.4278,4.4739,4.4432,4.4316,5.4318,5.1933,4.874,4.7355,4.7201,4.7201,4.7663,4.8394,4.8491,4.8433,4.826,4.7529,4.6663,4.574,4.497,0.0,4.5932,4.6817,4.8066,4.9624,5.049,5.1318,5.2046,5.2797,5.3184,5.3147,5.1982,5.1252,5.0787,4.8925,4.7784,4.7352,4.5527,4.4878,4.5626,4.7521,4.9572,5.1642,5.4309,5.656,5.8242,5.9088,5.8704,5.7049,5.6896,5.5742,5.3318,5.2374,5.0412,4.7185,4.6165,4.4179,4.0893,0.0,0.0,0.0,0.0,0.0,0.0,0.0,0.0,0.0,0.0,0.0,0.0,0.0,0.0,0.0,4.0114,0.0,4.3431,4.3415,0.0,0.0,0.0,4.4001,4.2686,4.4461,4.6011,4.6581,0.0,0.0,5.0548,5.1548,5.2087,5.2125,5.2818,5.3318,5.3395,5.4126,5.4587,5.4626,5.5203,5.5395,5.4703,5.4357,5.3395,5.1241,5.0087,4.9279,4.8586,4.8394,4.8355,4.8432,4.8317,4.8355,4.8317,4.7702,4.7086,4.6932,4.6163,4.5547,4.5509,4.547,4.5509,5.5357,5.4587,5.2549,5.0971,4.9817,4.9779,5.026,5.1049,5.1702,5.1279,5.0067,4.9856,4.8933,4.7509,4.7278,4.7663,4.8548,4.9394,5.0337,5.1318,5.2184,5.2723,5.2909,5.3102,5.32,5.3164,5.2571,5.2085,5.1673,5.0916,5.0341,4.9924,4.9712,4.8962,4.7679,4.9001,5.104,5.375,5.5039,5.6521,5.8242,5.9088,5.8704,5.7049,5.6357,5.5126,5.328,5.2374,5.0642,4.7972,4.7048,4.5334,4.2624,4.0854,0.0,0.0,0.0,0.0,0.0,0.0,0.0,0.0,0.0,3.435,3.4839,0.0,3.8723,0.0,4.2722,4.5278,4.6778,4.6129,0.0,0.0,4.5783,4.5896,4.5784,4.6819,4.7778,4.8606,4.9529,5.0471,5.151,5.2933,5.3895,5.3895,5.4049,5.4434,5.5011,5.528,5.5395,5.5395,5.5549,5.5626,5.5357,5.4318,5.3087,5.1818,5.0933,5.0317,5.0087,5.0048,5.0048,5.0087,5.0087,5.0087,5.001,4.9394,4.8586,4.7894,4.6624,4.5586,4.5586,4.5586,4.5642,5.6626,5.6126,5.4472,5.3241,5.2356,5.1972,5.2049,5.253,5.2972,5.2682,5.1798,5.1048,5.0164,4.924,4.8856,4.9163,5.001,5.0856,5.1664,5.2492,5.3378,5.3762,5.3793,5.4161,5.422,5.4028,5.3629,5.3135,5.2536,5.1933,5.1582,5.1338,5.1544,5.1387,5.0871,5.1428,5.2855,5.5017,5.6598,5.772,5.828,5.8742,5.7973,5.5972,5.5434,5.4203,5.2164,5.1624,5.0161,4.7742,4.7163,4.5928,4.3761,4.2393,4.0662,0.0,0.0,0.0,0.0,0.0,0.0,0.0,0.0,0.0,0.0,0.0,4.1085,4.2646,4.5163,4.7086,4.8009,4.7549,4.7222,4.7414,4.7587,4.7951,4.8529,4.9298,5.0144,5.0971,5.151,5.2125,5.2972,5.3895,5.4664,5.4972,5.5011,5.5203,5.5588,5.5703,5.5703,5.5703,5.5703,5.5703,5.5703,5.428,5.3049,5.251,5.1471,5.0702,5.0702,5.0702,5.0702,5.0702,5.0702,5.0702,5.0664,4.9971,4.9202,4.8663,4.7355,4.6201,4.5757,4.5719,4.5796,5.8011,5.7165,5.5511,5.4895,5.4895,5.4049,5.3549,5.3356,5.3472,5.3451,5.3255,5.1721,5.101,5.0971,5.0202,5.0279,5.1048,5.1856,5.2664,5.3395,5.4262,5.4647,5.4682,5.5357,5.5511,5.5143,5.4818,5.4216,5.3353,5.2665,5.2296,5.2227,5.2296,5.2885,5.3997,5.4229,5.4852,5.6038,5.8412,5.9242,5.8319,5.828,5.7088,5.4626,5.4395,5.3241,5.0971,5.0624,4.947,4.7223,4.6971,4.6103,4.4414,4.3607,4.247,0.0,4.0777,0.0,0.0,0.0,0.0,0.0,0.0,0.0,0.0,4.1415,4.347,4.5893,4.7509,4.8471,4.8586,4.8702,4.874,4.8779,4.9433,5.0202,5.0933,5.1645,5.2338,5.3126,5.3318,5.3664,5.4318,5.4549,5.4934,5.5511,5.578,5.5895,5.5857,5.578,5.5703,5.5703,5.5703,5.5703,5.5549,5.4395,5.3356,5.3087,5.1933,5.0856,5.0702,5.0702,5.0702,5.0702,5.0702,5.0702,5.0702,5.0087,4.9586,4.9394,4.8317,4.7163,4.6257,4.5918,4.594,5.9165,5.8858,5.7203,5.6934,5.7511,5.6665,5.5493,5.43,5.4934,5.4857,5.4182,5.3164,5.2741,5.2702,5.2549,5.2587,5.2779,5.3626,5.4087,5.43,5.5109,5.5472,5.5472,5.5626,5.5665,5.5588,5.5511,5.5068,5.4246,5.4094,5.38,5.3493,5.3833,5.4327,5.4881,0.0,0.0,0.0,5.9642,5.9819,5.8357,5.828,5.7088,5.4587,5.3818,0.0,5.1702,5.0375,4.9085,4.7932,4.7237,0.0,0.0,0.0,0.0,0.0,0.0,0.0,0.0,0.0,0.0,0.0,4.4935,4.4397,4.2662,4.4586,4.6701,4.8509,4.9625,5.0471,5.1125,5.1856,5.2241,5.2241,5.2356,5.2549,5.2741,5.2856,5.3049,5.3164,5.3836,5.4297,5.4511,5.5049,5.5511,5.5703,5.628,5.6703,5.6703,5.6165,5.5742,5.5703,5.578,5.5703,5.5703,5.4857,5.3933,5.328,5.2395,5.1471,5.0894,5.0741,5.0702,5.0702,5.0702,5.0702,5.0702,5.0548,5.0202,4.9682,4.9356,4.876,4.7124,4.6317,4.5929,5.9511,0.0,5.8165,5.7896,0.0,5.7819,5.7126,5.6379,5.6319,5.5857,5.5049,5.4203,5.3857,5.3818,5.3395,5.3433,5.3857,5.4318,5.4703,5.5147,5.5955,5.634,5.6357,5.678,5.6857,5.6648,5.6857,5.6429,5.5477,5.5437,5.5207,5.4752,5.479,5.499,5.5439,5.6889,5.8066,5.8889,6.0142,5.9973,5.8396,5.828,5.7088,5.4626,0.0,0.0,0.0,0.0,0.0,0.0,0.0,0.0,0.0,0.0,0.0,4.4432,4.5124,4.5393,4.5047,4.574,4.6355,4.6817,4.8009,4.7855,4.574,4.7548,4.9125,4.9971,5.1164,5.2087,5.251,5.2933,5.3203,5.3203,5.3203,5.3356,5.3741,5.3857,5.401,5.4395,5.4797,5.5088,5.5088,5.5434,5.5665,5.5742,5.6434,5.7049,5.7011,5.7011,5.6896,5.6434,5.6357,5.6203,5.5742,5.5049,5.4395,5.3818,5.2779,5.1856,5.1356,5.1279,5.1279,5.1279,5.1318,5.1279,5.1241,5.0971,5.0587,5.0279,4.9997,4.9605,4.86,4.7889,4.7401,5.9742,5.9665,5.8858,5.8627,5.8742,5.8588,5.8511,5.8434,0.0,0.0,0.0,5.5049,5.4703,5.4664,5.4126,5.4241,5.4934,5.5126,5.5511,5.6165,5.69,5.7225,5.728,5.795,5.8088,5.7747,5.8149,5.772,5.6652,5.6601,5.641,5.6053,5.5696,5.5823,5.6434,5.7774,5.8927,5.9719,6.0473,6.005,5.8588,5.8511,5.7319,5.478,5.401,5.2856,5.1202,5.0298,4.951,4.8813,4.8489,4.8298,4.8317,4.8202,4.7817,4.724,4.7894,4.8048,4.7432,4.8086,4.8625,4.8779,5.024,5.0433,4.8702,5.0164,5.1125,5.1125,5.2549,5.3433,5.3433,5.3587,5.3626,5.3626,5.3626,5.3972,5.4587,5.4703,5.4955,5.5588,5.578,5.5934,5.5934,5.6126,5.6165,5.628,5.7049,5.755,5.7665,5.8011,5.7934,5.7357,5.7049,5.6703,5.6049,5.528,5.4703,5.4434,5.3318,5.2356,5.2164,5.2125,5.2125,5.2164,5.2049,5.1895,5.1818,5.1241,5.0779,5.0914,5.0477,5.0064,5.0168,4.978,4.9219,6.0589,6.055,5.9704,5.9781,6.0396,5.9665,5.9358,5.9204,5.7649,5.6917,5.6742,5.5895,5.5511,5.5549,5.6165,5.6549,5.6703,5.7434,5.7819,0.0,5.8055,5.8094,5.8127,5.8235,5.8274,5.8204,5.828,5.8016,5.7482,5.7434,5.7412,5.7325,5.727,5.7787,5.8886,5.9204,5.9758,6.0589,6.0742,6.0319,5.9358,5.9319,5.8127,5.5665,5.5395,5.4549,5.2933,5.201,5.151,5.1318,4.999,4.924,4.9182,4.8548,4.8048,4.8009,4.874,4.9163,4.9086,4.9856,5.0625,5.1356,5.2279,5.2164,5.0587,5.1895,5.2856,5.2895,5.3741,5.4318,5.4357,5.4895,5.5241,5.528,5.5318,5.5395,5.5472,5.5472,5.5511,5.5665,5.6395,5.678,5.678,5.7357,5.778,5.7973,5.8357,5.9319,5.9665,5.9127,5.8357,5.805,5.7473,5.7011,5.6665,5.6049,5.528,5.4587,5.428,5.3741,5.3126,5.3049,5.301,5.301,5.2472,5.2049,5.1972,5.1241,5.0894,5.0972,5.0865,5.0868,5.1057,5.0953,5.0508,6.0819,6.0858,6.0396,6.0473,6.0858,6.0396,6.0204,6.0089,5.8896,5.7819,5.7049,5.7049,5.6857,5.6472,5.7319,5.7703,5.7742,5.8127,5.828,5.8319,5.8748,5.8957,5.9011,5.945,5.9681,5.9665,5.9665,5.9302,5.8668,5.8617,5.8412,5.8029,5.7952,5.8472,5.9441,5.9511,5.995,6.0781,6.0781,6.0358,5.955,5.9511,5.8742,5.7126,5.6242,5.5357,5.4587,5.328,5.2607,5.2607,5.1895,5.1471,5.1433,5.1087,5.0856,5.0894,5.1241,5.1471,5.1471,5.1818,5.2202,5.2626,5.3395,5.378,5.3472,5.3703,5.3895,5.3933,5.4664,5.5164,5.5164,5.5472,5.5703,5.5703,5.5703,5.5703,5.5703,5.5703,5.5703,5.578,5.6472,5.7011,5.7011,5.7742,5.828,5.8357,5.9011,5.9819,6.0666,6.0165,5.9473,5.9011,5.8242,5.755,5.7049,5.6242,5.5588,5.5203,5.478,5.4395,5.3933,5.3895,5.3895,5.3857,5.3203,5.2702,5.2587,5.1548,5.101,5.1029,5.1111,5.1186,5.1334,5.1379,5.0937,6.0896,6.0973,6.0896,6.0896,6.0973,6.0858,6.0781,6.0742,6.0065,5.895,5.7742,5.8088,5.7934,5.7396,5.8204,5.8588,5.8588,5.8781,5.8858,5.8934,5.9496,5.9804,5.9858,6.0473,6.0781,6.0781,6.0781,6.0435,5.9881,5.9781,5.9473,5.8934,5.8858,5.9165,5.9804,5.9781,6.0104,6.0742,6.0781,6.0473,5.9819,5.9781,5.9396,5.855,5.728,5.6472,5.6203,5.4839,5.407,5.401,5.3682,5.349,5.3451,5.3318,5.3203,5.3203,5.3203,5.3203,5.3203,5.3395,5.3587,5.378,5.4549,5.5434,5.6126,5.5703,5.5357,5.5434,5.5972,5.6242,5.6049,5.6011,5.5934,5.5742,5.5895,5.6049,5.6011,5.6165,5.628,5.6357,5.7049,5.7627,5.7703,5.8319,5.8896,5.905,5.9396,6.0089,6.0666,6.0781,6.0473,5.9896,5.9088,5.828,5.7396,5.6588,5.6011,5.578,5.5203,5.4895,5.478,5.478,5.4741,5.4664,5.3857,5.3241,5.3049,5.1856,5.101,5.1049,5.1099,5.1201,5.1352,5.1406,5.1016,6.0896,6.0973,6.0973,6.0973,6.0973,6.0858,6.0781,6.0781,6.0704,6.0142,5.9219,5.8588,5.8319,5.8319,5.905,5.9396,5.9473,6.0204,6.0512,6.0512,6.0627,6.0666,6.0627,6.0742,6.0781,6.0781,6.0781,6.0742,6.0589,6.0627,6.0627,6.0589,6.055,6.055,6.0666,6.0666,6.0704,6.0781,6.0781,6.0781,6.0704,6.0666,6.0281,5.9435,5.9242,5.8819,5.8011,5.7165,5.6626,5.6533,5.5203,5.4374,5.4336,5.3643,5.3241,5.3241,5.3241,5.3203,5.3318,5.3933,5.4741,5.5434,5.6242,5.7088,5.7934,5.7973,5.7934,5.7934,5.7995,5.761,5.6994,5.6857,5.6549,5.5934,5.6434,5.6857,5.6934,5.7588,5.805,5.805,5.8588,5.9242,5.9165,5.9819,6.0396,6.0281,6.0396,6.0589,6.0742,6.0781,6.0781,6.0512,5.9935,5.9127,5.828,5.7434,5.6588,5.5895,5.5626,5.5472,5.5434,5.5472,5.5549,5.5203,5.4203,5.328,5.2895,5.1972,5.0991,5.1064,5.1145,5.1242,5.1367,5.1406,5.0859,6.0858,6.1012,6.1012,6.1012,6.0973,6.0858,6.0781,6.0781,6.0781,6.0589,6.0281,5.9896,5.9511,5.9088,5.9896,6.0281,6.0281,6.0627,6.0781,6.0781,6.0781,6.0781,6.0781,6.0781,6.0781,6.0781,6.0781,6.0781,6.0781,6.0781,6.0781,6.0781,6.0781,6.0781,6.0781,6.0781,6.0781,6.0819,6.132,6.155,6.1512,6.105,6.0627,6.0281,5.9781,5.9396,5.8973,5.8204,5.7511,5.7016,5.634,5.5742,5.5241,5.4857,5.4664,5.4703,5.5164,5.5665,5.6203,5.6549,5.6896,5.7242,5.755,5.8127,5.8934,5.9011,5.9204,5.9588,5.8896,5.7934,5.7203,5.7473,5.7434,5.678,5.7242,5.778,5.778,5.8088,5.828,5.8357,5.9011,5.9511,5.9627,6.0242,6.0742,6.0781,6.0819,6.0858,6.0819,6.0781,6.0781,6.0742,6.0473,5.9935,5.9088,5.7819,5.6973,5.6511,5.6011,5.5703,5.5703,5.5703,5.5665,5.5703,5.428,5.3318,5.3203,5.2011,5.0932,5.1061,5.122,5.1336,5.1405,5.1406,5.0859,6.0858,6.0973,6.1012,6.1012,6.0973,6.0858,6.0781,6.0781,6.0781,6.0781,6.0781,6.0781,6.0473,6.0012,6.0512,6.0781,6.0781,6.0781,6.0781,6.0781,6.0781,6.0781,6.0781,6.0781,6.0781,6.0781,6.0781,6.0781,6.0781,6.0781,6.0781,6.0781,6.0781,6.0781,6.0781,6.0781,6.0935,6.1204,6.1781,6.2204,6.2281,6.182,6.1473,6.1435,6.0666,6.0204,6.0165,5.9204,5.8357,5.7726,5.7495,5.7071,5.6472,5.6395,5.6434,5.6472,5.7011,5.7627,5.828,5.828,5.8396,5.8588,5.8627,5.8973,5.9665,5.9858,6.0127,6.055,5.9704,5.8704,5.7896,5.8242,5.8204,5.755,5.8127,5.8627,5.8627,5.8781,5.905,5.905,5.9627,5.9858,5.9935,6.0435,6.0858,6.1127,6.1204,6.1281,6.1435,6.155,6.155,6.1435,6.132,6.0666,5.9665,5.8665,5.7703,5.6934,5.6434,5.6049,5.578,5.5703,5.5703,5.5549,5.4126,5.328,5.3087,5.205,5.1006,5.1122,5.1289,5.1406,5.1406,5.1406,5.1172,6.0858,6.0973,6.1012,6.1012,6.0973,6.0858,6.0781,6.0781,6.0781,6.0781,6.0781,6.0781,6.0781,6.0704,6.0781,6.0781,6.0781,6.0781,6.0781,6.0781,6.0781,6.0781,6.0781,6.0781,6.0781,6.0781,6.0781,6.0781,6.0781,6.0781,6.0781,6.0781,6.0781,6.0819,6.0858,6.0896,6.1243,6.1988,6.2204,6.2512,6.3166,6.3205,6.3205,6.3128,6.2358,6.1897,6.1743,6.0334,5.9412,5.9373,5.8604,5.8204,5.8127,5.8127,5.8088,5.8127,5.8204,5.828,5.8396,5.8434,5.8704,5.9319,5.9435,5.9819,6.0512,6.0589,6.0666,6.0781,6.0627,6.0127,5.9435,5.9358,5.9127,5.8434,5.8973,5.9396,5.9473,6.005,6.0589,6.055,6.055,6.0589,6.0666,6.0742,6.1204,6.1743,6.2012,6.2243,6.2781,6.3012,6.3012,6.282,6.2358,6.1473,5.9935,5.9165,5.8473,5.7742,5.7165,5.6665,5.6088,5.5703,5.5703,5.5395,5.428,5.3472,5.301,5.237,5.1489,5.125,5.1328,5.1406,5.1406,5.1406,5.125,6.0896,6.0973,6.0896,6.0896,6.0973,6.0858,6.0781,6.0781,6.0781,6.0781,6.0781,6.0781,6.0781,6.0781,6.0781,6.0781,6.0781,6.0781,6.0781,6.0781,6.0781,6.0781,6.0781,6.0781,6.0781,6.0781,6.0781,6.0781,6.0781,6.0781,6.0781,6.0781,6.0781,6.105,6.1535,6.1627,6.205,6.2834,6.3397,6.3858,6.4128,6.4666,6.4974,6.4897,6.3589,6.2627,6.2127,6.1497,6.0666,5.9542,5.9219,5.8835,5.835,5.8296,5.855,5.9011,5.9088,5.9319,5.9781,5.9896,6.0012,6.0281,6.0319,6.0435,6.0742,6.0781,6.0781,6.0781,6.0781,6.0589,6.0473,6.0319,6.0012,5.9358,5.9781,6.0281,6.0358,6.0627,6.0781,6.0781,6.0781,6.0781,6.1012,6.1281,6.1743,6.205,6.2551,6.2974,6.3205,6.332,6.3397,6.3205,6.2627,6.1897,6.1435,6.0089,5.9165,5.855,5.7973,5.7165,5.6549,5.5972,5.5857,5.5626,5.4549,5.3664,5.3184,5.2095,5.1367,5.1328,5.1406,5.1406,5.1406,5.1406,5.1406,6.0858,6.0896,6.0819,6.0858,6.0896,6.0858,6.0781,6.0781,6.0781,6.0781,6.0781,6.0781,6.0781,6.0781,6.0781,6.0781,6.0781,6.0781,6.0781,6.0781,6.0781,6.0935,6.1166,6.1204,6.1358,6.1589,6.1589,6.1589,6.155,6.1358,6.1204,6.1243,6.1204,6.1535,6.2036,6.232,6.2872,6.368,6.432,6.4705,6.5051,6.559,6.5897,6.5743,6.4743,6.3743,6.2935,6.2637,6.1843,6.0589,6.0334,5.995,5.9235,5.9104,5.9358,5.9858,5.9896,6.0165,6.0704,6.0781,6.0781,6.0781,6.0781,6.0781,6.0781,6.0781,6.0781,6.0781,6.0781,6.0781,6.0781,6.0781,6.055,6.0089,6.0435,6.0781,6.0781,6.0781,6.0973,6.1243,6.1589,6.1627,6.1666,6.2166,6.2589,6.282,6.3397,6.3782,6.4089,6.4128,6.4128,6.4089,6.3551,6.3166,6.2627,6.1627,6.0089,5.9319,5.8742,5.7934,5.7011,5.6395,5.5895,5.5626,5.4972,5.4049,5.3051,5.1943,5.1523,5.1406,5.1406,5.1406,5.1406,5.1406,5.1406,6.0781,6.0819,6.0781,6.0781,6.0819,6.0819,6.0781,6.0781,6.0781,6.0781,6.0781,6.0781,6.0781,6.0819,6.0896,6.0858,6.0935,6.1012,6.1012,6.0935,6.0896,6.1343,6.2098,6.2103,6.2411,6.3036,6.3205,6.3166,6.2935,6.2281,6.1973,6.205,6.1973,6.2089,6.2213,6.3012,6.3757,6.4449,6.4705,6.5051,6.5743,6.5859,6.5897,6.5897,6.5743,6.532,6.4551,6.3753,6.2906,6.2136,6.2036,6.1689,6.0858,6.0704,6.0742,6.0666,6.0742,6.0742,6.0781,6.0858,6.0935,6.0973,6.0896,6.1089,6.1127,6.1012,6.0935,6.0973,6.0858,6.0819,6.0896,6.0935,6.0858,6.0781,6.0781,6.0781,6.0781,6.0819,6.1127,6.1897,6.2551,6.3205,6.3243,6.3281,6.3551,6.4089,6.4512,6.482,6.5359,6.5436,6.5705,6.559,6.4782,6.4012,6.3666,6.3166,6.1473,6.005,5.9511,5.8819,5.7665,5.6857,5.6242,5.5818,5.4741,5.3877,5.3181,5.2119,5.1481,5.1367,5.1367,5.1406,5.1406,5.1406,5.1406,6.0781,6.0781,6.0781,6.0781,6.0781,6.0781,6.0781,6.0781,6.0781,6.0781,6.0781,6.0781,6.0781,6.0935,6.1396,6.1704,6.1743,6.2204,6.2243,6.1781,6.1689,6.2136,6.2791,6.2911,6.304,6.3281,6.3281,6.3012,6.2589,6.2243,6.2089,6.2089,6.2127,6.2728,6.369,6.4089,6.4628,6.5397,6.5474,6.5667,6.5859,6.5897,6.5897,6.5897,6.5897,6.5743,6.5474,6.4666,6.382,6.2974,6.2935,6.2551,6.1897,6.1704,6.1435,6.0858,6.0781,6.0781,6.0896,6.1358,6.1666,6.1781,6.2166,6.2474,6.2435,6.1973,6.1704,6.1627,6.1204,6.1012,6.155,6.1704,6.1473,6.0858,6.0781,6.0819,6.0858,6.132,6.1781,6.2089,6.282,6.3243,6.3435,6.3743,6.432,6.4628,6.5089,6.5628,6.5782,6.5897,6.5897,6.582,6.5166,6.4705,6.4359,6.3705,6.232,6.1012,6.0319,5.9511,5.8357,5.7396,5.6742,5.578,5.4703,5.3822,5.3111,5.2408,5.1793,5.1367,5.1367,5.1406,5.1406,5.1406,5.1406,6.0781,6.0781,6.0781,6.0781,6.0781,6.0781,6.0781,6.0781,6.0781,6.0781,6.0858,6.1166,6.1281,6.1473,6.2166,6.2512,6.2589,6.3089,6.3205,6.2974,6.2651,6.3022,6.3753,6.4166,6.4295,6.4282,6.4282,6.4012,6.3512,6.3166,6.3012,6.3012,6.3012,6.3498,6.4576,6.4936,6.5397,6.582,6.5859,6.5897,6.5897,6.5897,6.5897,6.5897,6.5897,6.5897,6.5859,6.5359,6.468,6.3872,6.3488,6.3065,6.2589,6.2551,6.2281,6.1897,6.1743,6.1781,6.1781,6.2281,6.2551,6.2651,6.3012,6.3281,6.3205,6.2781,6.2551,6.2459,6.2127,6.1935,6.2435,6.2551,6.2281,6.182,6.1473,6.1166,6.1089,6.1858,6.2474,6.282,6.3628,6.4128,6.4436,6.4628,6.5051,6.5166,6.5551,6.5897,6.5897,6.5897,6.5897,6.582,6.5551,6.5243,6.5051,6.4166,6.3089,6.205,6.1089,6.0089,5.8934,5.8088,5.7357,5.6049,5.4895,5.4185,5.3475,5.264,5.1953,5.1719,5.1406,5.1406,5.1406,5.1406,5.1406,6.0781,6.0781,6.0781,6.0781,6.0781,6.0781,6.0781,6.0781,6.0781,6.0858,6.1089,6.1666,6.205,6.232,6.3012,6.3397,6.3435,6.3628,6.4051,6.4243,6.3974,6.3974,6.4691,6.5282,6.5551,6.5667,6.5705,6.5667,6.5205,6.4628,6.4589,6.4397,6.432,6.4589,6.4883,6.5513,6.582,6.5859,6.5897,6.5897,6.5897,6.5897,6.5974,6.5974,6.5936,6.5936,6.6051,6.5859,6.5474,6.468,6.4001,6.3617,6.3411,6.3372,6.332,6.3128,6.3243,6.3128,6.3205,6.3281,6.3358,6.3421,6.3551,6.3435,6.3666,6.3551,6.3397,6.3358,6.3166,6.3205,6.332,6.3397,6.3358,6.3281,6.2474,6.1704,6.1127,6.232,6.3012,6.3474,6.4705,6.582,6.5628,6.5743,6.5782,6.5782,6.5859,6.5859,6.5897,6.5897,6.5897,6.582,6.5705,6.5628,6.5397,6.4705,6.3628,6.2704,6.1743,6.0627,5.9358,5.8396,5.7703,5.6395,5.5227,5.4525,5.3792,5.2903,5.2109,5.1601,5.1406,5.1406,5.1406,5.1406,5.1406,6.0781,6.0781,6.0781,6.0781,6.0781,6.0781,6.0781,6.0781,6.0781,6.1127,6.168,6.1973,6.2474,6.3051,6.3858,6.4282,6.4397,6.4859,6.5282,6.5474,6.5359,6.532,6.5513,6.5743,6.5897,6.5897,6.5859,6.5551,6.4974,6.482,6.4666,6.4628,6.4705,6.4974,6.5513,6.5743,6.5859,6.5897,6.5897,6.5897,6.5936,6.5936,6.6205,6.6705,6.6244,6.6244,6.6628,6.6205,6.582,6.559,6.5397,6.4872,6.4334,6.4243,6.4012,6.3551,6.3397,6.3358,6.3474,6.3935,6.4243,6.4345,6.4705,6.5205,6.5205,6.4589,6.4359,6.4166,6.3757,6.3628,6.4128,6.4282,6.4282,6.4089,6.3089,6.2089,6.2012,6.2627,6.332,6.3474,6.4897,6.5705,6.5897,6.5897,6.5897,6.5897,6.5897,6.5897,6.5897,6.5897,6.5897,6.5897,6.582,6.5859,6.5628,6.5013,6.4205,6.3281,6.2243,6.1127,5.9665,5.8242,5.7627,5.678,5.5692,5.4868,5.4012,5.3135,5.2383,5.168,5.1406,5.1406,5.1406,5.1406,5.1406,6.0781,6.0781,6.0781,6.0781,6.0781,6.0781,6.0781,6.0781,6.0819,6.1257,6.2026,6.2512,6.3089,6.3897,6.4743,6.5128,6.5243,6.5667,6.5859,6.5859,6.582,6.5859,6.5859,6.5897,6.5897,6.5897,6.5897,6.5628,6.5282,6.5166,6.5166,6.5166,6.5128,6.5397,6.5782,6.5897,6.5897,6.5897,6.5897,6.6013,6.6359,6.6397,6.6859,6.7321,6.6859,6.6551,6.6551,6.6128,6.5897,6.5859,6.5859,6.5667,6.5218,6.5128,6.4897,6.4397,6.4397,6.4436,6.4474,6.4897,6.5128,6.5205,6.5667,6.582,6.5782,6.5397,6.5166,6.5089,6.4628,6.4705,6.5013,6.5128,6.5128,6.5013,6.3935,6.3012,6.2666,6.3358,6.3782,6.4166,6.4974,6.5897,6.5897,6.5897,6.5897,6.5897,6.5897,6.5897,6.5897,6.5897,6.5897,6.5897,6.5897,6.5897,6.5897,6.5397,6.4666,6.3782,6.2551,6.1473,5.9896,5.8319,5.7703,5.7054,5.6097,5.5117,5.4128,5.332,5.2734,5.2109,5.1719,5.1445,5.1484,5.1562,5.1562,6.0781,6.0781,6.0781,6.0781,6.0781,6.0781,6.0781,6.0781,6.0781,6.1396,6.2257,6.2988,6.3782,6.4782,6.5436,6.5859,6.5859,6.5859,6.5859,6.5897,6.5897,6.5897,6.5897,6.5897,6.5897,6.5897,6.5897,6.5859,6.5743,6.5782,6.5859,6.5743,6.5782,6.5859,6.5897,6.5897,6.5897,6.5936,6.609,6.6436,6.6898,6.7167,6.7667,6.8244,6.7705,6.6898,6.6359,6.5974,6.5897,6.5897,6.5897,6.5859,6.5859,6.5859,6.582,6.5743,6.5628,6.5667,6.5782,6.5705,6.582,6.582,6.582,6.5897,6.5859,6.5782,6.5743,6.5743,6.5859,6.5705,6.5743,6.582,6.5782,6.5628,6.5051,6.4397,6.3935,6.4205,6.4628,6.4666,6.5359,6.5782,6.5897,6.5897,6.5897,6.5897,6.5897,6.5897,6.5897,6.5897,6.5897,6.5897,6.5897,6.5897,6.5897,6.582,6.5051,6.4205,6.282,6.155,6.0012,5.8665,5.8011,5.723,5.6343,5.5273,5.4116,5.3437,5.3125,5.2617,5.2226,5.1875,5.168,5.1836,5.1914,6.0781,6.0781,6.0781,6.0781,6.0781,6.0781,6.0781,6.0781,6.0781,6.1589,6.282,6.3243,6.4166,6.5551,6.5743,6.5897,6.5897,6.5897,6.5897,6.5897,6.5897,6.5897,6.5897,6.5897,6.5897,6.5897,6.5897,6.5897,6.5897,6.5897,6.5897,6.5897,6.5897,6.5897,6.5897,6.5897,6.5897,6.6013,6.6474,6.6898,6.7321,6.7859,6.8513,6.9167,6.8552,6.7744,6.6898,6.6205,6.5897,6.5897,6.5936,6.5974,6.5897,6.5897,6.5897,6.5897,6.5897,6.5897,6.5897,6.5897,6.5897,6.5897,6.5897,6.5897,6.5897,6.5897,6.5897,6.5897,6.5897,6.5897,6.5897,6.5897,6.5897,6.582,6.5667,6.5474,6.5282,6.4897,6.4705,6.4859,6.5359,6.5897,6.5897,6.5897,6.5897,6.5897,6.5897,6.5897,6.5897,6.5897,6.5897,6.5897,6.5897,6.5897,6.5897,6.5743,6.5089,6.432,6.3089,6.1358,5.9819,5.8858,5.8088,5.739,5.6691,5.5527,5.4207,5.4414,5.4297,5.3516,5.2773,5.2578,5.2422,5.2422,5.2031,6.0781,6.0781,6.0781,6.0781,6.0781,6.0781,6.0781,6.0781,6.0781,6.1512,6.2627,6.3089,6.4051,6.5282,6.5705,6.5897,6.5897,6.5897,6.5897,6.5897,6.5897,6.5897,6.5897,6.5897,6.5897,6.5897,6.5897,6.5897,6.5897,6.5897,6.5897,6.5897,6.5897,6.5897,6.5897,6.5897,6.6128,6.6449,6.6872,6.741,6.8282,6.8744,6.9129,6.9552,6.9206,6.859,6.7744,6.7346,6.6885,6.6577,6.6461,6.6269,6.5974,6.5897,6.5897,6.5897,6.5897,6.5897,6.5897,6.5897,6.5897,6.5897,6.5897,6.5897,6.5897,6.5897,6.5897,6.5897,6.5897,6.5897,6.5897,6.5897,6.5897,6.5897,6.5897,6.5897,6.582,6.5474,6.5205,6.5282,6.5628,6.582,6.5897,6.5897,6.5897,6.5897,6.5897,6.5897,6.5897,6.5897,6.5897,6.5897,6.5897,6.5897,6.5897,6.559,6.5013,6.4205,6.3243,6.1243,5.9319,5.8627,5.8066,5.7371,5.6598,5.5559,5.457,5.4961,5.4844,5.3633,5.2969,5.3125,5.3047,5.2656,5.2109,6.0781,6.0781,6.0781,6.0781,6.0781,6.0781,6.0781,6.0781,6.0781,6.1343,6.2074,6.2858,6.3512,6.4436,6.5282,6.5705,6.5859,6.5897,6.5897,6.5897,6.5897,6.5897,6.5897,6.5897,6.5897,6.5897,6.5897,6.5897,6.5897,6.5897,6.5897,6.5897,6.5897,6.5897,6.5897,6.609,6.6436,6.6949,6.7525,6.8218,6.9321,6.9706,6.9898,6.9937,6.9667,6.9283,6.8667,6.8309,6.7988,6.7346,6.7308,6.6846,6.6307,6.5936,6.5897,6.5897,6.5897,6.5897,6.5897,6.5897,6.5897,6.5897,6.5897,6.5897,6.5897,6.5897,6.5897,6.5897,6.5897,6.5897,6.5897,6.5897,6.5897,6.5897,6.5897,6.5897,6.5897,6.5897,6.5782,6.582,6.5782,6.5859,6.5897,6.5897,6.5897,6.5897,6.5897,6.5897,6.5936,6.5936,6.5974,6.5897,6.5897,6.5897,6.5897,6.5782,6.5166,6.4089,6.3243,6.132,5.9242,5.855,5.8033,5.7235,5.6404,5.545,5.5078,5.539,5.4844,5.3555,5.3437,5.3906,5.3555,5.2891,5.2226,6.0781,6.0781,6.0781,6.0781,6.0781,6.0781,6.0781,6.0781,6.0781,6.1304,6.2021,6.2267,6.282,6.3589,6.4436,6.5205,6.5743,6.5897,6.5897,6.5897,6.5897,6.5897,6.5897,6.5897,6.5897,6.5897,6.5897,6.5897,6.5897,6.5897,6.6013,6.5936,6.6013,6.6051,6.6307,6.6538,6.7013,6.7564,6.841,6.9294,6.9783,7.0398,7.0706,7.0667,7.0244,6.986,6.9475,6.8821,6.8321,6.8205,6.8205,6.7705,6.7039,6.6359,6.6051,6.5897,6.5897,6.5897,6.5897,6.5897,6.5897,6.5897,6.5897,6.5897,6.5897,6.5897,6.5897,6.5897,6.5897,6.5897,6.5897,6.5897,6.5897,6.5897,6.5897,6.5897,6.5897,6.5897,6.5897,6.5897,6.5897,6.5897,6.5897,6.5897,6.5897,6.5974,6.6128,6.6128,6.6167,6.6128,6.6128,6.6013,6.5897,6.5897,6.5897,6.5782,6.5359,6.4012,6.2935,6.1512,5.9742,5.8704,5.7901,5.6983,5.642,5.5801,5.5703,5.5781,5.543,5.457,5.4648,5.4726,5.3945,5.3125,5.2305,6.0781,6.0781,6.0781,6.0781,6.0781,6.0781,6.0781,6.0781,6.0819,6.1012,6.1458,6.1882,6.2281,6.2935,6.4089,6.5051,6.5705,6.5897,6.5897,6.5897,6.5897,6.5897,6.5936,6.5897,6.5897,6.5897,6.5897,6.5936,6.5936,6.6359,6.6474,6.6628,6.6898,6.7167,6.7231,6.7564,6.8039,6.8487,6.9256,6.9948,7.036,7.1129,7.1514,7.1437,7.1245,7.1014,7.0821,7.0167,6.9513,6.9179,6.9064,6.8602,6.7948,6.7398,6.6782,6.6128,6.5936,6.5897,6.5897,6.5897,6.5897,6.5897,6.5897,6.5897,6.5897,6.5897,6.5897,6.5897,6.5897,6.5897,6.5897,6.5897,6.5897,6.5897,6.5859,6.5859,6.5897,6.5897,6.5859,6.5859,6.5897,6.5897,6.5897,6.5897,6.5897,6.6051,6.6282,6.6359,6.6436,6.6667,6.6782,6.632,6.6167,6.5897,6.5897,6.582,6.5243,6.3974,6.2897,6.1473,5.9896,5.8665,5.755,5.6592,5.6126,5.5965,5.582,5.5742,5.5664,5.5547,5.5195,5.4765,5.4062,5.332,5.2383,6.0781,6.0781,6.0781,6.0781,6.0781,6.0781,6.0781,6.0781,6.0781,6.0819,6.0896,6.1473,6.1781,6.2243,6.3512,6.482,6.5782,6.5897,6.5897,6.5936,6.6128,6.6167,6.6167,6.632,6.6551,6.6692,6.6628,6.6282,6.632,6.6705,6.709,6.7436,6.8129,6.8385,6.8296,6.845,6.9117,6.9513,6.9948,7.0333,7.1168,7.1822,7.2322,7.2437,7.2437,7.2322,7.1937,7.1437,7.0667,7.014,6.9871,6.9563,6.8844,6.8679,6.7859,6.6474,6.6167,6.6051,6.5897,6.5897,6.5897,6.5897,6.5897,6.5897,6.5897,6.5897,6.5897,6.5897,6.5897,6.5897,6.5897,6.5897,6.5897,6.582,6.5743,6.5667,6.5743,6.5743,6.5667,6.5705,6.582,6.5897,6.5897,6.5897,6.5897,6.6128,6.6359,6.6744,6.6898,6.7667,6.7667,6.6936,6.6474,6.6013,6.5897,6.5897,6.5051,6.3705,6.2935,6.1935,6.0089,5.8357,5.7357,5.6477,5.6242,5.6055,5.5898,5.5859,5.5976,5.5898,5.539,5.4765,5.4062,5.3086,5.2031,6.0781,6.0781,6.0781,6.0781,6.0781,6.0781,6.0781,6.0781,6.0781,6.0781,6.0781,6.0935,6.105,6.1589,6.282,6.4397,6.5474,6.5897,6.5936,6.609,6.6577,6.6898,6.7102,6.7795,6.777,6.7731,6.7859,6.7628,6.7321,6.7282,6.759,6.8205,6.8475,6.8475,6.8809,6.9271,6.9617,6.9833,7.0409,7.1168,7.186,7.2206,7.2745,7.3168,7.3283,7.3091,7.2552,7.2118,7.1541,7.0898,7.0744,7.0333,6.9717,6.9525,6.859,6.7552,6.6898,6.6667,6.6051,6.5897,6.5897,6.5897,6.5897,6.5897,6.5897,6.5897,6.5897,6.5897,6.5897,6.5897,6.5897,6.5897,6.5897,6.5705,6.5474,6.5513,6.5628,6.5705,6.559,6.5705,6.5859,6.5897,6.5897,6.5897,6.5936,6.6205,6.6513,6.6936,6.7359,6.8052,6.8321,6.7552,6.6551,6.6013,6.5705,6.5743,6.4859,6.3474,6.282,6.2089,6.0204,5.8396,5.7396,5.6695,5.6442,5.6261,5.6211,5.6289,5.6445,5.6133,5.5508,5.4805,5.4062,5.2969,5.1875,6.0781,6.0781,6.0781,6.0781,6.0781,6.0781,6.0781,6.0781,6.0781,6.0781,6.0781,6.0819,6.1281,6.2166,6.3089,6.4243,6.559,6.5897,6.6167,6.65,6.6962,6.7398,6.7806,6.8191,6.8398,6.8501,6.8462,6.8552,6.8398,6.8552,6.8821,6.909,6.9552,6.9898,6.9629,7.0129,7.0321,7.0629,7.1168,7.1783,7.2322,7.3091,7.3783,7.4168,7.4168,7.3937,7.3514,7.2542,7.2118,7.1541,7.1245,7.0783,7.0475,7.0244,6.9629,6.809,6.7859,6.7205,6.6128,6.5936,6.5897,6.5897,6.5897,6.5897,6.5897,6.5897,6.5897,6.5897,6.5897,6.5897,6.5897,6.5897,6.5897,6.5705,6.5397,6.5551,6.5667,6.559,6.5628,6.5743,6.5897,6.5897,6.5897,6.5897,6.5936,6.6167,6.6898,6.7744,6.7936,6.8205,6.8282,6.8052,6.6936,6.5897,6.5628,6.5436,6.4589,6.3435,6.2627,6.1704,6.0012,5.8511,5.7588,5.6879,5.6522,5.6459,5.651,5.6523,5.6562,5.6133,5.5625,5.4922,5.4219,5.3242,5.2266,6.0781,6.0781,6.0781,6.0781,6.0781,6.0781,6.0781,6.0781,6.0781,6.0781,6.0781,6.0858,6.1743,6.3012,6.3397,6.4243,6.582,6.5897,6.6397,6.6885,6.7423,6.7975,6.8614,6.8921,6.914,6.9001,6.9244,6.9436,6.9783,6.9937,6.9898,7.0014,7.0398,7.0744,7.0821,7.0821,7.0898,7.1294,7.1783,7.236,7.3053,7.4053,7.463,7.4938,7.5014,7.4938,7.4514,7.3668,7.2899,7.2003,7.1629,7.1206,7.0898,7.0706,7.0167,6.9013,6.8744,6.8129,6.6974,6.632,6.5974,6.5897,6.5897,6.5897,6.5897,6.5897,6.5897,6.5897,6.5897,6.5897,6.5897,6.5897,6.5897,6.5782,6.559,6.5705,6.5782,6.5551,6.5551,6.5782,6.5897,6.5897,6.5897,6.5897,6.5974,6.6128,6.7051,6.8321,6.8629,6.8667,6.8321,6.8167,6.6936,6.582,6.5282,6.4859,6.4051,6.332,6.2512,6.1473,5.9896,5.8781,5.7934,5.7302,5.6708,5.6445,5.642,5.6523,5.6562,5.6211,5.582,5.5195,5.4414,5.3437,5.25,6.0781,6.0781,6.0781,6.0781,6.0781,6.0781,6.0781,6.0781,6.0781,6.0781,6.0819,6.0935,6.182,6.2974,6.3551,6.4359,6.5897,6.5897,6.6474,6.7205,6.7936,6.8717,6.9448,7.0102,7.0514,7.0514,7.036,7.0475,7.0744,7.0591,7.0706,7.086,7.0821,7.086,7.0975,7.1052,7.1409,7.1871,7.236,7.3206,7.3937,7.4707,7.513,7.5707,7.5784,7.5553,7.4784,7.437,7.3783,7.2542,7.2091,7.1706,7.1245,7.0975,7.036,6.9667,6.9398,6.8821,6.7936,6.6744,6.6013,6.5897,6.5897,6.5897,6.5897,6.5897,6.5897,6.5897,6.5897,6.5897,6.5897,6.5897,6.5897,6.5782,6.5667,6.5628,6.559,6.5282,6.5359,6.5743,6.5897,6.5897,6.5897,6.5897,6.5897,6.6051,6.7321,6.859,6.9167,6.9167,6.859,6.8013,6.6782,6.5743,6.4859,6.4243,6.3705,6.2935,6.2089,6.1127,5.9935,5.9011,5.8088,5.7538,5.6925,5.6616,5.6367,5.6523,5.6562,5.6406,5.6015,5.5508,5.4687,5.3633,5.2695,6.0781,6.0781,6.0781,6.0781,6.0781,6.0781,6.0781,6.0781,6.0781,6.0781,6.0858,6.1396,6.2243,6.3166,6.3974,6.4743,6.5782,6.5897,6.6705,6.759,6.8359,6.9206,7.009,7.0667,7.086,7.0898,7.0898,7.0898,7.086,7.0898,7.0898,7.0898,7.0898,7.0898,7.0975,7.1371,7.1909,7.2409,7.3178,7.4168,7.4514,7.5284,7.5668,7.5938,7.5976,7.5861,7.5476,7.4947,7.4332,7.3668,7.2783,7.2168,7.1629,7.1245,7.0591,6.9898,6.9783,6.936,6.8552,6.7359,6.6474,6.5936,6.5897,6.5897,6.5897,6.5897,6.5897,6.5897,6.5897,6.5897,6.5897,6.5897,6.5859,6.5782,6.5705,6.5628,6.5513,6.532,6.5359,6.582,6.5897,6.5897,6.5897,6.5897,6.5897,6.6013,6.7436,6.8706,6.9244,6.9321,6.8629,6.7975,6.6821,6.5551,6.4628,6.4012,6.3397,6.2512,6.1666,6.0935,6.0089,5.8973,5.8149,5.7597,5.7197,5.6803,5.6614,5.6595,5.6562,5.6484,5.6289,5.5976,5.5,5.3906,5.3125,6.0781,6.0781,6.0781,6.0781,6.0781,6.0781,6.0781,6.0781,6.0781,6.0781,6.0858,6.1704,6.2551,6.3358,6.4205,6.5051,6.5705,6.6013,6.6974,6.7782,6.8513,6.9436,7.036,7.0898,7.0898,7.0898,7.0898,7.0898,7.0898,7.0898,7.0898,7.0898,7.0898,7.0898,7.1091,7.1717,7.2381,7.3178,7.3909,7.4938,7.513,7.5938,7.6399,7.6515,7.6707,7.6669,7.6399,7.5938,7.5255,7.4514,7.3668,7.2822,7.2206,7.1591,7.0898,7.036,6.9975,6.9706,6.9052,6.7821,6.6936,6.6436,6.5974,6.5936,6.5897,6.5897,6.5897,6.5897,6.5897,6.5897,6.5897,6.5897,6.5897,6.582,6.582,6.5782,6.5782,6.5667,6.5705,6.5897,6.5897,6.5897,6.5897,6.5936,6.6167,6.6244,6.7013,6.8282,6.9244,6.9052,6.8282,6.7628,6.6936,6.5628,6.4397,6.382,6.3166,6.1897,6.1204,6.105,6.0242,5.9204,5.8534,5.8231,5.7718,5.7077,5.7109,5.7461,5.7109,5.664,5.6445,5.625,5.5469,5.4492,5.3906,6.0781,6.0781,6.0781,6.0781,6.0781,6.0781,6.0781,6.0781,6.0781,6.0781,6.0935,6.1743,6.2589,6.3397,6.432,6.5205,6.5782,6.6013,6.6859,6.809,6.8629,6.9513,7.036,7.0898,7.0898,7.0898,7.0898,7.0898,7.0898,7.0898,7.0898,7.0898,7.0898,7.0975,7.1014,7.1794,7.2996,7.437,7.4668,7.5245,7.5976,7.6746,7.7015,7.7361,7.7746,7.7707,7.7284,7.6938,7.6207,7.5284,7.463,7.3707,7.2706,7.2245,7.1629,7.0975,7.0821,7.0744,7.0591,6.8436,6.7398,6.6859,6.632,6.5897,6.5897,6.5897,6.5897,6.5897,6.5897,6.5897,6.5897,6.5897,6.5897,6.5897,6.5897,6.5897,6.5897,6.5897,6.5897,6.5897,6.5897,6.5897,6.5897,6.5974,6.6359,6.6667,6.6974,6.7821,6.8975,6.8898,6.8167,6.759,6.7013,6.5667,6.4474,6.3743,6.2858,6.155,6.0858,6.0819,6.055,5.9742,5.9188,5.8825,5.8407,5.7881,5.8125,5.8515,5.789,5.7265,5.6719,5.6367,5.5664,5.5078,5.4492,6.0781,6.0781,6.0781,6.0781,6.0781,6.0781,6.0781,6.0781,6.0781,6.0781,6.1089,6.2204,6.2974,6.3666,6.4743,6.559,6.5897,6.6628,6.7475,6.8321,6.8898,6.986,7.0629,7.0898,7.0898,7.0898,7.0898,7.0898,7.0898,7.0898,7.0898,7.0898,7.0937,7.1245,7.1822,7.264,7.3688,7.4639,7.5255,7.5976,7.6784,7.7169,7.7553,7.8054,7.8438,7.8438,7.8092,7.7746,7.6976,7.613,7.5524,7.4409,7.3524,7.3129,7.2129,7.1591,7.136,7.0898,7.0667,6.9436,6.8282,6.7359,6.6474,6.6013,6.5897,6.5897,6.5897,6.5897,6.5897,6.5897,6.5897,6.5897,6.5897,6.5897,6.5897,6.5897,6.5897,6.5897,6.5897,6.5897,6.5897,6.5897,6.5897,6.5974,6.632,6.7013,6.7398,6.7821,6.8821,6.8744,6.8244,6.7744,6.7051,6.5705,6.4551,6.3935,6.3089,6.1935,6.1166,6.0819,6.0435,6.005,5.9781,5.9419,5.9064,5.8711,5.9062,5.918,5.8515,5.789,5.7305,5.6758,5.6211,5.5664,5.5117,6.0781,6.0781,6.0781,6.0781,6.0781,6.0781,6.0781,6.0781,6.0819,6.0935,6.1512,6.2704,6.3512,6.4089,6.5128,6.5897,6.5974,6.6744,6.7552,6.8436,6.9271,7.0117,7.0629,7.0898,7.0898,7.0898,7.0898,7.0898,7.0898,7.0898,7.0898,7.0898,7.0937,7.1657,7.2426,7.3255,7.4072,7.4985,7.5784,7.6322,7.7053,7.763,7.813,7.8823,7.9208,7.9323,7.8823,7.8246,7.7562,7.6985,7.6101,7.5024,7.4447,7.3793,7.2745,7.2206,7.1437,7.0975,7.0667,7.009,6.8859,6.7782,6.6782,6.6205,6.5974,6.5897,6.5897,6.5897,6.5897,6.5897,6.5897,6.5897,6.5897,6.5897,6.5897,6.5897,6.5897,6.5897,6.5897,6.5897,6.5897,6.5897,6.5897,6.6051,6.6205,6.7013,6.7782,6.8282,6.8629,6.8398,6.8282,6.7936,6.709,6.5743,6.482,6.4282,6.3358,6.2281,6.1666,6.1127,6.0704,6.0396,6.0204,6.008,5.9972,5.9883,5.9961,5.9805,5.9258,5.8515,5.7773,5.7226,5.6719,5.6172,5.5664,6.0781,6.0781,6.0781,6.0781,6.0781,6.0896,6.0896,6.0819,6.0858,6.132,6.2127,6.2974,6.382,6.4589,6.5513,6.5936,6.6244,6.6898,6.7782,6.859,6.9578,7.0244,7.0706,7.0898,7.0898,7.0898,7.0898,7.0898,7.0898,7.0898,7.0898,7.0937,7.1091,7.2003,7.2927,7.3707,7.4486,7.5447,7.5938,7.6476,7.7169,7.7977,7.8707,7.9477,8.0131,8.0246,7.9785,7.9023,7.8216,7.7438,7.6553,7.5639,7.5024,7.4716,7.3668,7.2514,7.1398,7.1168,7.0821,7.0167,6.936,6.8282,6.759,6.6821,6.6167,6.5897,6.5897,6.5897,6.5897,6.5897,6.5897,6.5897,6.5897,6.5897,6.5897,6.5897,6.5897,6.5897,6.5897,6.5897,6.5897,6.5897,6.5897,6.5974,6.6244,6.7282,6.8129,6.8898,6.9013,6.8129,6.809,6.8129,6.7167,6.5782,6.5051,6.4628,6.4051,6.3089,6.2243,6.1627,6.1204,6.0781,6.0589,6.059,6.0973,6.1055,6.0859,6.0547,6.0078,5.9297,5.832,5.75,5.6914,5.664,5.6289,6.0781,6.0781,6.0781,6.0781,6.0896,6.1458,6.1381,6.0896,6.1411,6.195,6.218,6.3628,6.4359,6.4666,6.5513,6.6167,6.6859,6.7628,6.8513,6.9321,7.0014,7.0552,7.0821,7.0898,7.0898,7.0937,7.0937,7.1014,7.0937,7.0937,7.0937,7.0937,7.1437,7.2454,7.3273,7.4053,7.5014,7.5707,7.5976,7.6515,7.7246,7.8092,7.8938,7.9785,8.0669,8.0746,8.0516,7.9754,7.8946,7.8169,7.7352,7.6476,7.5707,7.5014,7.3976,7.2437,7.186,7.1629,7.1014,7.0667,6.9898,6.8744,6.809,6.7205,6.6436,6.5897,6.5897,6.5897,6.5897,6.5897,6.5897,6.5897,6.5897,6.5897,6.5897,6.5897,6.5897,6.5897,6.5897,6.5897,6.5897,6.5897,6.5897,6.5897,6.6282,6.7475,6.8436,6.9167,6.936,6.8475,6.8013,6.8129,6.7167,6.5782,6.5436,6.5051,6.4551,6.3974,6.3012,6.2166,6.1704,6.1281,6.1012,6.1003,6.1265,6.1452,6.1562,6.1172,6.0703,5.9765,5.8789,5.789,5.7148,5.6836,5.6601,6.0781,6.0781,6.0781,6.0781,6.0935,6.1728,6.1766,6.1512,6.2219,6.2757,6.318,6.4141,6.4782,6.5205,6.5705,6.632,6.709,6.7936,6.8783,6.9629,7.0552,7.0783,7.0898,7.0898,7.0898,7.0975,7.1245,7.1514,7.1321,7.136,7.136,7.0975,7.1811,7.2657,7.3465,7.4245,7.5101,7.5668,7.6092,7.6515,7.7246,7.8054,7.8938,7.9746,8.0631,8.1016,8.0977,8.0254,7.9561,7.8861,7.8015,7.7121,7.6245,7.5399,7.4284,7.2899,7.2283,7.1706,7.1091,7.0898,6.9898,6.8936,6.8359,6.7436,6.6551,6.5897,6.5897,6.5897,6.5897,6.5897,6.5897,6.5897,6.5897,6.5897,6.5897,6.5897,6.5897,6.5897,6.5897,6.5897,6.5897,6.5897,6.5897,6.5897,6.6244,6.7244,6.8167,6.8975,6.9206,6.8821,6.8398,6.8282,6.7128,6.582,6.559,6.5397,6.5013,6.4397,6.3474,6.2704,6.2204,6.1559,6.1065,6.1158,6.1487,6.164,6.1719,6.164,6.1172,6.0156,5.9101,5.8203,5.7344,5.6758,5.6601,6.0781,6.0781,6.0781,6.0858,6.105,6.1843,6.2267,6.2373,6.3218,6.3872,6.4449,6.4705,6.5166,6.5667,6.5897,6.6513,6.7321,6.8129,6.9013,6.9783,7.0552,7.0898,7.0898,7.0898,7.0898,7.1168,7.1437,7.1552,7.1898,7.1745,7.136,7.1052,7.1975,7.2899,7.3783,7.4591,7.5332,7.5822,7.6053,7.6361,7.713,7.7977,7.8861,7.9631,8.0439,8.1054,8.09,8.0446,7.9869,7.9254,7.8515,7.7506,7.6544,7.5784,7.4591,7.3668,7.2937,7.2091,7.1398,7.1052,7.009,6.9167,6.8398,6.759,6.6744,6.6013,6.5897,6.5897,6.5897,6.5897,6.5897,6.5897,6.5897,6.5897,6.5897,6.5897,6.5897,6.5897,6.5897,6.5897,6.5897,6.5897,6.5897,6.5897,6.6205,6.709,6.7936,6.8783,6.9167,6.9052,6.8783,6.8475,6.7321,6.6205,6.582,6.5628,6.5397,6.4782,6.3858,6.3166,6.2627,6.1835,6.1018,6.1244,6.1562,6.164,6.168,6.164,6.125,6.0156,5.918,5.8398,5.7617,5.6914,5.6601,6.0781,6.0781,6.0781,6.1166,6.1882,6.2675,6.3407,6.4075,6.4897,6.4987,6.4795,6.5282,6.5628,6.5859,6.5897,6.659,6.7898,6.8282,6.9321,7.0129,7.086,7.0898,7.0898,7.0898,7.0898,7.0937,7.1129,7.1437,7.1475,7.1437,7.1591,7.1937,7.2668,7.3476,7.4312,7.513,7.5745,7.5976,7.6053,7.6092,7.6515,7.7669,7.8707,7.9323,8.0015,8.0977,8.0977,8.0939,8.0331,7.9715,7.8823,7.7669,7.6361,7.5899,7.5245,7.4437,7.3553,7.2668,7.186,7.1206,7.0321,6.9552,6.8783,6.7859,6.7051,6.632,6.5936,6.5936,6.5897,6.5897,6.5897,6.5897,6.5897,6.5897,6.5897,6.5897,6.5897,6.5897,6.5897,6.5897,6.5897,6.5897,6.5897,6.6051,6.6359,6.7013,6.7859,6.8667,6.9321,6.9475,6.9129,6.8706,6.7667,6.6744,6.6282,6.5859,6.5628,6.5128,6.432,6.3666,6.3012,6.2039,6.1138,6.1358,6.1562,6.164,6.1719,6.168,6.1133,6.0156,5.9336,5.8633,5.7851,5.7109,5.6797,6.0781,6.0858,6.1204,6.1627,6.2267,6.3368,6.4176,6.4691,6.5513,6.5628,6.5257,6.5667,6.5897,6.5897,6.5897,6.6821,6.8167,6.8359,6.9436,7.0437,7.0898,7.0898,7.0898,7.0898,7.0898,7.0937,7.136,7.1552,7.136,7.1552,7.1937,7.2322,7.3091,7.3966,7.4735,7.5515,7.5976,7.5976,7.5976,7.6015,7.6169,7.7476,7.84,7.8977,7.9939,8.0862,8.1093,8.1093,8.0862,8.0092,7.9199,7.766,7.6515,7.5976,7.5515,7.4745,7.3899,7.3129,7.2283,7.1398,7.0591,6.9821,6.9398,6.859,6.7936,6.7244,6.6551,6.6474,6.5974,6.5897,6.5897,6.5897,6.5897,6.5897,6.5897,6.5897,6.5897,6.5897,6.5897,6.5897,6.5897,6.5897,6.5897,6.5897,6.6282,6.7013,6.7859,6.8744,6.936,6.9975,6.959,6.9052,6.8129,6.7282,6.6744,6.6244,6.582,6.5282,6.4666,6.3743,6.2882,6.1968,6.1341,6.1492,6.1601,6.168,6.1719,6.1719,6.125,6.039,5.9648,5.8867,5.8086,5.7383,5.6992,6.0781,6.0935,6.1704,6.2166,6.2474,6.3921,6.4653,6.4922,6.5551,6.5897,6.582,6.5859,6.5897,6.5897,6.5974,6.7128,6.7975,6.8321,6.9436,7.0514,7.086,7.0898,7.0898,7.0898,7.0898,7.1091,7.1437,7.1668,7.1706,7.1898,7.2129,7.2476,7.3206,7.4091,7.4889,7.5476,7.5976,7.5976,7.5976,7.5976,7.6669,7.7553,7.8207,7.9054,8.0054,8.0977,8.1093,8.1093,8.1093,8.0431,7.9392,7.7737,7.6583,7.5976,7.5668,7.5014,7.4014,7.3245,7.2437,7.1514,7.0744,7.009,6.986,6.9398,6.8706,6.8129,6.7436,6.6974,6.6474,6.609,6.609,6.5936,6.5936,6.5897,6.5897,6.5897,6.5897,6.5897,6.5936,6.5936,6.5936,6.5936,6.5974,6.5974,6.6474,6.7167,6.7936,6.8783,6.9513,7.009,7.0244,6.9667,6.8898,6.809,6.7205,6.6705,6.6205,6.5551,6.4897,6.3782,6.2829,6.2253,6.1754,6.1511,6.164,6.168,6.1719,6.1719,6.1172,6.0703,6.0117,5.9414,5.8515,5.7812,5.7187,6.0781,6.0896,6.1743,6.2474,6.3166,6.4191,6.4999,6.559,6.5782,6.5897,6.5897,6.5897,6.5897,6.5897,6.5897,6.6821,6.8205,6.8475,6.9475,7.0706,7.086,7.0898,7.0898,7.0898,7.0898,7.1052,7.1168,7.1168,7.1668,7.2052,7.2591,7.3283,7.4014,7.4822,7.5592,7.5976,7.5976,7.5976,7.5976,7.5976,7.6476,7.7323,7.8246,7.9169,8.0169,8.0785,8.1093,8.1093,8.1093,8.0554,7.943,7.7737,7.6621,7.5976,7.5784,7.5322,7.4322,7.3553,7.2745,7.1629,7.0783,7.0552,7.0244,6.9821,6.9283,6.8859,6.8359,6.8129,6.7628,6.6974,6.6782,6.6205,6.6051,6.5936,6.5897,6.5897,6.5897,6.5974,6.6051,6.609,6.6167,6.6205,6.6244,6.6474,6.6974,6.7744,6.8629,6.9398,6.9821,7.0321,7.0821,7.0244,6.9552,6.8475,6.7398,6.709,6.6628,6.5936,6.5153,6.407,6.3284,6.2814,6.2356,6.1807,6.164,6.168,6.1719,6.1719,6.1601,6.1211,6.0664,5.9961,5.9101,5.8398,5.7851]},{"header":{"parameterUnit":"m.s-1","parameterCategory":1,"la1":31.0,"la2":29.5877,"lo1":-88.7671,"lo2":-86.6584,"dy":0.0162,"dx":0.0185,"nx":115,"ny":88,"refTime":"2024-03-27T12:00:00:Z","depth":0,"parameterNumber":3,"parameterNumberName":"V-component_of_WINDS"},"data":[0.0,0.0,0.0,0.0,0.0,0.0,0.0,0.0,0.0,0.0,0.0,0.0,0.0,0.0,0.0,0.0,0.0,0.0,0.0,0.0,0.0,0.0,0.0,0.0,0.0,0.0,0.0,0.0,0.0,0.0,0.0,0.0,0.0,0.0,0.0,0.0,0.0,0.0,0.0,0.0,0.0,0.0,0.0,0.0,0.0,0.0,0.0,0.0,0.0,0.0,0.0,0.0,0.0,0.0,0.0,0.0,0.0,0.0,0.0,0.0,0.0,0.0,0.0,0.0,0.0,0.0,0.0,0.0,0.0,0.0,0.0,0.0,0.0,0.0,0.0,0.0,0.0,0.0,0.0,0.0,0.0,0.0,0.0,0.0,0.0,0.0,0.0,0.0,0.0,0.0,0.0,0.0,0.0,0.0,0.0,0.0,0.0,0.0,0.0,0.0,0.0,0.0,0.0,0.0,0.0,0.0,0.0,0.0,0.0,0.0,0.0,0.0,0.0,0.0,0.0,0.0,0.0,0.0,0.0,0.0,0.0,0.0,0.0,0.0,0.0,0.0,0.0,0.0,0.0,0.0,0.0,0.0,0.0,0.0,0.0,0.0,0.0,0.0,0.0,0.0,0.0,0.0,0.0,0.0,0.0,0.0,0.0,0.0,0.0,0.0,0.0,0.0,0.0,0.0,0.0,0.0,0.0,0.0,0.0,0.0,0.0,0.0,0.0,0.0,0.0,0.0,0.0,0.0,0.0,0.0,0.0,0.0,0.0,0.0,0.0,0.0,0.0,0.0,0.0,0.0,0.0,0.0,0.0,0.0,0.0,0.0,0.0,0.0,0.0,0.0,0.0,0.0,0.0,0.0,0.0,0.0,0.0,0.0,0.0,0.0,0.0,0.0,0.0,0.0,0.0,0.0,0.0,0.0,0.0,0.0,0.0,0.0,0.0,0.0,0.0,0.0,0.0,0.0,0.0,0.0,0.0,0.0,0.0,0.0,0.0,0.0,0.0,0.0,0.0,0.0,0.0,0.0,0.0,0.0,0.0,0.0,0.0,0.0,0.0,0.0,0.0,0.0,0.0,0.0,0.0,0.0,0.0,0.0,0.0,0.0,0.0,0.0,0.0,0.0,0.0,0.0,0.0,0.0,0.0,0.0,0.0,0.0,0.0,0.0,0.0,0.0,0.0,0.0,0.0,0.0,0.0,0.0,0.0,0.0,0.0,0.0,0.0,0.0,0.0,0.0,0.0,0.0,0.0,0.0,0.0,0.0,0.0,0.0,0.0,0.0,0.0,0.0,0.0,0.0,0.0,0.0,0.0,0.0,0.0,0.0,0.0,0.0,0.0,0.0,0.0,0.0,0.0,0.0,0.0,0.0,0.0,0.0,0.0,0.0,0.0,0.0,0.0,0.0,0.0,0.0,0.0,0.0,0.0,0.0,0.0,0.0,0.0,0.0,0.0,0.0,0.0,0.0,0.0,0.0,0.0,0.0,0.0,0.0,0.0,0.0,0.0,0.0,0.0,0.0,0.0,0.0,0.0,0.0,0.0,0.0,0.0,0.0,0.0,0.0,0.0,0.0,0.0,0.0,0.0,0.0,0.0,0.0,0.0,0.0,0.0,0.0,0.0,0.0,0.0,0.0,0.0,0.0,0.0,0.0,0.0,0.0,0.0,0.0,0.0,0.0,0.0,0.0,0.0,0.0,0.0,0.0,0.0,0.0,0.0,0.0,0.0,0.0,0.0,0.0,0.0,0.0,0.0,0.0,0.0,0.0,0.0,0.0,0.0,0.0,0.0,0.0,0.0,0.0,0.0,0.0,0.0,0.0,0.0,0.0,0.0,0.0,0.0,0.0,0.0,0.0,0.0,0.0,0.0,0.0,0.0,0.0,0.0,0.0,0.0,0.0,0.0,0.0,0.0,0.0,0.0,0.0,0.0,0.0,0.0,0.0,0.0,0.0,0.0,0.0,0.0,0.0,0.0,0.0,0.0,0.0,0.0,0.0,0.0,0.0,0.0,0.0,0.0,0.0,0.0,0.0,0.0,0.0,0.0,0.0,0.0,0.0,0.0,0.0,0.0,0.0,0.0,0.0,0.0,0.0,0.0,0.0,0.0,0.0,0.0,0.0,0.0,0.0,0.0,0.0,0.0,0.0,0.0,0.0,0.0,0.0,0.0,0.0,0.0,0.0,0.0,0.0,0.0,0.0,0.0,0.0,0.0,0.0,0.0,0.0,0.0,0.0,0.0,0.0,0.0,0.0,0.0,0.0,0.0,0.0,0.0,0.0,0.0,0.0,0.0,0.0,0.0,0.0,0.0,0.0,0.0,0.0,0.0,0.0,0.0,0.0,0.0,0.0,0.0,0.0,0.0,0.0,0.0,0.0,0.0,0.0,0.0,0.0,0.0,0.0,0.0,0.0,0.0,0.0,0.0,0.0,0.0,0.0,0.0,0.0,0.0,0.0,0.0,0.0,0.0,0.0,0.0,0.0,0.0,0.0,0.0,0.0,0.0,0.0,0.0,0.0,0.0,0.0,0.0,0.0,0.0,0.0,0.0,0.0,0.0,0.0,0.0,0.0,0.0,0.0,0.0,0.0,0.0,0.0,0.0,0.0,0.0,0.0,0.0,0.0,0.0,0.0,0.0,0.0,0.0,0.0,0.0,0.0,0.0,0.0,0.0,0.0,0.0,0.0,0.0,0.0,0.0,0.0,0.0,0.0,0.0,0.0,0.0,0.0,0.0,0.0,0.0,0.0,0.0,0.0,0.0,0.0,0.0,0.0,0.0,0.0,0.0,0.0,0.0,0.0,0.0,0.0,0.0,0.0,0.0,0.0,0.0,0.0,0.0,0.0,0.0,0.0,0.0,0.0,0.0,0.0,0.0,0.0,0.0,0.0,0.0,0.0,0.0,0.0,0.0,0.0,0.0,0.0,0.0,0.0,0.0,0.0,0.0,0.0,0.0,0.0,0.0,0.0,0.0,0.0,0.0,0.0,0.0,0.0,0.0,0.0,0.0,0.0,0.0,0.0,0.0,0.0,0.0,0.0,0.0,0.0,0.0,0.0,0.0,0.0,0.0,0.0,0.0,0.0,0.0,0.0,0.0,0.0,0.0,0.0,0.0,0.0,0.0,0.0,0.0,0.0,0.0,0.0,0.0,0.0,0.0,0.0,0.0,0.0,0.0,0.0,0.0,0.0,0.0,0.0,0.0,0.0,0.0,0.0,0.0,0.0,0.0,0.0,0.0,0.0,0.0,0.0,0.0,0.0,0.0,0.0,0.0,0.0,0.0,0.0,0.0,0.0,0.0,0.0,0.0,0.0,0.0,0.0,0.0,0.0,0.0,0.0,0.0,0.0,0.0,0.0,0.0,0.0,0.0,0.0,0.0,0.0,0.0,0.0,0.0,0.0,0.0,0.0,0.0,0.0,0.0,0.0,0.0,0.0,0.0,0.0,0.0,0.0,0.0,0.0,0.0,0.0,0.0,0.0,0.0,0.0,0.0,0.0,0.0,0.0,0.0,0.0,0.0,0.0,0.0,0.0,0.0,0.0,0.0,0.0,0.0,0.0,0.0,0.0,0.0,0.0,0.0,0.0,0.0,0.0,0.0,0.0,0.0,0.0,0.0,0.0,0.0,0.0,0.0,0.0,0.0,0.0,0.0,0.0,0.0,0.0,0.0,0.0,0.0,0.0,0.0,0.0,0.0,0.0,0.0,0.0,0.0,0.0,0.0,0.0,0.0,0.0,0.0,0.0,0.0,0.0,0.0,0.0,0.0,0.0,0.0,0.0,0.0,0.0,0.0,0.0,0.0,0.0,0.0,0.0,0.0,0.0,0.0,0.0,0.0,0.0,0.0,0.0,0.0,0.0,0.0,0.0,0.0,0.0,0.0,0.0,0.0,0.0,0.0,0.0,0.0,0.0,0.0,0.0,0.0,0.0,0.0,0.0,0.0,0.0,0.0,0.0,0.0,0.0,0.0,0.0,0.0,0.0,0.0,0.0,0.0,0.0,0.0,0.0,0.0,0.0,0.0,0.0,0.0,0.0,0.0,0.0,0.0,0.0,0.0,0.0,0.0,0.0,0.0,0.0,0.0,0.0,0.0,0.0,0.0,0.0,0.0,0.0,0.0,0.0,0.0,0.0,0.0,0.0,0.0,0.0,0.0,0.0,0.0,0.0,0.0,0.0,0.0,0.0,0.0,0.0,0.0,0.0,0.0,0.0,0.0,0.0,0.0,0.0,0.0,0.0,0.0,0.0,0.0,0.0,0.0,0.0,-1.1854,0.0,0.0,0.0,0.0,0.0,0.0,0.0,0.0,0.0,0.0,0.0,0.0,0.0,0.0,0.0,0.0,0.0,0.0,0.0,0.0,0.0,0.0,0.0,0.0,0.0,0.0,0.0,0.0,0.0,0.0,0.0,0.0,0.0,0.0,0.0,0.0,0.0,0.0,0.0,0.0,0.0,0.0,0.0,0.0,0.0,0.0,0.0,0.0,0.0,0.0,0.0,0.0,0.0,0.0,0.0,0.0,0.0,0.0,0.0,0.0,0.0,0.0,0.0,0.0,0.0,0.0,0.0,0.0,0.0,0.0,0.0,0.0,0.0,0.0,0.0,0.0,0.0,0.0,0.0,0.0,0.0,0.0,0.0,0.0,0.0,0.0,0.0,0.0,0.0,0.0,0.0,0.0,0.0,0.0,0.0,0.0,0.0,0.0,0.0,0.0,0.0,0.0,0.0,0.0,0.0,0.0,0.0,0.0,0.0,0.0,-1.3815,-1.3112,-1.2338,-1.1501,-1.0767,0.0,0.0,0.0,0.0,0.0,0.0,0.0,0.0,0.0,0.0,0.0,0.0,0.0,0.0,0.0,0.0,0.0,0.0,0.0,0.0,0.0,0.0,0.0,0.0,0.0,0.0,0.0,0.0,0.0,0.0,0.0,0.0,0.0,0.0,0.0,0.0,0.0,0.0,0.0,0.0,0.0,0.0,0.0,0.0,0.0,0.0,0.0,0.0,0.0,0.0,0.0,0.0,0.0,0.0,0.0,0.0,0.0,0.0,0.0,0.0,0.0,0.0,0.0,0.0,0.0,0.0,0.0,0.0,0.0,0.0,0.0,0.0,0.0,0.0,0.0,0.0,0.0,0.0,0.0,0.0,0.0,0.0,0.0,0.0,0.0,0.0,0.0,0.0,0.0,0.0,0.0,0.0,0.0,0.0,0.0,0.0,0.0,0.0,0.0,0.0,0.0,0.0,0.0,0.0,0.0,0.0,0.0,0.0,0.0,0.0,0.0,0.0,-1.1966,-1.1051,-0.9948,0.0,0.0,0.0,0.0,0.0,0.0,0.0,0.0,0.0,0.0,0.0,0.0,0.0,0.0,0.0,0.0,0.0,0.0,0.0,0.0,0.0,0.0,0.0,0.0,0.0,0.0,0.0,0.0,0.0,0.0,0.0,0.0,0.0,0.0,0.0,0.0,0.0,0.0,0.0,0.0,0.0,0.0,0.0,0.0,0.0,0.0,0.0,0.0,0.0,0.0,0.0,0.0,0.0,0.0,0.0,0.0,0.0,0.0,0.0,0.0,0.0,0.0,0.0,0.0,0.0,0.0,0.0,0.0,0.0,0.0,0.0,0.0,0.0,0.0,0.0,0.0,0.0,0.0,0.0,0.0,0.0,0.0,0.0,0.0,0.0,0.0,0.0,0.0,0.0,0.0,0.0,0.0,0.0,0.0,0.0,0.0,0.0,0.0,0.0,0.0,0.0,0.0,0.0,0.0,0.0,0.0,0.0,0.0,0.0,0.0,-1.4082,-1.3913,-1.1798,0.0,-0.9806,0.0,0.0,0.0,0.0,0.0,0.0,0.0,0.0,0.0,0.0,0.0,0.0,0.0,0.0,0.0,0.0,0.0,0.0,0.0,0.0,0.0,0.0,0.0,0.0,0.0,0.0,0.0,0.0,0.0,0.0,0.0,0.0,0.0,0.0,0.0,0.0,0.0,0.0,0.0,0.0,0.0,0.0,0.0,0.0,0.0,0.0,0.0,0.0,0.0,0.0,0.0,0.0,0.0,0.0,0.0,0.0,0.0,0.0,0.0,0.0,0.0,0.0,0.0,0.0,0.0,0.0,0.0,0.0,0.0,0.0,0.0,0.0,0.0,0.0,0.0,0.0,0.0,0.0,0.0,0.0,0.0,0.0,0.0,0.0,0.0,0.0,0.0,0.0,0.0,0.0,0.0,0.0,0.0,0.0,0.0,0.0,0.0,0.0,0.0,0.0,0.0,0.0,0.0,0.0,0.0,0.0,0.0,0.0,0.0,0.0,-1.373,-1.3027,-1.074,-0.9517,0.0,0.0,0.0,0.0,0.0,0.0,0.0,0.0,0.0,0.0,0.0,0.0,0.0,0.0,0.0,0.0,0.0,0.0,0.0,0.0,0.0,0.0,0.0,0.0,0.0,0.0,0.0,0.0,0.0,0.0,0.0,0.0,0.0,0.0,0.0,0.0,0.0,0.0,0.0,0.0,0.0,0.0,0.0,0.0,0.0,0.0,0.0,0.0,0.0,0.0,0.0,0.0,0.0,0.0,0.0,0.0,0.0,0.0,0.0,0.0,0.0,0.0,0.0,0.0,0.0,0.0,0.0,0.0,0.0,0.0,0.0,0.0,0.0,0.0,0.0,0.0,0.0,0.0,0.0,0.0,0.0,0.0,0.0,0.0,0.0,0.0,0.0,0.0,0.0,0.0,0.0,0.0,0.0,0.0,0.0,0.0,0.0,0.0,0.0,0.0,0.0,0.0,0.0,0.0,0.0,0.0,0.0,0.0,0.0,0.0,-1.4082,-1.3379,-1.1895,-1.0054,-0.934,-0.9715,0.0,0.0,0.0,0.0,0.0,0.0,0.0,0.0,0.0,0.0,0.0,0.0,0.0,0.0,0.0,0.0,0.0,0.0,0.0,0.0,0.0,0.0,0.0,0.0,0.0,0.0,0.0,0.0,0.0,0.0,0.0,0.0,0.0,0.0,0.0,0.0,0.0,0.0,0.0,0.0,0.0,0.0,0.0,0.0,0.0,0.0,0.0,0.0,0.0,0.0,0.0,0.0,0.0,0.0,0.0,0.0,0.0,0.0,0.0,0.0,0.0,0.0,0.0,0.0,0.0,0.0,0.0,0.0,0.0,0.0,0.0,0.0,0.0,0.0,0.0,0.0,0.0,0.0,0.0,0.0,0.0,0.0,0.0,0.0,0.0,0.0,0.0,0.0,0.0,0.0,0.0,0.0,0.0,0.0,0.0,0.0,0.0,0.0,0.0,0.0,0.0,0.0,0.0,0.0,0.0,0.0,0.0,0.0,-1.4068,-1.4082,-1.3039,-1.0778,-1.0478,-1.0171,0.0,0.0,0.0,0.0,0.0,0.0,0.0,0.0,0.0,0.0,0.0,0.0,0.0,0.0,0.0,0.0,0.0,0.0,0.0,0.0,0.0,0.0,0.0,0.0,0.0,0.0,0.0,0.0,0.0,0.0,0.0,0.0,0.0,0.0,0.0,0.0,0.0,0.0,0.0,0.0,0.0,0.0,0.0,0.0,0.0,0.0,0.0,0.0,0.0,0.0,0.0,0.0,0.0,0.0,0.0,0.0,0.0,0.0,0.0,0.0,0.0,0.0,0.0,0.0,0.0,0.0,0.0,0.0,0.0,0.0,0.0,0.0,0.0,0.0,0.0,0.0,0.0,0.0,0.0,0.0,0.0,0.0,0.0,0.0,0.0,0.0,0.0,0.0,0.0,0.0,0.0,0.0,0.0,0.0,0.0,0.0,0.0,0.0,0.0,0.0,0.0,0.0,0.0,0.0,0.0,0.0,0.0,0.0,0.0,-1.3788,-1.329,-1.2589,-1.1712,-1.0816,-1.0502,0.0,0.0,0.0,0.0,0.0,0.0,0.0,0.0,0.0,0.0,0.0,0.0,0.0,0.0,0.0,0.0,0.0,0.0,0.0,0.0,0.0,0.0,0.0,0.0,0.0,0.0,0.0,0.0,0.0,0.0,0.0,0.0,0.0,0.0,0.0,0.0,0.0,0.0,0.0,0.0,0.0,0.0,0.0,0.0,0.0,0.0,0.0,0.0,0.0,0.0,0.0,0.0,0.0,0.0,0.0,0.0,0.0,0.0,0.0,0.0,0.0,0.0,0.0,0.0,0.0,0.0,0.0,0.0,0.0,0.0,0.0,0.0,0.0,0.0,0.0,0.0,0.0,0.0,0.0,0.0,0.0,0.0,0.0,0.0,0.0,0.0,0.0,0.0,0.0,0.0,0.0,0.0,0.0,0.0,0.0,0.0,0.0,0.0,0.0,0.0,0.0,0.0,0.0,0.0,0.0,0.0,0.0,0.0,0.0,-1.3824,0.0,-1.2279,-1.1922,-1.0519,-1.0088,0.0,0.0,0.0,0.0,0.0,0.0,0.0,0.0,0.0,0.0,0.0,0.0,0.0,0.0,0.0,0.0,0.0,0.0,0.0,0.0,0.0,0.0,0.0,0.0,0.0,0.0,0.0,0.0,0.0,0.0,0.0,0.0,0.0,0.0,0.0,0.0,0.0,0.0,0.0,0.0,0.0,0.0,0.0,0.0,0.0,0.0,0.0,0.0,0.0,0.0,0.0,0.0,0.0,0.0,0.0,0.0,0.0,0.0,0.0,0.0,0.0,0.0,0.0,0.0,0.0,0.0,0.0,0.0,0.0,0.0,0.0,0.0,0.0,0.0,0.0,0.0,0.0,0.0,0.0,0.0,0.0,0.0,0.0,0.0,0.0,0.0,0.0,0.0,0.0,0.0,0.0,0.0,0.0,0.0,0.0,0.0,0.0,0.0,0.0,0.0,0.0,0.0,0.0,0.0,0.0,0.0,0.0,0.0,-1.3546,-1.4369,-1.3173,-1.2015,-1.1117,-0.9579,-0.9108,0.0,0.0,0.0,0.0,0.0,0.0,0.0,0.0,0.0,0.0,0.0,0.0,0.0,0.0,0.0,0.0,0.0,0.0,0.0,0.0,0.0,0.0,0.0,0.0,0.0,0.0,0.0,0.0,0.0,0.0,0.0,0.0,0.0,0.0,0.0,0.0,0.0,0.0,0.0,0.0,0.0,0.0,0.0,0.0,0.0,0.0,0.0,0.0,0.0,0.0,0.0,0.0,0.0,0.0,0.0,0.0,0.0,0.0,0.0,0.0,0.0,0.0,0.0,0.0,0.0,0.0,0.0,0.0,0.0,0.0,0.0,0.0,0.0,0.0,0.0,0.0,0.0,0.0,0.0,0.0,0.0,0.0,0.0,0.0,0.0,0.0,0.0,0.0,0.0,0.0,0.0,0.0,0.0,0.0,0.0,0.0,0.0,0.0,0.0,0.0,0.0,0.0,0.0,0.0,0.0,0.0,0.0,0.0,0.0,-1.3161,-1.1271,-1.0625,-1.097,-0.9517,-0.9469,0.0,0.0,0.0,0.0,0.0,0.0,0.0,0.0,0.0,0.0,0.0,0.0,0.0,0.0,0.0,0.0,0.0,0.0,0.0,0.0,0.0,0.0,0.0,0.0,0.0,0.0,0.0,0.0,0.0,0.0,0.0,0.0,0.0,0.0,0.0,0.0,0.0,0.0,0.0,0.0,0.0,0.0,0.0,0.0,0.0,0.0,0.0,0.0,0.0,0.0,0.0,0.0,0.0,0.0,0.0,0.0,0.0,0.0,0.0,0.0,0.0,0.0,0.0,0.0,0.0,0.0,0.0,0.0,0.0,0.0,0.0,0.0,0.0,0.0,0.0,0.0,0.0,0.0,0.0,0.0,0.0,0.0,0.0,0.0,0.0,0.0,0.0,0.0,0.0,0.0,0.0,0.0,0.0,0.0,0.0,0.0,0.0,0.0,0.0,0.0,0.0,0.0,0.0,0.0,0.0,0.0,0.0,0.0,0.0,-1.2248,-1.0462,-0.9828,-1.0669,-0.91,-0.92,-1.0961,0.0,0.0,0.0,0.0,0.0,0.0,0.0,0.0,0.0,0.0,0.0,0.0,0.0,0.0,0.0,0.0,0.0,0.0,0.0,0.0,0.0,0.0,0.0,0.0,0.0,0.0,0.0,0.0,0.0,0.0,0.0,0.0,0.0,0.0,0.0,0.0,0.0,0.0,0.0,0.0,0.0,0.0,0.0,0.0,0.0,0.0,0.0,0.0,0.0,0.0,0.0,0.0,0.0,0.0,0.0,0.0,0.0,0.0,0.0,0.0,0.0,0.0,0.0,0.0,0.0,0.0,0.0,0.0,0.0,0.0,0.0,0.0,0.0,0.0,0.0,0.0,0.0,0.0,0.0,0.0,0.0,0.0,0.0,0.0,0.0,0.0,0.0,0.0,0.0,0.0,0.0,0.0,0.0,0.0,0.0,0.0,0.0,0.0,0.0,0.0,0.0,0.0,0.0,0.0,0.0,0.0,0.0,0.0,-1.1883,-1.0536,-0.9772,-0.9846,-0.8461,-0.8329,0.0,0.0,0.0,0.0,0.0,0.0,0.0,0.0,0.0,0.0,0.0,0.0,0.0,0.0,0.0,0.0,0.0,0.0,0.0,0.0,0.0,0.0,0.0,0.0,0.0,0.0,0.0,0.0,0.0,0.0,0.0,0.0,0.0,0.0,0.0,0.0,0.0,0.0,0.0,0.0,0.0,0.0,0.0,0.0,0.0,0.0,0.0,0.0,0.0,0.0,0.0,0.0,0.0,0.0,0.0,0.0,0.0,0.0,0.0,0.0,0.0,0.0,0.0,0.0,0.0,0.0,0.0,0.0,0.0,0.0,0.0,0.0,0.0,0.0,0.0,0.0,0.0,0.0,0.0,0.0,0.0,0.0,0.0,0.0,0.0,0.0,0.0,0.0,0.0,0.0,0.0,0.0,0.0,0.0,0.0,0.0,0.0,0.0,0.0,0.0,0.0,0.0,0.0,0.0,0.0,0.0,0.0,0.0,0.0,-1.1977,-1.0297,-0.9291,-0.9061,-0.8452,-0.8459,0.0,0.0,0.0,0.0,0.0,0.0,0.0,0.0,0.0,0.0,0.0,0.0,0.0,0.0,0.0,0.0,0.0,0.0,0.0,0.0,0.0,0.0,0.0,0.0,0.0,0.0,0.0,0.0,0.0,0.0,0.0,0.0,0.0,0.0,0.0,0.0,0.0,0.0,0.0,0.0,0.0,0.0,0.0,0.0,0.0,0.0,0.0,0.0,0.0,0.0,0.0,0.0,0.0,0.0,0.0,0.0,0.0,0.0,0.0,0.0,0.0,0.0,0.0,0.0,0.0,0.0,0.0,0.0,0.0,0.0,0.0,0.0,0.0,0.0,0.0,0.0,0.0,0.0,0.0,0.0,0.0,0.0,0.0,0.0,0.0,0.0,0.0,0.0,0.0,0.0,0.0,0.0,0.0,0.0,0.0,0.0,0.0,0.0,0.0,0.0,0.0,0.0,0.0,0.0,0.0,0.0,0.0,0.0,-1.1802,-1.2705,-1.0584,-0.9354,-0.9184,-0.8648,-0.8643,0.0,0.0,0.0,0.0,0.0,0.0,0.0,0.0,0.0,0.0,0.0,0.0,0.0,0.0,0.0,0.0,0.0,0.0,0.0,0.0,0.0,0.0,0.0,0.0,0.0,0.0,0.0,0.0,0.0,0.0,0.0,0.0,0.0,0.0,0.0,0.0,0.0,0.0,0.0,0.0,0.0,0.0,0.0,0.0,0.0,0.0,0.0,0.0,0.0,0.0,0.0,0.0,0.0,0.0,0.0,0.0,0.0,0.0,0.0,0.0,0.0,0.0,0.0,0.0,0.0,0.0,0.0,0.0,0.0,0.0,0.0,0.0,0.0,0.0,0.0,0.0,0.0,0.0,0.0,0.0,0.0,0.0,0.0,0.0,0.0,0.0,0.0,0.0,0.0,0.0,0.0,0.0,0.0,0.0,0.0,0.0,0.0,0.0,0.0,0.0,0.0,0.0,0.0,0.0,0.0,0.0,0.0,0.0,-1.2221,-1.3221,-1.0979,-0.9842,-0.9822,-0.9022,-0.8756,0.0,0.0,0.0,0.0,0.0,0.0,0.0,0.0,0.0,0.0,0.0,0.0,0.0,0.0,0.0,0.0,0.0,0.0,0.0,0.0,0.0,0.0,0.0,0.0,0.0,0.0,0.0,0.0,0.0,0.0,0.0,0.0,0.0,0.0,0.0,0.0,0.0,0.0,0.0,0.0,0.0,0.0,0.0,0.0,0.0,0.0,0.0,0.0,0.0,0.0,0.0,0.0,0.0,0.0,0.0,0.0,0.0,0.0,0.0,0.0,0.0,0.0,0.0,0.0,0.0,0.0,0.0,0.0,0.0,0.0,0.0,0.0,0.0,0.0,0.0,0.0,0.0,0.0,0.0,0.0,0.0,0.0,0.0,0.0,0.0,0.0,0.0,0.0,0.0,0.0,0.0,0.0,0.0,0.0,0.0,0.0,0.0,0.0,0.0,0.0,0.0,0.0,0.0,0.0,0.0,0.0,0.0,0.0,-1.2089,-1.1765,-1.062,-0.9998,-0.9998,-0.9476,-0.8975,0.0,0.0,0.0,0.0,0.0,0.0,0.0,0.0,0.0,0.0,0.0,0.0,0.0,0.0,0.0,0.0,0.0,0.0,0.0,0.0,0.0,0.0,0.0,0.0,0.0,0.0,0.0,0.0,0.0,0.0,0.0,0.0,0.0,0.0,0.0,0.0,0.0,0.0,0.0,0.0,0.0,0.0,0.0,0.0,0.0,0.0,0.0,0.0,-0.8373,0.0,0.0,0.0,0.0,0.0,0.0,0.0,0.0,0.0,0.0,0.0,0.0,0.0,0.0,0.0,0.0,0.0,0.0,0.0,0.0,0.0,0.0,0.0,0.0,0.0,0.0,0.0,0.0,0.0,0.0,0.0,0.0,0.0,0.0,0.0,0.0,0.0,0.0,0.0,0.0,0.0,0.0,0.0,0.0,0.0,0.0,0.0,0.0,0.0,0.0,0.0,0.0,0.0,0.0,0.0,0.0,0.0,0.0,0.0,-1.2484,-1.2597,-1.0852,-1.0086,-1.0141,-0.972,-0.9137,0.0,0.0,0.0,0.0,0.0,0.0,0.0,0.0,0.0,0.0,0.0,0.0,0.0,0.0,0.0,0.0,0.0,0.0,0.0,0.0,0.0,0.0,0.0,0.0,0.0,0.0,0.0,0.0,0.0,0.0,0.0,0.0,0.0,0.0,0.0,0.0,0.0,0.0,0.0,0.0,0.0,0.0,0.0,0.0,0.0,0.0,0.0,0.0,0.0,0.0,0.0,0.0,0.0,0.0,0.0,0.0,0.0,0.0,0.0,0.0,0.0,0.0,0.0,0.0,0.0,0.0,0.0,0.0,0.0,0.0,0.0,0.0,0.0,0.0,0.0,0.0,0.0,0.0,0.0,0.0,0.0,0.0,0.0,0.0,0.0,0.0,0.0,0.0,0.0,0.0,0.0,0.0,0.0,0.0,0.0,0.0,0.0,0.0,0.0,0.0,0.0,0.0,0.0,0.0,0.0,0.0,0.0,-1.378,-1.2865,-1.3407,-1.1202,-1.0127,-1.027,-0.9849,-0.9252,-0.8506,0.0,0.0,0.0,0.0,0.0,0.0,0.0,0.0,0.0,0.0,0.0,0.0,0.0,0.0,0.0,0.0,0.0,0.0,0.0,0.0,0.0,0.0,0.0,0.0,0.0,0.0,0.0,0.0,0.0,0.0,0.0,0.0,0.0,0.0,0.0,0.0,0.0,0.0,-1.4563,-1.3639,0.0,0.0,0.0,0.0,0.0,0.0,0.0,0.0,-0.8123,0.0,0.0,0.0,0.0,0.0,0.0,0.0,0.0,0.0,0.0,0.0,0.0,0.0,0.0,0.0,0.0,0.0,0.0,0.0,0.0,0.0,0.0,0.0,0.0,0.0,0.0,0.0,0.0,0.0,0.0,0.0,0.0,0.0,0.0,0.0,0.0,0.0,0.0,0.0,0.0,0.0,0.0,0.0,0.0,0.0,0.0,0.0,0.0,0.0,0.0,0.0,0.0,0.0,0.0,0.0,0.0,-1.3485,-1.3545,-1.2655,-1.0718,-1.028,-1.012,-1.0263,-0.9849,-0.9252,-0.8513,0.0,0.0,0.0,0.0,0.0,0.0,0.0,0.0,0.0,0.0,0.0,0.0,0.0,0.0,0.0,0.0,0.0,0.0,0.0,0.0,0.0,0.0,0.0,0.0,0.0,0.0,0.0,0.0,0.0,0.0,0.0,0.0,0.0,0.0,0.0,0.0,0.0,0.0,0.0,-1.3546,-1.2373,0.0,0.0,0.0,0.0,0.0,0.0,0.0,0.0,-0.6837,0.0,0.0,0.0,0.0,0.0,0.0,0.0,0.0,0.0,0.0,0.0,0.0,0.0,0.0,0.0,0.0,0.0,0.0,0.0,0.0,0.0,0.0,0.0,0.0,0.0,0.0,0.0,0.0,0.0,0.0,0.0,0.0,0.0,0.0,0.0,0.0,0.0,0.0,0.0,0.0,0.0,0.0,0.0,0.0,0.0,0.0,0.0,0.0,0.0,0.0,0.0,0.0,0.0,0.0,0.0,-1.2874,-1.3101,-1.2533,-1.1119,-1.0299,-1.0005,-1.0141,-0.9646,-0.9096,0.0,0.0,0.0,0.0,0.0,0.0,0.0,0.0,0.0,0.0,0.0,0.0,0.0,0.0,0.0,0.0,0.0,0.0,0.0,0.0,0.0,0.0,0.0,0.0,0.0,0.0,0.0,0.0,0.0,0.0,0.0,0.0,0.0,0.0,0.0,0.0,0.0,0.0,0.0,0.0,-1.4291,-1.3448,-1.2733,0.0,0.0,0.0,0.0,0.0,0.0,-0.8263,-0.7102,0.0,0.0,0.0,0.0,0.0,0.0,0.0,0.0,0.0,0.0,0.0,0.0,0.0,0.0,0.0,0.0,0.0,0.0,0.0,0.0,0.0,0.0,0.0,0.0,0.0,0.0,0.0,0.0,0.0,0.0,0.0,0.0,0.0,0.0,0.0,0.0,0.0,0.0,0.0,0.0,0.0,0.0,0.0,0.0,0.0,0.0,0.0,0.0,0.0,0.0,0.0,0.0,0.0,0.0,0.0,-1.2845,-1.282,-1.2393,-1.1687,-1.0458,-0.991,-1.0073,-0.9483,-0.894,0.0,0.0,0.0,0.0,0.0,0.0,0.0,0.0,0.0,0.0,0.0,0.0,0.0,0.0,0.0,0.0,0.0,0.0,0.0,0.0,0.0,0.0,0.0,0.0,0.0,0.0,0.0,0.0,0.0,0.0,0.0,0.0,0.0,0.0,0.0,0.0,0.0,0.0,0.0,0.0,0.0,-1.4138,-1.2974,-1.2755,0.0,0.0,0.0,0.0,-0.9341,-0.8288,0.0,0.0,0.0,0.0,0.0,0.0,0.0,0.0,0.0,0.0,0.0,0.0,0.0,0.0,0.0,0.0,0.0,0.0,0.0,0.0,0.0,0.0,0.0,0.0,0.0,0.0,0.0,0.0,0.0,0.0,0.0,0.0,0.0,0.0,0.0,0.0,0.0,0.0,0.0,0.0,0.0,0.0,0.0,0.0,0.0,0.0,0.0,0.0,0.0,0.0,0.0,0.0,0.0,0.0,0.0,0.0,-1.2872,-1.2825,-1.2074,-1.0538,-1.0088,-0.9958,-1.0236,-0.9537,-0.894,0.0,0.0,0.0,0.0,0.0,0.0,0.0,0.0,0.0,0.0,0.0,0.0,0.0,0.0,0.0,0.0,0.0,0.0,0.0,0.0,0.0,0.0,0.0,0.0,0.0,0.0,0.0,0.0,0.0,0.0,0.0,0.0,0.0,0.0,0.0,0.0,0.0,0.0,0.0,0.0,0.0,-1.3063,-1.2128,-1.2031,-1.15,0.0,0.0,-0.9705,-0.973,-0.8624,0.0,0.0,0.0,0.0,0.0,0.0,0.0,0.0,0.0,0.0,0.0,0.0,0.0,0.0,0.0,0.0,0.0,0.0,0.0,0.0,0.0,0.0,0.0,0.0,0.0,0.0,0.0,0.0,0.0,0.0,0.0,0.0,0.0,0.0,0.0,0.0,0.0,0.0,0.0,0.0,0.0,0.0,0.0,0.0,0.0,0.0,0.0,0.0,0.0,0.0,0.0,0.0,0.0,0.0,0.0,-1.3085,-1.2801,-1.2178,-1.1356,-1.0239,-1.0107,-1.0107,-1.0148,-0.9503,-0.894,0.0,0.0,0.0,0.0,0.0,0.0,0.0,0.0,0.0,0.0,0.0,0.0,0.0,0.0,0.0,0.0,0.0,0.0,0.0,0.0,0.0,0.0,0.0,0.0,0.0,0.0,0.0,0.0,0.0,0.0,0.0,0.0,0.0,0.0,0.0,0.0,0.0,0.0,0.0,0.0,0.0,0.0,-1.2557,-1.1869,0.0,0.0,0.0,-0.9101,-0.9101,0.0,0.0,0.0,0.0,0.0,0.0,0.0,0.0,0.0,0.0,0.0,0.0,0.0,0.0,0.0,0.0,0.0,0.0,0.0,0.0,0.0,0.0,0.0,0.0,0.0,0.0,0.0,0.0,0.0,0.0,0.0,0.0,0.0,0.0,0.0,0.0,0.0,0.0,0.0,0.0,0.0,0.0,0.0,0.0,0.0,0.0,0.0,0.0,0.0,0.0,0.0,0.0,0.0,0.0,0.0,0.0,0.0,-1.1859,-1.17,-1.1137,-1.0086,-1.0349,-1.0355,-1.01,-0.9523,0.0,0.0,0.0,0.0,0.0,0.0,0.0,0.0,0.0,0.0,0.0,0.0,0.0,0.0,0.0,0.0,0.0,0.0,0.0,0.0,0.0,0.0,0.0,0.0,0.0,0.0,0.0,-0.9579,0.0,0.0,0.0,0.0,0.0,0.0,0.0,0.0,0.0,0.0,0.0,0.0,0.0,0.0,-1.3228,-1.2423,-1.142,-1.0216,0.0,0.0,-0.8648,-0.8648,-0.837,-0.8085,0.0,0.0,0.0,0.0,0.0,0.0,0.0,0.0,0.0,0.0,0.0,0.0,0.0,0.0,0.0,0.0,0.0,0.0,0.0,0.0,0.0,0.0,0.0,0.0,0.0,0.0,0.0,0.0,0.0,0.0,0.0,0.0,0.0,0.0,0.0,0.0,0.0,0.0,0.0,0.0,0.0,0.0,0.0,0.0,0.0,0.0,0.0,0.0,0.0,0.0,0.0,0.0,0.0,0.0,0.0,-0.9373,-1.1492,-1.1819,-1.0362,-1.0538,-1.0538,-1.0256,-0.968,-0.9089,0.0,0.0,0.0,0.0,0.0,0.0,0.0,0.0,0.0,0.0,0.0,0.0,0.0,0.0,0.0,0.0,0.0,0.0,0.0,0.0,0.0,0.0,0.0,0.0,0.0,0.0,0.0,0.0,0.0,0.0,0.0,0.0,0.0,0.0,0.0,0.0,0.0,0.0,0.0,0.0,0.0,-1.2011,-1.1133,-1.0168,-0.9463,0.0,0.0,-0.911,-0.911,-0.8737,-0.8357,-0.8072,0.0,0.0,0.0,0.0,0.0,0.0,0.0,0.0,0.0,0.0,0.0,0.0,0.0,0.0,0.0,0.0,0.0,0.0,0.0,0.0,0.0,0.0,0.0,0.0,0.0,0.0,0.0,0.0,0.0,0.0,0.0,0.0,0.0,0.0,0.0,0.0,0.0,0.0,0.0,0.0,0.0,0.0,0.0,0.0,0.0,0.0,0.0,0.0,0.0,0.0,0.0,0.0,0.0,-1.0501,-0.9271,-1.0257,-1.062,-1.039,-1.0589,-1.0596,-1.0283,-0.9788,-0.9239,0.0,0.0,0.0,0.0,0.0,0.0,0.0,0.0,0.0,0.0,0.0,0.0,0.0,0.0,0.0,0.0,0.0,0.0,0.0,0.0,0.0,0.0,0.0,0.0,0.0,0.0,0.0,0.0,-1.0911,-1.145,-1.1677,0.0,0.0,0.0,0.0,0.0,0.0,0.0,0.0,0.0,0.0,-1.1095,-1.126,-1.0301,0.0,0.0,-0.9313,-0.9157,-0.9157,-0.8777,-0.8411,-0.8214,-0.7733,0.0,0.0,0.0,0.0,0.0,0.0,0.0,0.0,0.0,0.0,0.0,0.0,0.0,0.0,0.0,0.0,0.0,0.0,0.0,0.0,0.0,0.0,0.0,0.0,0.0,0.0,0.0,0.0,0.0,0.0,0.0,0.0,0.0,0.0,0.0,0.0,0.0,0.0,0.0,0.0,0.0,0.0,0.0,0.0,0.0,0.0,0.0,0.0,0.0,0.0,0.0,0.0,-1.0198,-0.9381,-0.9412,-0.97,-1.0276,-1.0527,-1.0555,-1.0344,-0.9951,-0.9456,0.0,0.0,0.0,0.0,0.0,0.0,0.0,0.0,0.0,0.0,0.0,0.0,0.0,0.0,0.0,0.0,0.0,0.0,0.0,0.0,0.0,0.0,0.0,0.0,0.0,0.0,0.0,0.0,-1.1385,-1.1971,-1.1877,0.0,0.0,0.0,0.0,0.0,0.0,0.0,0.0,0.0,0.0,-1.0712,-1.0799,-1.0126,-0.9659,-0.9612,-0.9388,-0.9205,-0.9164,-0.8777,-0.8438,-0.8296,0.0,0.0,0.0,0.0,0.0,0.0,0.0,0.0,0.0,0.0,0.0,0.0,0.0,0.0,0.0,0.0,0.0,0.0,0.0,0.0,0.0,0.0,0.0,0.0,0.0,0.0,0.0,0.0,0.0,0.0,-0.6023,0.0,0.0,0.0,0.0,0.0,0.0,0.0,0.0,0.0,0.0,0.0,0.0,0.0,0.0,0.0,0.0,0.0,0.0,0.0,0.0,0.0,0.0,-1.0628,-0.9389,-0.9405,-0.97,-1.027,-1.0419,-1.0493,-1.048,-1.0195,-0.9754,-0.9137,0.0,0.0,0.0,0.0,0.0,0.0,0.0,0.0,0.0,0.0,0.0,0.0,0.0,0.0,0.0,0.0,0.0,0.0,0.0,0.0,0.0,0.0,0.0,0.0,0.0,0.0,-1.1695,-1.2045,-1.2098,0.0,0.0,0.0,0.0,0.0,0.0,0.0,0.0,0.0,0.0,-1.0469,-1.065,-0.9585,-0.9625,-0.9754,-0.9625,-0.9476,-0.932,-0.9178,-0.8777,-0.8431,0.0,0.0,0.0,0.0,0.0,0.0,0.0,0.0,0.0,0.0,0.0,0.0,0.0,0.0,0.0,0.0,0.0,0.0,0.0,0.0,0.0,0.0,0.0,0.0,0.0,0.0,0.0,-0.6756,-0.6551,0.0,0.0,0.0,0.0,0.0,0.0,0.0,0.0,0.0,0.0,0.0,-0.7843,-0.7894,0.0,0.0,0.0,0.0,0.0,0.0,0.0,0.0,0.0,0.0,0.0,0.0,-1.0637,-0.9499,-0.9405,-0.97,-1.027,-1.0419,-1.0493,-1.0487,-1.0209,-0.9585,-0.8594,0.0,0.0,0.0,0.0,0.0,0.0,0.0,0.0,0.0,0.0,0.0,0.0,0.0,0.0,0.0,0.0,0.0,0.0,0.0,0.0,0.0,0.0,0.0,0.0,0.0,-0.9892,0.0,0.0,0.0,0.0,0.0,0.0,0.0,0.0,0.0,0.0,0.0,-1.1277,-1.0029,-0.9716,-0.9539,-0.9463,-0.9469,-0.9544,0.0,0.0,0.0,0.0,0.0,0.0,0.0,0.0,0.0,0.0,0.0,0.0,0.0,0.0,-0.7231,-0.7027,-0.6993,-0.6932,-0.6736,0.0,0.0,0.0,0.0,0.0,0.0,0.0,0.0,0.0,0.0,0.0,0.0,0.0,0.0,0.0,0.0,-0.6824,0.0,0.0,0.0,0.0,0.0,0.0,0.0,0.0,-0.6938,-0.7393,-0.8139,-0.8181,-0.8056,0.0,-0.8926,-1.0093,0.0,0.0,0.0,0.0,0.0,0.0,0.0,0.0,-1.1038,-0.9473,-0.9497,-0.9774,-1.0256,-1.0371,-1.0466,-1.0561,-1.0229,-0.9564,-0.8533,-0.8172,-0.7602,0.0,0.0,0.0,0.0,0.0,0.0,0.0,0.0,0.0,0.0,0.0,0.0,0.0,0.0,0.0,0.0,0.0,0.0,0.0,0.0,0.0,0.0,0.0,-0.9777,0.0,0.0,0.0,0.0,0.0,0.0,0.0,0.0,0.0,-1.1025,-1.0959,-1.0538,-0.9705,-0.919,-0.9083,-0.9279,0.0,0.0,0.0,0.0,0.0,0.0,0.0,-0.8737,-0.8587,-0.8316,-0.8065,-0.7916,-0.7814,-0.7753,-0.7753,0.0,0.0,-0.7353,-0.7299,-0.7238,-0.7048,-0.7014,-0.7041,-0.7054,-0.7088,-0.7048,0.0,0.0,0.0,0.0,0.0,0.0,0.0,0.0,-0.7327,-0.7624,0.0,-0.7176,0.0,0.0,0.0,0.0,0.0,-0.7115,0.0,0.0,-0.7511,-0.7925,-0.8487,-0.8508,-0.8367,-0.8144,-0.9634,-1.1318,-1.2857,-1.104,0.0,0.0,0.0,0.0,0.0,0.0,-1.1993,-0.9512,-0.968,-0.9926,-1.0256,-1.0283,-1.0419,-1.0677,-1.0276,-0.97,-0.8974,-0.8625,-0.8209,-0.7499,-0.6959,0.0,0.0,0.0,0.0,0.0,0.0,0.0,0.0,0.0,0.0,0.0,0.0,0.0,0.0,0.0,0.0,0.0,0.0,0.0,0.0,-0.9399,0.0,0.0,0.0,0.0,0.0,0.0,0.0,0.0,0.0,0.0,-0.9308,-0.9665,-0.9713,-0.889,0.0,0.0,0.0,0.0,-0.9551,-0.9415,-0.951,-0.9496,-0.9205,-0.9042,-0.8893,-0.8743,0.0,0.0,-0.8079,-0.8052,-0.8052,-0.8052,-0.8052,-0.7963,-0.7685,-0.7617,-0.759,-0.7577,-0.7556,-0.7503,-0.7422,-0.7463,-0.7563,-0.8187,0.0,0.0,0.0,0.0,-0.7563,-0.757,-0.7349,-0.7904,-0.8041,-0.7875,-0.7597,0.0,0.0,0.0,0.0,0.0,0.0,-0.7687,-0.7466,-0.7955,-0.8488,-0.8744,-0.8786,-0.8696,-0.8472,-0.9872,-1.2525,-1.5971,-1.3269,-1.221,-1.2792,0.0,0.0,0.0,0.0,-1.2384,-0.9587,-0.9694,-0.9919,-1.027,-1.0276,-1.0317,-1.0405,-1.0175,-0.9747,-0.9117,-0.8879,-0.8522,-0.7808,-0.7269,0.0,0.0,0.0,0.0,0.0,0.0,0.0,0.0,0.0,0.0,0.0,0.0,0.0,0.0,0.0,0.0,0.0,0.0,0.0,-0.7778,-0.8664,-0.9213,0.0,0.0,0.0,0.0,0.0,0.0,0.0,0.0,0.0,-0.87,-0.9768,-1.0126,0.0,0.0,-0.9232,-0.9449,-0.9462,-0.9469,-0.953,-0.949,0.0,-0.9327,-0.9191,-0.9042,-0.8899,-0.8621,-0.8404,-0.8364,-0.8357,-0.8357,-0.835,-0.8357,-0.8323,-0.8235,-0.7963,-0.7733,-0.7624,-0.7597,-0.7638,-0.763,-0.7672,-0.7645,-0.892,-0.8433,-0.8092,-0.7991,-0.7991,-0.8096,-0.8079,-0.8004,-0.8323,-0.8376,-0.8378,-0.8117,-0.7862,-0.7631,-0.757,0.0,0.0,0.0,-0.8037,-0.8014,-0.8375,-0.8696,-0.9082,-0.9145,-0.8948,-0.8722,-1.0154,-1.323,-1.7529,-1.4894,-1.3933,-1.4746,0.0,0.0,-1.3878,-1.3193,-1.1813,-0.9581,-0.9774,-1.0044,-1.027,-1.0337,-1.031,-1.0188,-1.0093,-0.9795,-0.9266,-0.9126,-0.8828,-0.8329,-0.7767,-0.7309,0.0,0.0,0.0,0.0,0.0,0.0,0.0,0.0,0.0,0.0,0.0,-0.7446,-0.5734,0.0,0.0,0.0,-0.6894,-0.7,-0.7428,-0.8011,0.0,0.0,0.0,0.0,0.0,0.0,0.0,-0.9372,-0.8656,-0.8227,-0.8621,-0.9544,-0.9794,-0.9119,-0.915,-0.9306,-0.9496,0.0,-0.9503,-0.9591,-0.9578,-0.9537,-0.9483,-0.9395,-0.9245,-0.8981,-0.8737,-0.8554,-0.8492,-0.8479,-0.8479,-0.8479,-0.8479,-0.8479,-0.8479,-0.8208,-0.797,-0.7882,-0.7814,-0.7807,-0.7889,-0.7834,-0.7814,-0.9578,-0.9157,-0.8594,-0.835,-0.8323,-0.8323,-0.8404,-0.8533,-0.8659,-0.8758,-0.8836,-0.8488,-0.8228,-0.8065,-0.7929,0.0,-0.8099,-0.8255,-0.8367,-0.8527,-0.8562,-0.8818,-0.9412,-0.9428,-0.9258,-0.9013,-1.0576,-1.3374,-1.7116,-1.5779,-1.5873,-1.7235,-1.5233,-1.4582,-1.4935,-1.2511,-1.065,-0.9455,-1.0066,-1.0355,-1.027,-1.0419,-1.0351,-1.0059,-1.0032,-0.9829,-0.9401,-0.9353,-0.923,-0.8852,-0.8348,-0.7691,-0.721,0.0,0.0,0.0,0.0,0.0,0.0,0.0,0.0,0.0,0.0,0.0,0.0,0.0,0.0,0.0,-0.7344,0.0,-0.7658,-0.7753,0.0,0.0,0.0,-0.8653,-1.0445,-0.8945,-0.832,-0.9689,0.0,0.0,-0.8913,-0.9089,-0.9184,-0.9191,-0.9313,-0.9401,-0.9415,-0.9544,-0.9625,-0.9632,-0.9734,-0.9768,-0.9646,-0.9585,-0.9415,-0.9035,-0.8832,-0.8689,-0.8567,-0.8533,-0.8526,-0.854,-0.852,-0.8526,-0.852,-0.8411,-0.8303,-0.8275,-0.814,-0.8031,-0.8024,-0.8018,-0.8024,-0.9761,-0.9625,-0.9266,-0.8988,-0.8784,-0.8777,-0.8749,-0.8772,-0.9117,-0.9042,-0.8941,-0.8791,-0.8628,-0.8377,-0.8336,-0.8404,-0.856,-0.871,-0.8763,-0.8818,-0.885,-0.9178,-0.9687,-0.9722,-0.962,-0.9374,-1.0815,-1.2625,-1.4939,-1.5566,-1.66,-1.8048,-1.6513,-1.5791,-1.6185,-1.3474,-1.1432,-1.0083,-1.0201,-1.0348,-1.027,-1.0419,-1.0351,-1.0059,-0.9937,-0.972,-0.9395,-0.9353,-0.9272,-0.8891,-0.8296,-0.7892,-0.7516,-0.7204,0.0,0.0,0.0,0.0,0.0,0.0,0.0,0.0,0.0,-0.7301,-0.6222,0.0,-0.6915,0.0,-0.7629,-0.7984,-0.8248,-0.8967,0.0,0.0,-0.9107,-0.9338,-0.8899,-0.8466,-0.8425,-0.8899,-0.8845,-0.8899,-0.9083,-0.9334,-0.9503,-0.9503,-0.953,-0.9598,-0.97,-0.9747,-0.9768,-0.9768,-0.9795,-0.9808,-0.9761,-0.9578,-0.9361,-0.9137,-0.8981,-0.8872,-0.8832,-0.8825,-0.8825,-0.8832,-0.8832,-0.8832,-0.8818,-0.871,-0.8567,-0.8445,-0.8221,-0.8038,-0.8038,-0.8038,-0.7945,-0.9985,-0.9897,-0.9605,-0.9388,-0.9232,-0.9164,-0.9178,-0.9144,-0.934,-0.9408,-0.925,-0.9001,-0.8845,-0.8682,-0.8615,-0.8669,-0.8818,-0.8967,-0.911,-0.9138,-0.9052,-0.9359,-0.9849,-0.9794,-0.9683,-0.9648,-1.0303,-1.1173,-1.225,-1.4158,-1.5524,-1.631,-1.5513,-1.5221,-1.531,-1.378,-1.2081,-1.0321,-1.0362,-1.0307,-1.0276,-1.0358,-1.0222,-0.9869,-0.9774,-0.9557,-0.9198,-0.9335,-0.9297,-0.8848,-0.8316,-0.7892,-0.7815,-0.7475,-0.717,0.0,0.0,0.0,0.0,0.0,0.0,0.0,0.0,0.0,0.0,0.0,-0.7244,-0.7616,-0.7963,-0.8303,-0.8465,-0.9027,-0.9072,-0.8467,-0.9035,-0.9212,-0.8666,-0.8582,-0.8729,-0.8988,-0.9083,-0.9191,-0.934,-0.9503,-0.9639,-0.9693,-0.97,-0.9734,-0.9802,-0.9822,-0.9822,-0.9822,-0.9822,-0.9822,-0.9822,-0.9571,-0.9354,-0.9259,-0.9076,-0.894,-0.894,-0.894,-0.894,-0.894,-0.894,-0.894,-0.8933,-0.8811,-0.8676,-0.8581,-0.835,-0.8147,-0.7965,-0.7959,-0.7972,-1.0229,-1.008,-0.9788,-0.968,-0.968,-0.953,-0.9442,-0.9408,-0.9429,-0.9545,-0.975,-0.9236,-0.8994,-0.8988,-0.8852,-0.8866,-0.9001,-0.9144,-0.9286,-0.9415,-0.9446,-0.9513,-0.9765,-0.9761,-0.9788,-0.9847,-0.9666,-0.9926,-1.0492,-1.2887,-1.4013,-1.4116,-1.4013,-1.3924,-1.3839,-1.3395,-1.2286,-1.0386,-1.0431,-1.0446,-1.0283,-1.0276,-1.0066,-0.9632,-0.9591,-0.9388,-0.8988,-0.9154,-0.9169,-0.8859,-0.8282,-0.8026,-0.7931,-0.7787,-0.7489,0.0,-0.719,0.0,0.0,0.0,0.0,0.0,0.0,0.0,0.0,-0.7396,-0.7665,-0.8092,-0.8377,-0.8547,-0.8567,-0.8587,-0.8594,-0.8601,-0.8716,-0.8852,-0.8981,-0.899,-0.9111,-0.9367,-0.9401,-0.9462,-0.9578,-0.9618,-0.9686,-0.9788,-0.9836,-0.9856,-0.9849,-0.9836,-0.9822,-0.9822,-0.9822,-0.9822,-0.9795,-0.9591,-0.9408,-0.9361,-0.9157,-0.8967,-0.894,-0.894,-0.894,-0.894,-0.894,-0.894,-0.894,-0.8832,-0.8743,-0.871,-0.852,-0.8316,-0.8052,-0.7478,-0.7585,-1.0432,-1.0378,-1.0086,-1.0039,-1.0141,-0.9992,-0.966,-0.9453,-0.9686,-0.9673,-0.9676,-0.9374,-0.93,-0.9293,-0.9266,-0.9273,-0.9306,-0.9456,-0.9537,-0.9453,-0.9593,-0.9781,-0.9781,-0.9808,-0.9815,-0.9802,-0.9788,-1.1079,-1.3651,-1.4242,-1.5173,-1.6355,-1.5056,-1.443,-1.4321,0.0,0.0,0.0,-1.0651,-1.0548,-1.029,-1.0276,-1.0066,-0.9625,-0.949,0.0,-0.9117,-0.8769,-0.8434,-0.8452,-0.8117,0.0,0.0,0.0,0.0,0.0,0.0,0.0,0.0,0.0,0.0,0.0,-0.8126,-0.8028,-0.7522,-0.7862,-0.8235,-0.8554,-0.875,-0.8899,-0.9015,-0.9144,-0.9211,-0.9211,-0.9232,-0.9266,-0.93,-0.932,-0.9354,-0.9374,-0.9614,-0.9696,-0.9612,-0.9707,-0.9788,-0.9822,-0.9924,-0.9998,-0.9998,-0.9903,-0.9829,-0.9822,-0.9836,-0.9822,-0.9822,-0.9673,-0.951,-0.9395,-0.9239,-0.9076,-0.8974,-0.8947,-0.894,-0.894,-0.894,-0.894,-0.894,-0.8913,-0.8852,-0.8649,-0.8703,-0.8707,-0.8309,-0.6406,-0.5436,-1.0493,0.0,-1.0256,-1.0209,0.0,-1.0195,-1.0073,-0.9814,-0.993,-0.9849,-0.9707,-0.9557,-0.9496,-0.949,-0.9415,-0.9422,-0.9496,-0.9578,-0.9646,-0.96,-0.9741,-0.9808,-0.9937,-1.0012,-1.0025,-0.9861,-1.0025,-1.0841,-1.2172,-1.3054,-1.3509,-1.3398,-1.3407,-1.3075,-1.2164,-1.0929,-1.0369,-1.0649,-1.074,-1.0575,-1.0297,-1.0276,-1.0066,-0.9632,0.0,0.0,0.0,0.0,0.0,0.0,0.0,0.0,0.0,0.0,0.0,-0.7834,-0.7957,-0.8004,-0.7943,-0.8065,-0.8174,-0.8255,-0.8465,-0.8438,-0.8065,-0.8384,-0.8662,-0.8811,-0.9022,-0.9184,-0.9259,-0.9334,-0.9381,-0.9381,-0.9381,-0.9408,-0.9476,-0.9496,-0.9523,-0.9591,-0.9786,-0.9713,-0.9713,-0.9774,-0.9815,-0.9829,-0.9951,-1.0059,-1.0053,-1.0053,-1.0032,-0.9951,-0.9937,-0.991,-0.9829,-0.9707,-0.9591,-0.949,-0.9306,-0.9144,-0.9055,-0.9042,-0.9042,-0.9042,-0.9049,-0.9042,-0.9035,-0.8988,-0.892,-0.8639,-0.7695,-0.7414,-0.8024,-0.5139,-0.2381,-1.0534,-1.0521,-1.0378,-1.0337,-1.0358,-1.0331,-1.0317,-1.0304,0.0,0.0,0.0,-0.9707,-0.9646,-0.9639,-0.9544,-0.9564,-0.9686,-0.972,-0.9788,-0.9903,-0.9777,-0.9962,-1.01,-1.0349,-1.0243,-0.9923,-1.0122,-1.0307,-1.05,-1.1773,-1.1733,-1.0515,-1.1712,-1.1484,-0.9951,-1.0447,-1.0656,-1.0664,-1.0663,-1.0588,-1.0331,-1.0317,-1.0107,-0.9659,-0.9523,-0.932,-0.9028,-0.8982,-0.873,-0.8169,-0.8441,-0.8625,-0.852,-0.8499,-0.8431,-0.833,-0.8445,-0.8472,-0.8364,-0.8479,-0.8574,-0.8601,-0.8859,-0.8893,-0.8587,-0.8845,-0.9015,-0.9015,-0.9266,-0.9422,-0.9422,-0.9449,-0.9456,-0.9456,-0.9456,-0.9517,-0.9625,-0.9646,-0.9566,-0.9802,-0.9836,-0.9863,-0.9863,-0.9897,-0.9903,-0.9924,-1.0059,-1.0148,-1.0168,-1.0229,-1.0215,-1.0114,-1.0059,-0.9998,-0.9883,-0.9747,-0.9646,-0.9598,-0.9401,-0.9232,-0.9198,-0.9191,-0.9191,-0.9198,-0.9178,-0.915,-0.9137,-0.9035,-0.8954,-0.8863,-0.6533,-0.5372,-0.761,-0.4246,0.0,-1.0683,-1.0677,-1.0527,-1.0541,-1.0649,-1.0521,-1.0466,-1.0439,-1.0035,-0.9908,-1.0005,-0.9856,-0.9788,-0.9795,-0.9903,-0.9971,-0.9998,-1.0127,-1.0195,0.0,-0.9976,-0.9982,-1.0249,-1.0531,-1.0538,-1.0263,-1.0276,-1.1277,-1.2875,-1.2733,-1.2465,-1.2316,-1.2566,-1.1626,-0.9986,-1.0439,-1.0671,-1.0683,-1.0711,-1.0636,-1.0466,-1.046,-1.0249,-0.9815,-0.9768,-0.9618,-0.9334,-0.9171,-0.9083,-0.8818,-0.8702,-0.8682,-0.8562,-0.856,-0.8472,-0.8465,-0.8594,-0.8669,-0.8655,-0.8791,-0.8927,-0.9055,-0.9218,-0.9198,-0.892,-0.915,-0.932,-0.9327,-0.9476,-0.9578,-0.9585,-0.968,-0.9741,-0.9747,-0.9754,-0.9768,-0.9781,-0.9781,-0.9788,-0.9815,-0.9944,-1.0012,-1.0012,-1.0114,-1.0188,-1.0222,-1.029,-1.046,-1.0521,-1.0426,-1.029,-1.0236,-1.0134,-1.0053,-0.9992,-0.9883,-0.9747,-0.9625,-0.9571,-0.9476,-0.9367,-0.9354,-0.9347,-0.9347,-0.9252,-0.9178,-0.9164,-0.9035,-0.8974,-0.8759,-0.6584,-0.5571,-0.7744,-0.3786,0.0,-1.0724,-1.0731,-1.0649,-1.0663,-1.0731,-1.0649,-1.0616,-1.0595,-1.0385,-1.0195,-1.0059,-1.0059,-1.0025,-0.9958,-1.0107,-1.0175,-1.0181,-1.0249,-1.0276,-1.0283,-1.0095,-1.0263,-1.0405,-1.0616,-1.0658,-1.0521,-1.0521,-1.0991,-1.1803,-1.166,-1.1487,-1.1411,-1.1396,-1.0969,-1.0214,-1.0493,-1.0706,-1.0717,-1.0717,-1.0643,-1.05,-1.0493,-1.0358,-1.0073,-0.9917,-0.9761,-0.9625,-0.9395,-0.9158,-0.9158,-0.915,-0.9076,-0.9069,-0.9008,-0.8967,-0.8974,-0.9035,-0.9076,-0.9076,-0.9137,-0.9205,-0.9279,-0.9415,-0.9483,-0.9429,-0.9469,-0.9503,-0.951,-0.9639,-0.9727,-0.9727,-0.9781,-0.9822,-0.9822,-0.9822,-0.9822,-0.9822,-0.9822,-0.9822,-0.9836,-0.9958,-1.0053,-1.0053,-1.0181,-1.0276,-1.029,-1.0405,-1.0548,-1.0697,-1.0609,-1.0487,-1.0405,-1.027,-1.0148,-1.0059,-0.9917,-0.9802,-0.9734,-0.9659,-0.9591,-0.951,-0.9503,-0.9503,-0.9496,-0.9381,-0.9293,-0.9273,-0.9089,-0.8994,-0.8654,-0.6502,-0.5154,-0.3927,-0.1682,0.0,-1.0738,-1.0751,-1.0738,-1.0738,-1.0751,-1.0731,-1.0717,-1.0711,-1.0726,-1.0527,-1.0181,-1.0243,-1.0215,-1.012,-1.0263,-1.0331,-1.0331,-1.0365,-1.0378,-1.0392,-1.0357,-1.0411,-1.0555,-1.0663,-1.0717,-1.0717,-1.0717,-1.0656,-1.0424,-1.0541,-1.0487,-1.0392,-1.0378,-1.0432,-1.0411,-1.0541,-1.0733,-1.0711,-1.0717,-1.0663,-1.0548,-1.0541,-1.0473,-1.0324,-1.01,-0.9958,-0.991,-0.9546,-0.9412,-0.9523,-0.9586,-0.9552,-0.9545,-0.9401,-0.9381,-0.9381,-0.9381,-0.9381,-0.9381,-0.9415,-0.9449,-0.9483,-0.9618,-0.9774,-0.9897,-0.9822,-0.9761,-0.9774,-0.9869,-0.9917,-0.9883,-0.9876,-0.9863,-0.9829,-0.9856,-0.9883,-0.9876,-0.9903,-0.9924,-0.9937,-1.0059,-1.0161,-1.0175,-1.0283,-1.0385,-1.0412,-1.0473,-1.0595,-1.0697,-1.0717,-1.0663,-1.0561,-1.0419,-1.0276,-1.012,-0.9978,-0.9876,-0.9836,-0.9734,-0.968,-0.9659,-0.9659,-0.9652,-0.9639,-0.9496,-0.9388,-0.9354,-0.9144,-0.8994,-0.8772,-0.7182,-0.4592,-0.1233,0.0,0.0,-1.0738,-1.0751,-1.0751,-1.0751,-1.0751,-1.0731,-1.0717,-1.0717,-1.0704,-1.074,-1.0575,-1.0331,-1.0283,-1.0283,-1.0412,-1.0473,-1.0487,-1.0616,-1.067,-1.067,-1.069,-1.0697,-1.069,-1.0711,-1.0717,-1.0717,-1.0717,-1.0711,-1.0683,-1.069,-1.069,-1.0683,-1.0677,-1.0677,-1.0697,-1.0697,-1.0704,-1.0717,-1.0717,-1.0717,-1.0704,-1.0697,-1.0629,-1.048,-1.0446,-1.0371,-1.0229,-1.008,-0.9985,-0.9841,-0.9734,-0.971,-0.9703,-0.958,-0.9388,-0.9388,-0.9388,-0.9381,-0.9401,-0.951,-0.9652,-0.9774,-0.9917,-1.0066,-1.0215,-1.0222,-1.0215,-1.0215,-1.0096,-1.0029,-0.9921,-1.0025,-0.9971,-0.9863,-0.9951,-1.0025,-1.0039,-1.0154,-1.0236,-1.0236,-1.0331,-1.0446,-1.0432,-1.0548,-1.0649,-1.0629,-1.0649,-1.0683,-1.0711,-1.0717,-1.0717,-1.067,-1.0568,-1.0426,-1.0276,-1.0127,-0.9978,-0.9856,-0.9808,-0.9781,-0.9774,-0.9781,-0.9795,-0.9734,-0.9557,-0.9395,-0.9327,-0.9164,-0.8876,-0.8202,-0.7416,-0.6405,0.0,0.0,0.0,-1.0731,-1.0758,-1.0758,-1.0758,-1.0751,-1.0731,-1.0717,-1.0717,-1.0717,-1.0683,-1.0629,-1.0561,-1.0493,-1.0419,-1.0561,-1.0629,-1.0629,-1.069,-1.0717,-1.0717,-1.0717,-1.0717,-1.0717,-1.0717,-1.0717,-1.0717,-1.0717,-1.0717,-1.0717,-1.0717,-1.0717,-1.0717,-1.0717,-1.0717,-1.0717,-1.0717,-1.0717,-1.0724,-1.0812,-1.0853,-1.0846,-1.0765,-1.069,-1.0629,-1.0541,-1.0473,-1.0399,-1.0263,-1.0141,-0.9797,-0.9808,-0.9829,-0.9741,-0.9673,-0.9639,-0.9646,-0.9727,-0.9815,-0.991,-0.9971,-1.0032,-1.0093,-1.0148,-1.0249,-1.0392,-1.0405,-1.0439,-1.0507,-1.0385,-1.0215,-1.0086,-1.0134,-1.0127,-1.0012,-1.0093,-1.0188,-1.0188,-1.0243,-1.0276,-1.029,-1.0405,-1.0493,-1.0514,-1.0622,-1.0711,-1.0717,-1.0724,-1.0731,-1.0724,-1.0717,-1.0717,-1.0711,-1.0663,-1.0568,-1.0419,-1.0195,-1.0046,-0.9964,-0.9876,-0.9822,-0.9822,-0.9822,-0.9815,-0.9822,-0.9571,-0.9401,-0.9381,-0.8937,-0.8523,-0.7176,-0.4369,-0.269,-0.0336,0.0,0.0,-1.0731,-1.0751,-1.0758,-1.0758,-1.0751,-1.0731,-1.0717,-1.0717,-1.0717,-1.0717,-1.0717,-1.0717,-1.0663,-1.0582,-1.067,-1.0717,-1.0717,-1.0717,-1.0717,-1.0717,-1.0717,-1.0717,-1.0717,-1.0717,-1.0717,-1.0717,-1.0717,-1.0717,-1.0717,-1.0717,-1.0717,-1.0717,-1.0717,-1.0717,-1.0717,-1.0717,-1.0744,-1.0792,-1.0894,-1.0968,-1.0982,-1.09,-1.0839,-1.0833,-1.0697,-1.0616,-1.0609,-1.0439,-1.029,-1.0049,-1.0009,-0.9935,-0.9958,-0.9944,-0.9951,-0.9958,-1.0053,-1.0161,-1.0276,-1.0276,-1.0297,-1.0331,-1.0337,-1.0399,-1.0521,-1.0555,-1.0602,-1.0677,-1.0527,-1.0351,-1.0209,-1.027,-1.0263,-1.0148,-1.0249,-1.0337,-1.0337,-1.0365,-1.0412,-1.0412,-1.0514,-1.0555,-1.0568,-1.0656,-1.0731,-1.0778,-1.0792,-1.0806,-1.0833,-1.0853,-1.0853,-1.0833,-1.0812,-1.0697,-1.0521,-1.0344,-1.0175,-1.0039,-0.9951,-0.9883,-0.9836,-0.9822,-0.9822,-0.9795,-0.9544,-0.9395,-0.9361,-0.8944,-0.7282,-0.4136,0.0,0.0,0.0,0.0,0.0,-1.0731,-1.0751,-1.0758,-1.0758,-1.0751,-1.0731,-1.0717,-1.0717,-1.0717,-1.0717,-1.0717,-1.0717,-1.0717,-1.0704,-1.0717,-1.0717,-1.0717,-1.0717,-1.0717,-1.0717,-1.0717,-1.0717,-1.0717,-1.0717,-1.0717,-1.0717,-1.0717,-1.0717,-1.0717,-1.0717,-1.0717,-1.0717,-1.0717,-1.0724,-1.0731,-1.0738,-1.0799,-1.107,-1.0968,-1.1023,-1.1138,-1.1145,-1.1145,-1.1131,-1.0995,-1.0914,-1.0887,-1.0774,-1.061,-1.0603,-1.0465,-1.0263,-1.0249,-1.0249,-1.0243,-1.0249,-1.0263,-1.0276,-1.0297,-1.0304,-1.0351,-1.046,-1.048,-1.0548,-1.067,-1.0683,-1.0697,-1.0717,-1.069,-1.0602,-1.048,-1.0466,-1.0426,-1.0304,-1.0399,-1.0473,-1.0487,-1.0588,-1.0683,-1.0677,-1.0677,-1.0683,-1.0697,-1.0711,-1.0792,-1.0887,-1.0934,-1.0975,-1.107,-1.1111,-1.1111,-1.1077,-1.0995,-1.0839,-1.0568,-1.0432,-1.031,-1.0181,-1.008,-0.9992,-0.989,-0.9822,-0.9822,-0.9768,-0.9571,-0.9429,-0.9347,-0.7944,-0.5639,0.0,0.0,0.0,0.0,0.0,0.0,-1.0738,-1.0751,-1.0738,-1.0738,-1.0751,-1.0731,-1.0717,-1.0717,-1.0717,-1.0717,-1.0717,-1.0717,-1.0717,-1.0717,-1.0717,-1.0717,-1.0717,-1.0717,-1.0717,-1.0717,-1.0717,-1.0717,-1.0717,-1.0717,-1.0717,-1.0717,-1.0717,-1.0717,-1.0717,-1.0717,-1.0717,-1.0717,-1.0717,-1.0765,-1.0712,-1.0867,-1.0941,-1.1221,-1.1179,-1.126,-1.1307,-1.1402,-1.1457,-1.1443,-1.1212,-1.1043,-1.0955,-1.0705,-1.0697,-1.0767,-1.0575,-1.0507,-1.0551,-1.041,-1.0324,-1.0405,-1.0419,-1.046,-1.0541,-1.0561,-1.0582,-1.0629,-1.0636,-1.0656,-1.0711,-1.0717,-1.0717,-1.0717,-1.0717,-1.0683,-1.0663,-1.0636,-1.0582,-1.0466,-1.0541,-1.0629,-1.0643,-1.069,-1.0717,-1.0717,-1.0717,-1.0717,-1.0758,-1.0806,-1.0887,-1.0941,-1.1029,-1.1104,-1.1145,-1.1165,-1.1179,-1.1145,-1.1043,-1.0914,-1.0833,-1.0595,-1.0432,-1.0324,-1.0222,-1.008,-0.9971,-0.9869,-0.9849,-0.9808,-0.9618,-0.9462,-0.9258,-0.7669,0.0,0.0,0.0,0.0,0.0,0.0,0.0,-1.0731,-1.0738,-1.0724,-1.0731,-1.0738,-1.0731,-1.0717,-1.0717,-1.0717,-1.0717,-1.0717,-1.0717,-1.0717,-1.0717,-1.0717,-1.0717,-1.0717,-1.0717,-1.0717,-1.0717,-1.0717,-1.0744,-1.0785,-1.0792,-1.0819,-1.086,-1.086,-1.086,-1.0853,-1.0819,-1.0792,-1.0799,-1.0792,-1.0712,-1.0799,-1.0989,-1.1228,-1.1372,-1.1341,-1.1409,-1.147,-1.1565,-1.1619,-1.1592,-1.1416,-1.124,-1.1097,-1.0763,-1.0766,-1.0683,-1.0774,-1.0706,-1.0711,-1.0555,-1.0466,-1.0555,-1.0561,-1.0609,-1.0704,-1.0717,-1.0717,-1.0717,-1.0717,-1.0717,-1.0717,-1.0717,-1.0717,-1.0717,-1.0717,-1.0717,-1.0717,-1.0717,-1.0677,-1.0595,-1.0656,-1.0717,-1.0717,-1.0717,-1.0751,-1.0799,-1.086,-1.0867,-1.0873,-1.0962,-1.1036,-1.1077,-1.1179,-1.1246,-1.1301,-1.1307,-1.1307,-1.1301,-1.1206,-1.1138,-1.1043,-1.0867,-1.0595,-1.046,-1.0358,-1.0215,-1.0053,-0.9944,-0.9856,-0.9808,-0.9693,-0.953,-0.864,-0.7069,0.0,0.0,0.0,0.0,0.0,0.0,0.0,-1.0717,-1.0724,-1.0717,-1.0717,-1.0724,-1.0724,-1.0717,-1.0717,-1.0717,-1.0717,-1.0717,-1.0717,-1.0717,-1.0724,-1.0738,-1.0731,-1.0744,-1.0758,-1.0758,-1.0744,-1.0738,-1.0678,-1.067,-1.109,-1.1145,-1.0973,-1.1145,-1.1138,-1.1097,-1.0982,-1.0928,-1.0941,-1.0928,-1.0948,-1.069,-1.1111,-1.1386,-1.1509,-1.1409,-1.147,-1.1592,-1.1613,-1.1619,-1.1619,-1.1592,-1.1518,-1.1382,-1.0955,-1.0809,-1.0677,-1.0799,-1.0739,-1.0731,-1.0704,-1.0711,-1.0697,-1.0711,-1.0711,-1.0717,-1.0731,-1.0744,-1.0751,-1.0738,-1.0772,-1.0778,-1.0758,-1.0744,-1.0751,-1.0731,-1.0724,-1.0738,-1.0744,-1.0731,-1.0717,-1.0717,-1.0717,-1.0717,-1.0724,-1.0778,-1.0914,-1.1029,-1.1145,-1.1151,-1.1158,-1.1206,-1.1301,-1.1375,-1.143,-1.1525,-1.1538,-1.1586,-1.1565,-1.1423,-1.1287,-1.1226,-1.1138,-1.0839,-1.0588,-1.0493,-1.0371,-1.0168,-1.0025,-0.9917,-0.9842,-0.9652,-0.9379,-0.8067,-0.663,-0.4957,0.0,0.0,0.0,0.0,0.0,0.0,-1.0717,-1.0717,-1.0717,-1.0717,-1.0717,-1.0717,-1.0717,-1.0717,-1.0717,-1.0717,-1.0717,-1.0717,-1.0717,-1.0744,-1.0826,-1.088,-1.0887,-1.0968,-1.0975,-1.0894,-1.0739,-1.0677,-1.0789,-1.1234,-1.1399,-1.1158,-1.1158,-1.1111,-1.1036,-1.0975,-1.0948,-1.0948,-1.0955,-1.092,-1.1087,-1.1301,-1.1396,-1.1531,-1.1545,-1.1579,-1.1613,-1.1619,-1.1619,-1.1619,-1.1619,-1.1592,-1.1545,-1.1402,-1.1253,-1.1104,-1.1097,-1.1029,-1.0914,-1.088,-1.0833,-1.0731,-1.0717,-1.0717,-1.0738,-1.0819,-1.0873,-1.0894,-1.0962,-1.1016,-1.1009,-1.0928,-1.088,-1.0867,-1.0792,-1.0758,-1.0853,-1.088,-1.0839,-1.0731,-1.0717,-1.0724,-1.0731,-1.0812,-1.0894,-1.0948,-1.1077,-1.1151,-1.1185,-1.124,-1.1341,-1.1396,-1.1477,-1.1572,-1.1599,-1.1619,-1.1619,-1.1606,-1.1491,-1.1409,-1.1348,-1.1233,-1.0989,-1.0758,-1.0636,-1.0493,-1.029,-1.012,-1.0005,-0.9836,-0.9646,-0.8765,-0.7464,-0.5855,-0.4076,0.0,0.0,0.0,0.0,0.0,0.0,-1.0717,-1.0717,-1.0717,-1.0717,-1.0717,-1.0717,-1.0717,-1.0717,-1.0717,-1.0717,-1.0731,-1.0785,-1.0806,-1.0839,-1.0962,-1.1023,-1.1036,-1.1124,-1.1145,-1.1104,-1.0906,-1.0829,-1.0955,-1.1314,-1.1482,-1.1335,-1.1335,-1.1287,-1.1199,-1.1138,-1.1111,-1.1111,-1.1111,-1.1054,-1.1241,-1.145,-1.1531,-1.1606,-1.1613,-1.1619,-1.1619,-1.1619,-1.1619,-1.1619,-1.1619,-1.1619,-1.1613,-1.1525,-1.155,-1.1406,-1.1337,-1.1262,-1.1036,-1.1029,-1.0982,-1.0914,-1.0887,-1.0894,-1.0894,-1.0982,-1.1029,-1.0906,-1.1111,-1.1158,-1.1145,-1.107,-1.1029,-1.0873,-1.0955,-1.0921,-1.1009,-1.1029,-1.0982,-1.09,-1.0839,-1.0785,-1.0772,-1.0907,-1.1016,-1.1077,-1.1219,-1.1307,-1.1362,-1.1396,-1.147,-1.1491,-1.1558,-1.1619,-1.1619,-1.1619,-1.1619,-1.1606,-1.1558,-1.1504,-1.147,-1.1314,-1.1124,-1.0941,-1.0772,-1.0595,-1.0392,-1.0243,-1.0114,-0.9883,-0.968,-0.8219,-0.6803,-0.4721,0.0,0.0,0.0,0.0,0.0,0.0,0.0,-1.0717,-1.0717,-1.0717,-1.0717,-1.0717,-1.0717,-1.0717,-1.0717,-1.0717,-1.0731,-1.0772,-1.0873,-1.0941,-1.0989,-1.1111,-1.1179,-1.1185,-1.1219,-1.1294,-1.1328,-1.128,-1.128,-1.1261,-1.1511,-1.1558,-1.1579,-1.1586,-1.1579,-1.1497,-1.1396,-1.1389,-1.1355,-1.1341,-1.1389,-1.1295,-1.1552,-1.1606,-1.1613,-1.1619,-1.1619,-1.1619,-1.1619,-1.1633,-1.1633,-1.1626,-1.1626,-1.1647,-1.1613,-1.1545,-1.155,-1.1573,-1.1504,-1.1324,-1.1317,-1.1165,-1.1131,-1.1151,-1.1131,-1.1145,-1.1158,-1.1172,-1.104,-1.1206,-1.1185,-1.1226,-1.1206,-1.1179,-1.1172,-1.1138,-1.1145,-1.1165,-1.1179,-1.1172,-1.1158,-1.1016,-1.088,-1.0778,-1.0989,-1.1111,-1.1192,-1.1409,-1.1606,-1.1572,-1.1592,-1.1599,-1.1599,-1.1613,-1.1613,-1.1619,-1.1619,-1.1619,-1.1606,-1.1586,-1.1572,-1.1531,-1.1409,-1.1219,-1.1056,-1.0887,-1.069,-1.0466,-1.0297,-1.0175,-0.9944,-0.9366,-0.7784,-0.6129,-0.4396,0.0,0.0,0.0,0.0,0.0,0.0,0.0,-1.0717,-1.0717,-1.0717,-1.0717,-1.0717,-1.0717,-1.0717,-1.0717,-1.0717,-1.0778,-1.1015,-1.0928,-1.1016,-1.1118,-1.126,-1.1335,-1.1355,-1.1436,-1.1511,-1.1545,-1.1525,-1.1518,-1.1552,-1.1592,-1.1619,-1.1619,-1.1613,-1.1558,-1.1457,-1.143,-1.1402,-1.1396,-1.1409,-1.1457,-1.1552,-1.1592,-1.1613,-1.1619,-1.1619,-1.1619,-1.1626,-1.1626,-1.1674,-1.1762,-1.1681,-1.1681,-1.1748,-1.1674,-1.1606,-1.1565,-1.1531,-1.1585,-1.1489,-1.1328,-1.1287,-1.1206,-1.1179,-1.1172,-1.1192,-1.1274,-1.1328,-1.1201,-1.1409,-1.1497,-1.1497,-1.1389,-1.1348,-1.1314,-1.1386,-1.1219,-1.1307,-1.1335,-1.1335,-1.1301,-1.1124,-1.0948,-1.0934,-1.1043,-1.1165,-1.1192,-1.1443,-1.1586,-1.1619,-1.1619,-1.1619,-1.1619,-1.1619,-1.1619,-1.1619,-1.1619,-1.1619,-1.1619,-1.1606,-1.1613,-1.1572,-1.1463,-1.1321,-1.1158,-1.0975,-1.0778,-1.0521,-1.027,-1.0161,-1.0012,-0.8945,-0.7589,-0.6273,-0.4882,0.0,0.0,0.0,0.0,0.0,0.0,0.0,-1.0717,-1.0717,-1.0717,-1.0717,-1.0717,-1.0717,-1.0717,-1.0717,-1.0724,-1.0939,-1.1077,-1.1023,-1.1124,-1.1267,-1.1416,-1.1484,-1.1504,-1.1579,-1.1613,-1.1613,-1.1606,-1.1613,-1.1613,-1.1619,-1.1619,-1.1619,-1.1619,-1.1572,-1.1511,-1.1491,-1.1491,-1.1491,-1.1484,-1.1531,-1.1599,-1.1619,-1.1619,-1.1619,-1.1619,-1.164,-1.1701,-1.1708,-1.1789,-1.187,-1.1789,-1.1735,-1.1735,-1.166,-1.1619,-1.1613,-1.1613,-1.1579,-1.1646,-1.1484,-1.1443,-1.1355,-1.1355,-1.1362,-1.1369,-1.1443,-1.1484,-1.1497,-1.1579,-1.1606,-1.1599,-1.1531,-1.1491,-1.1477,-1.1396,-1.1409,-1.1463,-1.1484,-1.1484,-1.1463,-1.1274,-1.1111,-1.105,-1.1172,-1.1246,-1.1314,-1.1457,-1.1619,-1.1619,-1.1619,-1.1619,-1.1619,-1.1619,-1.1619,-1.1619,-1.1619,-1.1619,-1.1619,-1.1619,-1.1619,-1.1619,-1.1531,-1.1402,-1.1246,-1.1029,-1.0839,-1.0561,-1.0283,-1.0175,-0.9804,-0.8634,-0.7501,-0.6287,0.0,0.0,0.0,0.0,0.0,0.0,0.0,0.0,-1.0717,-1.0717,-1.0717,-1.0717,-1.0717,-1.0717,-1.0717,-1.0717,-1.0717,-1.0826,-1.1118,-1.1248,-1.1246,-1.1423,-1.1538,-1.1613,-1.1613,-1.1613,-1.1613,-1.1619,-1.1619,-1.1619,-1.1619,-1.1619,-1.1619,-1.1619,-1.1619,-1.1613,-1.1592,-1.1599,-1.1613,-1.1592,-1.1599,-1.1613,-1.1619,-1.1619,-1.1619,-1.1626,-1.1653,-1.1714,-1.1796,-1.1843,-1.1932,-1.2033,-1.1938,-1.1796,-1.1701,-1.1633,-1.1619,-1.1619,-1.1619,-1.1613,-1.1613,-1.1613,-1.1606,-1.1592,-1.1572,-1.1579,-1.1599,-1.1586,-1.1606,-1.1606,-1.1606,-1.1619,-1.1613,-1.1599,-1.1592,-1.1592,-1.1613,-1.1586,-1.1592,-1.1606,-1.1599,-1.1572,-1.147,-1.1355,-1.1274,-1.1321,-1.1396,-1.1402,-1.1525,-1.1599,-1.1619,-1.1619,-1.1619,-1.1619,-1.1619,-1.1619,-1.1619,-1.1619,-1.1619,-1.1619,-1.1619,-1.1619,-1.1619,-1.1606,-1.147,-1.1321,-1.1077,-1.0853,-1.0582,-1.0344,-1.0229,-0.9705,-0.8044,-0.6909,-0.6046,0.0,0.0,0.0,0.0,0.0,0.0,0.0,0.0,-1.0717,-1.0717,-1.0717,-1.0717,-1.0717,-1.0717,-1.0717,-1.0717,-1.0717,-1.086,-1.1077,-1.1151,-1.1314,-1.1558,-1.1592,-1.1619,-1.1619,-1.1619,-1.1619,-1.1619,-1.1619,-1.1619,-1.1619,-1.1619,-1.1619,-1.1619,-1.1619,-1.1619,-1.1619,-1.1619,-1.1619,-1.1619,-1.1619,-1.1619,-1.1619,-1.1619,-1.1619,-1.164,-1.1721,-1.1796,-1.187,-1.1965,-1.2081,-1.2196,-1.2088,-1.1945,-1.1796,-1.1674,-1.1619,-1.1619,-1.1626,-1.1633,-1.1619,-1.1619,-1.1619,-1.1619,-1.1619,-1.1619,-1.1619,-1.1619,-1.1619,-1.1619,-1.1619,-1.1619,-1.1619,-1.1619,-1.1619,-1.1619,-1.1619,-1.1619,-1.1619,-1.1619,-1.1619,-1.1606,-1.1579,-1.1545,-1.1511,-1.1443,-1.1409,-1.1436,-1.1525,-1.1619,-1.1619,-1.1619,-1.1619,-1.1619,-1.1619,-1.1619,-1.1619,-1.1619,-1.1619,-1.1619,-1.1619,-1.1619,-1.1619,-1.1592,-1.1477,-1.1341,-1.1124,-1.0819,-1.0548,-1.0378,-1.0243,-0.8961,-0.7212,-0.6081,-0.4742,0.0,0.0,0.0,0.0,0.0,0.0,0.0,0.0,-1.0717,-1.0717,-1.0717,-1.0717,-1.0717,-1.0717,-1.0717,-1.0717,-1.0717,-1.0846,-1.1043,-1.1124,-1.1294,-1.1511,-1.1586,-1.1619,-1.1619,-1.1619,-1.1619,-1.1619,-1.1619,-1.1619,-1.1619,-1.1619,-1.1619,-1.1619,-1.1619,-1.1619,-1.1619,-1.1619,-1.1619,-1.1619,-1.1619,-1.1619,-1.1619,-1.1619,-1.166,-1.1866,-1.1942,-1.2038,-1.204,-1.2121,-1.2189,-1.2264,-1.2203,-1.2094,-1.1945,-1.1724,-1.1643,-1.159,-1.1569,-1.1536,-1.1633,-1.1619,-1.1619,-1.1619,-1.1619,-1.1619,-1.1619,-1.1619,-1.1619,-1.1619,-1.1619,-1.1619,-1.1619,-1.1619,-1.1619,-1.1619,-1.1619,-1.1619,-1.1619,-1.1619,-1.1619,-1.1619,-1.1619,-1.1619,-1.1606,-1.1545,-1.1497,-1.1511,-1.1572,-1.1606,-1.1619,-1.1619,-1.1619,-1.1619,-1.1619,-1.1619,-1.1619,-1.1619,-1.1619,-1.1619,-1.1619,-1.1619,-1.1619,-1.1565,-1.1463,-1.1321,-1.1151,-1.0799,-1.046,-1.0337,-1.0369,-0.883,-0.7326,-0.4007,0.0,0.0,0.0,0.0,0.0,0.0,0.0,0.0,0.0,-1.0717,-1.0717,-1.0717,-1.0717,-1.0717,-1.0717,-1.0717,-1.0717,-1.0717,-1.0678,-1.0806,-1.1084,-1.1199,-1.1362,-1.1511,-1.1586,-1.1613,-1.1619,-1.1619,-1.1619,-1.1619,-1.1619,-1.1619,-1.1619,-1.1619,-1.1619,-1.1619,-1.1619,-1.1619,-1.1619,-1.1619,-1.1619,-1.1619,-1.1619,-1.1619,-1.1653,-1.1714,-1.1955,-1.2058,-1.2182,-1.2223,-1.2291,-1.2325,-1.2332,-1.2284,-1.2216,-1.2108,-1.1891,-1.1682,-1.1724,-1.1717,-1.1636,-1.1543,-1.1626,-1.1619,-1.1619,-1.1619,-1.1619,-1.1619,-1.1619,-1.1619,-1.1619,-1.1619,-1.1619,-1.1619,-1.1619,-1.1619,-1.1619,-1.1619,-1.1619,-1.1619,-1.1619,-1.1619,-1.1619,-1.1619,-1.1619,-1.1619,-1.1619,-1.1599,-1.1606,-1.1599,-1.1613,-1.1619,-1.1619,-1.1619,-1.1619,-1.1619,-1.1619,-1.1626,-1.1626,-1.1633,-1.1619,-1.1619,-1.1619,-1.1619,-1.1599,-1.1491,-1.1301,-1.1151,-1.0812,-1.0446,-1.0324,-1.0102,-0.9193,-0.7301,-0.3877,0.0,0.0,0.0,0.0,0.0,0.0,0.0,0.0,0.0,-1.0717,-1.0717,-1.0717,-1.0717,-1.0717,-1.0717,-1.0717,-1.0717,-1.0717,-1.0672,-1.0657,-1.0839,-1.1077,-1.1212,-1.1362,-1.1497,-1.1592,-1.1619,-1.1619,-1.1619,-1.1619,-1.1619,-1.1619,-1.1619,-1.1619,-1.1619,-1.1619,-1.1619,-1.1619,-1.1619,-1.164,-1.1626,-1.164,-1.1647,-1.1543,-1.1583,-1.1816,-1.2065,-1.2216,-1.2374,-1.2305,-1.2413,-1.2467,-1.2461,-1.2386,-1.2318,-1.225,-1.2135,-1.2047,-1.2026,-1.2026,-1.1938,-1.167,-1.1701,-1.1647,-1.1619,-1.1619,-1.1619,-1.1619,-1.1619,-1.1619,-1.1619,-1.1619,-1.1619,-1.1619,-1.1619,-1.1619,-1.1619,-1.1619,-1.1619,-1.1619,-1.1619,-1.1619,-1.1619,-1.1619,-1.1619,-1.1619,-1.1619,-1.1619,-1.1619,-1.1619,-1.1619,-1.1619,-1.1619,-1.1619,-1.1633,-1.166,-1.166,-1.1667,-1.166,-1.166,-1.164,-1.1619,-1.1619,-1.1619,-1.1599,-1.1525,-1.1287,-1.1097,-1.0846,-1.0534,-1.0351,-0.9949,-0.928,-0.7178,-0.3902,0.0,0.0,0.0,0.0,0.0,0.0,0.0,0.0,0.0,-1.0717,-1.0717,-1.0717,-1.0717,-1.0717,-1.0717,-1.0717,-1.0717,-1.0724,-1.0758,-1.0699,-1.0772,-1.0982,-1.1097,-1.1301,-1.147,-1.1586,-1.1619,-1.1619,-1.1619,-1.1619,-1.1619,-1.1626,-1.1619,-1.1619,-1.1619,-1.1619,-1.1626,-1.1626,-1.1701,-1.1721,-1.1748,-1.1796,-1.1843,-1.1703,-1.161,-1.1844,-1.223,-1.2368,-1.2491,-1.2406,-1.2542,-1.261,-1.2596,-1.2562,-1.2522,-1.2488,-1.2372,-1.2257,-1.2354,-1.2333,-1.2251,-1.2134,-1.1884,-1.1775,-1.166,-1.1626,-1.1619,-1.1619,-1.1619,-1.1619,-1.1619,-1.1619,-1.1619,-1.1619,-1.1619,-1.1619,-1.1619,-1.1619,-1.1619,-1.1619,-1.1619,-1.1619,-1.1619,-1.1613,-1.1613,-1.1619,-1.1619,-1.1613,-1.1613,-1.1619,-1.1619,-1.1619,-1.1619,-1.1619,-1.1647,-1.1687,-1.1701,-1.1714,-1.1755,-1.1775,-1.1694,-1.1667,-1.1619,-1.1619,-1.1606,-1.1504,-1.128,-1.109,-1.0839,-1.0561,-1.0344,-1.0148,-0.9724,-0.7016,-0.3791,0.0,0.0,0.0,0.0,0.0,0.0,0.0,0.0,0.0,-1.0717,-1.0717,-1.0717,-1.0717,-1.0717,-1.0717,-1.0717,-1.0717,-1.0717,-1.0724,-1.0738,-1.0839,-1.0894,-1.0975,-1.1199,-1.143,-1.1599,-1.1619,-1.1619,-1.1626,-1.166,-1.1667,-1.1667,-1.1694,-1.1735,-1.161,-1.1748,-1.1687,-1.1694,-1.1762,-1.183,-1.1891,-1.2013,-1.1904,-1.1735,-1.1762,-1.2032,-1.2257,-1.2491,-1.256,-1.2549,-1.2664,-1.2752,-1.2773,-1.2773,-1.2752,-1.2684,-1.2596,-1.2461,-1.2525,-1.2477,-1.2422,-1.2449,-1.2265,-1.1965,-1.1721,-1.1667,-1.1647,-1.1619,-1.1619,-1.1619,-1.1619,-1.1619,-1.1619,-1.1619,-1.1619,-1.1619,-1.1619,-1.1619,-1.1619,-1.1619,-1.1619,-1.1619,-1.1606,-1.1592,-1.1579,-1.1592,-1.1592,-1.1579,-1.1586,-1.1606,-1.1619,-1.1619,-1.1619,-1.1619,-1.166,-1.1701,-1.1769,-1.1796,-1.1932,-1.1932,-1.1803,-1.1721,-1.164,-1.1619,-1.1619,-1.147,-1.1233,-1.1097,-1.0921,-1.0595,-1.029,-1.0114,-0.9704,-0.703,0.0,0.0,0.0,0.0,0.0,0.0,0.0,0.0,0.0,0.0,-1.0717,-1.0717,-1.0717,-1.0717,-1.0717,-1.0717,-1.0717,-1.0717,-1.0717,-1.0717,-1.0717,-1.0744,-1.0765,-1.086,-1.1077,-1.1355,-1.1545,-1.1619,-1.1626,-1.1653,-1.159,-1.1796,-1.1983,-1.2107,-1.1797,-1.1791,-1.1965,-1.1925,-1.187,-1.1864,-1.1918,-1.2026,-1.2074,-1.2074,-1.1978,-1.2059,-1.2119,-1.2471,-1.2574,-1.2549,-1.2671,-1.2732,-1.2827,-1.2901,-1.2922,-1.2888,-1.2793,-1.2554,-1.2454,-1.2501,-1.2474,-1.256,-1.245,-1.2416,-1.2094,-1.1911,-1.1796,-1.1755,-1.1647,-1.1619,-1.1619,-1.1619,-1.1619,-1.1619,-1.1619,-1.1619,-1.1619,-1.1619,-1.1619,-1.1619,-1.1619,-1.1619,-1.1619,-1.1586,-1.1545,-1.1552,-1.1572,-1.1586,-1.1565,-1.1586,-1.1613,-1.1619,-1.1619,-1.1619,-1.1626,-1.1674,-1.1728,-1.1803,-1.1877,-1.1999,-1.2047,-1.1911,-1.1735,-1.164,-1.1586,-1.1592,-1.1436,-1.1192,-1.1077,-1.0948,-1.0616,-1.0297,-1.012,-0.9106,-0.668,-0.4551,0.0,0.0,0.0,0.0,0.0,0.0,0.0,0.0,0.0,-1.0717,-1.0717,-1.0717,-1.0717,-1.0717,-1.0717,-1.0717,-1.0717,-1.0717,-1.0717,-1.0717,-1.0724,-1.0806,-1.0962,-1.1124,-1.1328,-1.1565,-1.1619,-1.1667,-1.1576,-1.1657,-1.1884,-1.2261,-1.2331,-1.206,-1.1925,-1.1918,-1.2088,-1.206,-1.2088,-1.2135,-1.2182,-1.2264,-1.2325,-1.2277,-1.2366,-1.24,-1.2454,-1.2549,-1.2657,-1.2752,-1.2888,-1.301,-1.3078,-1.3078,-1.3037,-1.2963,-1.2628,-1.2554,-1.2454,-1.2562,-1.2481,-1.2427,-1.2386,-1.2277,-1.2006,-1.1965,-1.185,-1.166,-1.1626,-1.1619,-1.1619,-1.1619,-1.1619,-1.1619,-1.1619,-1.1619,-1.1619,-1.1619,-1.1619,-1.1619,-1.1619,-1.1619,-1.1586,-1.1531,-1.1558,-1.1579,-1.1565,-1.1572,-1.1592,-1.1619,-1.1619,-1.1619,-1.1619,-1.1626,-1.1667,-1.1796,-1.1945,-1.1979,-1.2026,-1.204,-1.1999,-1.1803,-1.1619,-1.1572,-1.1538,-1.1389,-1.1185,-1.1043,-1.088,-1.0582,-1.0317,-1.0154,-0.9901,-0.87,-0.6183,-0.3209,0.0,0.0,0.0,0.0,0.0,0.0,0.0,0.0,-1.0717,-1.0717,-1.0717,-1.0717,-1.0717,-1.0717,-1.0717,-1.0717,-1.0717,-1.0717,-1.0717,-1.0731,-1.0887,-1.1111,-1.1179,-1.1328,-1.1606,-1.1619,-1.1708,-1.1643,-1.1737,-1.1986,-1.2407,-1.2463,-1.2347,-1.2012,-1.221,-1.2244,-1.2305,-1.2332,-1.2325,-1.2345,-1.2413,-1.2474,-1.2488,-1.2488,-1.2501,-1.2731,-1.2657,-1.2759,-1.2881,-1.3057,-1.3159,-1.3214,-1.3227,-1.3214,-1.3139,-1.299,-1.2854,-1.2534,-1.263,-1.2556,-1.2501,-1.2467,-1.2372,-1.2169,-1.2121,-1.2013,-1.1809,-1.1694,-1.1633,-1.1619,-1.1619,-1.1619,-1.1619,-1.1619,-1.1619,-1.1619,-1.1619,-1.1619,-1.1619,-1.1619,-1.1619,-1.1599,-1.1565,-1.1586,-1.1599,-1.1558,-1.1558,-1.1599,-1.1619,-1.1619,-1.1619,-1.1619,-1.1633,-1.166,-1.1823,-1.2047,-1.2101,-1.2108,-1.2047,-1.202,-1.1803,-1.1606,-1.1511,-1.1436,-1.1294,-1.1165,-1.1023,-1.0839,-1.0561,-1.0365,-1.0215,-0.9975,-0.9744,-0.8688,-0.6179,0.0,0.0,0.0,0.0,0.0,0.0,0.0,0.0,-1.0717,-1.0717,-1.0717,-1.0717,-1.0717,-1.0717,-1.0717,-1.0717,-1.0717,-1.0717,-1.0724,-1.0744,-1.09,-1.1104,-1.1206,-1.1348,-1.1619,-1.1619,-1.1721,-1.185,-1.1979,-1.2271,-1.2402,-1.2519,-1.2433,-1.2433,-1.2406,-1.2427,-1.2474,-1.2447,-1.2467,-1.2494,-1.2488,-1.2494,-1.2515,-1.2528,-1.2752,-1.2834,-1.2759,-1.2908,-1.3037,-1.3173,-1.3247,-1.3349,-1.3363,-1.3322,-1.3186,-1.3281,-1.301,-1.2628,-1.2712,-1.2644,-1.2562,-1.2515,-1.2406,-1.2284,-1.2237,-1.2135,-1.1979,-1.1769,-1.164,-1.1619,-1.1619,-1.1619,-1.1619,-1.1619,-1.1619,-1.1619,-1.1619,-1.1619,-1.1619,-1.1619,-1.1619,-1.1599,-1.1579,-1.1572,-1.1565,-1.1511,-1.1525,-1.1592,-1.1619,-1.1619,-1.1619,-1.1619,-1.1619,-1.1647,-1.187,-1.2094,-1.2196,-1.2196,-1.2094,-1.1993,-1.1775,-1.1592,-1.1436,-1.1328,-1.1233,-1.1097,-1.0948,-1.0778,-1.0568,-1.0405,-1.0243,-0.9758,-0.9398,-0.9347,0.0,0.0,0.0,0.0,0.0,0.0,0.0,0.0,0.0,-1.0717,-1.0717,-1.0717,-1.0717,-1.0717,-1.0717,-1.0717,-1.0717,-1.0717,-1.0717,-1.0731,-1.0826,-1.0975,-1.1138,-1.128,-1.1416,-1.1599,-1.1619,-1.1762,-1.1918,-1.2054,-1.2203,-1.2359,-1.2461,-1.2494,-1.2501,-1.2501,-1.2501,-1.2494,-1.2501,-1.2501,-1.2501,-1.2501,-1.2501,-1.2515,-1.2745,-1.2841,-1.2931,-1.3068,-1.3078,-1.3139,-1.3275,-1.3342,-1.339,-1.3397,-1.3376,-1.3308,-1.3384,-1.3274,-1.299,-1.2834,-1.2725,-1.263,-1.2562,-1.2447,-1.2325,-1.2305,-1.223,-1.2088,-1.1877,-1.1721,-1.1626,-1.1619,-1.1619,-1.1619,-1.1619,-1.1619,-1.1619,-1.1619,-1.1619,-1.1619,-1.1619,-1.1613,-1.1599,-1.1586,-1.1572,-1.1552,-1.1518,-1.1525,-1.1606,-1.1619,-1.1619,-1.1619,-1.1619,-1.1619,-1.164,-1.1891,-1.2115,-1.221,-1.2223,-1.2101,-1.1986,-1.1782,-1.1558,-1.1396,-1.1287,-1.1179,-1.1023,-1.0873,-1.0744,-1.0595,-1.0399,-1.0122,-0.9638,-0.8676,-0.7857,-0.62,-0.309,0.0,0.0,0.0,0.0,0.0,0.0,0.0,-1.0717,-1.0717,-1.0717,-1.0717,-1.0717,-1.0717,-1.0717,-1.0717,-1.0717,-1.0717,-1.0731,-1.088,-1.1029,-1.1172,-1.1321,-1.147,-1.1586,-1.164,-1.1809,-1.1952,-1.2081,-1.2244,-1.2406,-1.2501,-1.2501,-1.2501,-1.2501,-1.2501,-1.2501,-1.2501,-1.2501,-1.2501,-1.2501,-1.2501,-1.2535,-1.2807,-1.3089,-1.3068,-1.3198,-1.3214,-1.3247,-1.339,-1.3471,-1.3492,-1.3526,-1.3519,-1.3471,-1.339,-1.3439,-1.3139,-1.299,-1.284,-1.2732,-1.2623,-1.2501,-1.2406,-1.2338,-1.2291,-1.2176,-1.1959,-1.1803,-1.1714,-1.1633,-1.1626,-1.1619,-1.1619,-1.1619,-1.1619,-1.1619,-1.1619,-1.1619,-1.1619,-1.1619,-1.1606,-1.1606,-1.1599,-1.1599,-1.1579,-1.1586,-1.1619,-1.1619,-1.1619,-1.1619,-1.1626,-1.1667,-1.1681,-1.1816,-1.204,-1.221,-1.2176,-1.204,-1.1925,-1.1803,-1.1572,-1.1355,-1.1253,-1.1138,-1.0914,-1.0792,-1.0765,-1.0622,-1.0439,-1.0189,-0.9875,-0.8626,-0.6629,0.0,0.0,0.0,0.0,0.0,0.0,0.0,0.0,0.0,-1.0717,-1.0717,-1.0717,-1.0717,-1.0717,-1.0717,-1.0717,-1.0717,-1.0717,-1.0717,-1.0744,-1.0887,-1.1036,-1.1179,-1.1341,-1.1497,-1.1599,-1.164,-1.1789,-1.2006,-1.2101,-1.2257,-1.2406,-1.2501,-1.2501,-1.2501,-1.2501,-1.2501,-1.2501,-1.2501,-1.2501,-1.2501,-1.2501,-1.2515,-1.2522,-1.2821,-1.32,-1.3281,-1.3166,-1.3268,-1.3397,-1.3532,-1.358,-1.3641,-1.3709,-1.3702,-1.3627,-1.3566,-1.3437,-1.3275,-1.3159,-1.2996,-1.282,-1.2739,-1.263,-1.2515,-1.2488,-1.2474,-1.2447,-1.2067,-1.1884,-1.1789,-1.1694,-1.1619,-1.1619,-1.1619,-1.1619,-1.1619,-1.1619,-1.1619,-1.1619,-1.1619,-1.1619,-1.1619,-1.1619,-1.1619,-1.1619,-1.1619,-1.1619,-1.1619,-1.1619,-1.1619,-1.1619,-1.1633,-1.1701,-1.1755,-1.1809,-1.1959,-1.2162,-1.2149,-1.202,-1.1918,-1.1816,-1.1579,-1.1369,-1.124,-1.1084,-1.0853,-1.0731,-1.0724,-1.0677,-1.0534,-1.0303,-1.0108,-0.7949,-0.5319,0.0,0.0,0.0,0.0,0.0,0.0,0.0,0.0,0.0,-1.0717,-1.0717,-1.0717,-1.0717,-1.0717,-1.0717,-1.0717,-1.0717,-1.0717,-1.0717,-1.0772,-1.0968,-1.1104,-1.1226,-1.1416,-1.1565,-1.1619,-1.1748,-1.1898,-1.2047,-1.2149,-1.2318,-1.2454,-1.2501,-1.2501,-1.2501,-1.2501,-1.2501,-1.2501,-1.2501,-1.2501,-1.2501,-1.2508,-1.2562,-1.2664,-1.2972,-1.3325,-1.3329,-1.3439,-1.3397,-1.3539,-1.3607,-1.3675,-1.3763,-1.3831,-1.3831,-1.377,-1.3709,-1.3573,-1.3424,-1.3487,-1.3288,-1.313,-1.2895,-1.2718,-1.2623,-1.2583,-1.2501,-1.2461,-1.2244,-1.204,-1.1877,-1.1721,-1.164,-1.1619,-1.1619,-1.1619,-1.1619,-1.1619,-1.1619,-1.1619,-1.1619,-1.1619,-1.1619,-1.1619,-1.1619,-1.1619,-1.1619,-1.1619,-1.1619,-1.1619,-1.1619,-1.1619,-1.1633,-1.1694,-1.1816,-1.1884,-1.1959,-1.2135,-1.2121,-1.2033,-1.1945,-1.1823,-1.1586,-1.1382,-1.1274,-1.1124,-1.0921,-1.0785,-1.0724,-1.0656,-1.0588,-1.0541,-1.0344,-0.7121,0.0,0.0,0.0,0.0,0.0,0.0,0.0,0.0,0.0,0.0,-1.0717,-1.0717,-1.0717,-1.0717,-1.0717,-1.0717,-1.0717,-1.0717,-1.0724,-1.0744,-1.0846,-1.1056,-1.1199,-1.1301,-1.1484,-1.1619,-1.1633,-1.1769,-1.1911,-1.2067,-1.2059,-1.2206,-1.2454,-1.2501,-1.2501,-1.2501,-1.2501,-1.2501,-1.2501,-1.2501,-1.2501,-1.2501,-1.2508,-1.2474,-1.2608,-1.3082,-1.3394,-1.3391,-1.3363,-1.3458,-1.3587,-1.3688,-1.3777,-1.3899,-1.3966,-1.3987,-1.3899,-1.3797,-1.3851,-1.3748,-1.359,-1.3398,-1.3295,-1.3178,-1.2827,-1.2732,-1.2596,-1.2515,-1.2461,-1.2359,-1.2142,-1.1952,-1.1775,-1.1674,-1.1633,-1.1619,-1.1619,-1.1619,-1.1619,-1.1619,-1.1619,-1.1619,-1.1619,-1.1619,-1.1619,-1.1619,-1.1619,-1.1619,-1.1619,-1.1619,-1.1619,-1.1619,-1.1619,-1.1647,-1.1674,-1.1816,-1.1952,-1.204,-1.2101,-1.206,-1.204,-1.1979,-1.183,-1.1592,-1.143,-1.1335,-1.1172,-1.0982,-1.0873,-1.0778,-1.0704,-1.0649,-1.0616,-1.0189,-0.7098,0.0,0.0,0.0,0.0,0.0,0.0,0.0,0.0,0.0,0.0,-1.0717,-1.0717,-1.0717,-1.0717,-1.0717,-1.0738,-1.0738,-1.0724,-1.0731,-1.0812,-1.0955,-1.1104,-1.1253,-1.1389,-1.1552,-1.1626,-1.1681,-1.1796,-1.1952,-1.2094,-1.2112,-1.2386,-1.2467,-1.2501,-1.2501,-1.2501,-1.2501,-1.2501,-1.2501,-1.2501,-1.2501,-1.2508,-1.2535,-1.2534,-1.2695,-1.2996,-1.3301,-1.3473,-1.339,-1.3485,-1.3607,-1.3749,-1.3878,-1.4014,-1.4129,-1.415,-1.4068,-1.4112,-1.3968,-1.3654,-1.3498,-1.3507,-1.3398,-1.3343,-1.299,-1.2786,-1.2589,-1.2549,-1.2488,-1.2372,-1.223,-1.204,-1.1918,-1.1782,-1.1667,-1.1619,-1.1619,-1.1619,-1.1619,-1.1619,-1.1619,-1.1619,-1.1619,-1.1619,-1.1619,-1.1619,-1.1619,-1.1619,-1.1619,-1.1619,-1.1619,-1.1619,-1.1619,-1.1633,-1.1681,-1.1864,-1.2013,-1.2149,-1.2169,-1.2013,-1.2006,-1.2013,-1.1843,-1.1599,-1.147,-1.1396,-1.1294,-1.1124,-1.0975,-1.0867,-1.0792,-1.0717,-1.0683,-0.9732,-0.6947,0.0,0.0,0.0,0.0,0.0,0.0,0.0,0.0,0.0,0.0,-1.0717,-1.0717,-1.0717,-1.0717,-1.0738,-1.0699,-1.0685,-1.0738,-1.0967,-1.1063,-1.1104,-1.1219,-1.1348,-1.1402,-1.1552,-1.1667,-1.1789,-1.1925,-1.2081,-1.2223,-1.2345,-1.244,-1.2488,-1.2501,-1.2501,-1.2508,-1.2508,-1.2522,-1.2508,-1.2508,-1.2508,-1.2508,-1.2596,-1.245,-1.2755,-1.3057,-1.3227,-1.3349,-1.3397,-1.3492,-1.362,-1.377,-1.3919,-1.4068,-1.4224,-1.4238,-1.4197,-1.4242,-1.4098,-1.3783,-1.3465,-1.3485,-1.3349,-1.3227,-1.3044,-1.2773,-1.2671,-1.263,-1.2522,-1.2461,-1.2325,-1.2121,-1.2006,-1.185,-1.1714,-1.1619,-1.1619,-1.1619,-1.1619,-1.1619,-1.1619,-1.1619,-1.1619,-1.1619,-1.1619,-1.1619,-1.1619,-1.1619,-1.1619,-1.1619,-1.1619,-1.1619,-1.1619,-1.1619,-1.1687,-1.1898,-1.2067,-1.2196,-1.223,-1.2074,-1.1993,-1.2013,-1.1843,-1.1599,-1.1538,-1.147,-1.1382,-1.128,-1.1111,-1.0962,-1.088,-1.0806,-1.0758,-0.8845,-0.5629,-0.2952,0.0,0.0,0.0,0.0,0.0,0.0,0.0,0.0,0.0,-1.0717,-1.0717,-1.0717,-1.0717,-1.0744,-1.0745,-1.0752,-1.0846,-1.1111,-1.1207,-1.1283,-1.1454,-1.1423,-1.1497,-1.1586,-1.1694,-1.183,-1.1979,-1.2128,-1.2277,-1.244,-1.2481,-1.2501,-1.2501,-1.2501,-1.2515,-1.2562,-1.261,-1.2576,-1.2583,-1.2583,-1.2515,-1.2501,-1.2648,-1.2789,-1.3091,-1.3411,-1.3342,-1.3417,-1.3492,-1.362,-1.3763,-1.3919,-1.4061,-1.4217,-1.4285,-1.4278,-1.4331,-1.4208,-1.3905,-1.3756,-1.3425,-1.3444,-1.3295,-1.3098,-1.2854,-1.2745,-1.2644,-1.2535,-1.2501,-1.2325,-1.2155,-1.2054,-1.1891,-1.1735,-1.1619,-1.1619,-1.1619,-1.1619,-1.1619,-1.1619,-1.1619,-1.1619,-1.1619,-1.1619,-1.1619,-1.1619,-1.1619,-1.1619,-1.1619,-1.1619,-1.1619,-1.1619,-1.1619,-1.1681,-1.1857,-1.202,-1.2162,-1.2203,-1.2135,-1.206,-1.204,-1.1837,-1.1606,-1.1565,-1.1531,-1.1463,-1.1355,-1.1192,-1.1056,-1.0968,-1.0578,-1.0219,-0.7374,-0.3761,0.0,0.0,0.0,0.0,0.0,0.0,0.0,0.0,0.0,0.0,-1.0717,-1.0717,-1.0717,-1.0731,-1.0765,-1.0766,-1.0839,-1.1138,-1.1289,-1.1406,-1.1509,-1.1409,-1.1491,-1.1579,-1.1619,-1.1728,-1.187,-1.2013,-1.2169,-1.2305,-1.244,-1.2501,-1.2501,-1.2501,-1.2501,-1.2549,-1.2596,-1.2617,-1.2678,-1.2651,-1.2583,-1.2528,-1.2691,-1.2854,-1.301,-1.3152,-1.3453,-1.337,-1.341,-1.3464,-1.36,-1.3749,-1.3905,-1.4041,-1.4183,-1.4292,-1.4265,-1.4366,-1.4263,-1.4153,-1.3844,-1.3492,-1.3325,-1.3363,-1.3152,-1.299,-1.2861,-1.2712,-1.2589,-1.2528,-1.2359,-1.2196,-1.206,-1.1918,-1.1769,-1.164,-1.1619,-1.1619,-1.1619,-1.1619,-1.1619,-1.1619,-1.1619,-1.1619,-1.1619,-1.1619,-1.1619,-1.1619,-1.1619,-1.1619,-1.1619,-1.1619,-1.1619,-1.1619,-1.1674,-1.183,-1.1979,-1.2128,-1.2196,-1.2176,-1.2128,-1.2074,-1.187,-1.1674,-1.1606,-1.1572,-1.1531,-1.1423,-1.126,-1.1138,-1.1043,-1.0348,-0.9528,-0.6978,0.0,0.0,0.0,0.0,0.0,0.0,0.0,0.0,0.0,0.0,0.0,-1.0717,-1.0717,-1.0717,-1.0785,-1.0772,-1.077,-1.0895,-1.1154,-1.1443,-1.1605,-1.1571,-1.1511,-1.1572,-1.1613,-1.1619,-1.1742,-1.1972,-1.204,-1.2223,-1.2366,-1.2494,-1.2501,-1.2501,-1.2501,-1.2501,-1.2508,-1.2542,-1.2596,-1.2603,-1.2596,-1.2623,-1.2684,-1.2813,-1.2956,-1.2936,-1.3247,-1.3356,-1.3397,-1.341,-1.3417,-1.3492,-1.3695,-1.3878,-1.3987,-1.4109,-1.4278,-1.4278,-1.4272,-1.4345,-1.4235,-1.3899,-1.3695,-1.3464,-1.3383,-1.3268,-1.3125,-1.2969,-1.2813,-1.2671,-1.2556,-1.24,-1.2264,-1.2128,-1.1965,-1.1823,-1.1694,-1.1626,-1.1626,-1.1619,-1.1619,-1.1619,-1.1619,-1.1619,-1.1619,-1.1619,-1.1619,-1.1619,-1.1619,-1.1619,-1.1619,-1.1619,-1.1619,-1.1619,-1.1647,-1.1701,-1.1816,-1.1965,-1.2108,-1.2223,-1.225,-1.2189,-1.2115,-1.1932,-1.1769,-1.1687,-1.1613,-1.1572,-1.1484,-1.1341,-1.1226,-1.1111,-0.9826,-0.8728,-0.767,0.0,0.0,0.0,0.0,0.0,0.0,0.0,0.0,0.0,0.0,0.0,-1.0717,-1.0731,-1.0792,-1.0867,-1.0839,-1.0889,-1.1028,-1.1261,-1.1552,-1.1572,-1.1653,-1.1579,-1.1619,-1.1619,-1.1619,-1.1782,-1.202,-1.2054,-1.2244,-1.242,-1.2501,-1.2501,-1.2501,-1.2501,-1.2501,-1.2508,-1.2583,-1.2617,-1.2583,-1.2617,-1.2684,-1.2752,-1.2888,-1.2876,-1.301,-1.3315,-1.3397,-1.3397,-1.3397,-1.3403,-1.3431,-1.3661,-1.3824,-1.3926,-1.4095,-1.4258,-1.4299,-1.4299,-1.4258,-1.4122,-1.3787,-1.3519,-1.3492,-1.3397,-1.3315,-1.318,-1.303,-1.2895,-1.2745,-1.2589,-1.2447,-1.2311,-1.2237,-1.2094,-1.1979,-1.1857,-1.1735,-1.1721,-1.1633,-1.1619,-1.1619,-1.1619,-1.1619,-1.1619,-1.1619,-1.1619,-1.1619,-1.1619,-1.1619,-1.1619,-1.1619,-1.1619,-1.1619,-1.1619,-1.1687,-1.1816,-1.1965,-1.2121,-1.223,-1.2338,-1.2271,-1.2176,-1.2013,-1.1864,-1.1769,-1.1681,-1.1606,-1.1511,-1.1402,-1.124,-1.0946,-0.9261,-0.7804,-0.687,0.0,0.0,0.0,0.0,0.0,0.0,0.0,0.0,0.0,0.0,0.0,-1.0717,-1.0744,-1.088,-1.0962,-1.1016,-1.1127,-1.1255,-1.1302,-1.1558,-1.1619,-1.1606,-1.1613,-1.1619,-1.1619,-1.1633,-1.1837,-1.1986,-1.2047,-1.2244,-1.2433,-1.2494,-1.2501,-1.2501,-1.2501,-1.2501,-1.2535,-1.2596,-1.2637,-1.2644,-1.2678,-1.2718,-1.2779,-1.2908,-1.3064,-1.3037,-1.3308,-1.3397,-1.3397,-1.3397,-1.3397,-1.3519,-1.3675,-1.379,-1.3939,-1.4116,-1.4278,-1.4299,-1.4299,-1.4299,-1.4001,-1.382,-1.3532,-1.3331,-1.3397,-1.3342,-1.3227,-1.3051,-1.2915,-1.2773,-1.261,-1.2474,-1.2359,-1.2318,-1.2237,-1.2115,-1.2013,-1.1891,-1.1809,-1.1721,-1.1653,-1.1653,-1.1626,-1.1626,-1.1619,-1.1619,-1.1619,-1.1619,-1.1619,-1.1626,-1.1626,-1.1626,-1.1626,-1.1633,-1.1633,-1.1721,-1.1843,-1.1979,-1.2128,-1.2257,-1.2359,-1.2386,-1.2284,-1.2149,-1.2006,-1.185,-1.1762,-1.1674,-1.1558,-1.1443,-1.1246,-1.0796,-0.9721,-0.8267,-0.6329,0.0,0.0,0.0,0.0,0.0,0.0,0.0,0.0,0.0,0.0,0.0,-1.0717,-1.0738,-1.0887,-1.1016,-1.1138,-1.1174,-1.1315,-1.1565,-1.1599,-1.1619,-1.1619,-1.1619,-1.1619,-1.1619,-1.1619,-1.1782,-1.2026,-1.2074,-1.225,-1.2467,-1.2494,-1.2501,-1.2501,-1.2501,-1.2501,-1.2528,-1.2549,-1.2549,-1.2637,-1.2705,-1.28,-1.2922,-1.3051,-1.3193,-1.3329,-1.3397,-1.3397,-1.3397,-1.3397,-1.3397,-1.3485,-1.3634,-1.3797,-1.396,-1.4136,-1.4245,-1.4299,-1.4299,-1.4299,-1.4204,-1.3827,-1.3532,-1.3338,-1.3397,-1.3363,-1.3281,-1.3105,-1.2969,-1.2827,-1.263,-1.2481,-1.244,-1.2386,-1.2311,-1.2216,-1.2142,-1.2054,-1.2013,-1.1925,-1.1809,-1.1775,-1.1674,-1.1647,-1.1626,-1.1619,-1.1619,-1.1619,-1.1633,-1.1647,-1.1653,-1.1667,-1.1674,-1.1681,-1.1721,-1.1809,-1.1945,-1.2101,-1.2237,-1.2311,-1.24,-1.2488,-1.2386,-1.2264,-1.2074,-1.1884,-1.183,-1.1748,-1.1626,-1.1342,-1.0722,-1.0448,-1.0652,-0.9041,-0.5272,0.0,0.0,0.0,0.0,0.0,0.0,0.0,0.0,0.0,0.0,0.0]}]]